[[{"header":{"parameterUnit":"m.s-1","parameterCategory":1,"la1":31.0,"la2":29.5877,"lo1":-88.7671,"lo2":-86.6584,"dy":0.0162,"dx":0.0185,"nx":115,"ny":88,"refTime":"2023-09-25T00:00:00:Z","depth":0,"parameterNumber":2,"parameterNumberName":"U-component_of_WINDS"},"data":[0.0,0.0,0.0,0.0,0.0,0.0,0.0,0.0,0.0,0.0,0.0,0.0,0.0,0.0,0.0,0.0,0.0,0.0,0.0,0.0,0.0,0.0,0.0,0.0,0.0,0.0,0.0,0.0,0.0,0.0,0.0,0.0,0.0,0.0,0.0,0.0,0.0,0.0,0.0,0.0,0.0,0.0,0.0,0.0,0.0,0.0,0.0,0.0,0.0,0.0,0.0,0.0,0.0,0.0,0.0,0.0,0.0,0.0,0.0,0.0,0.0,0.0,0.0,0.0,0.0,0.0,0.0,0.0,0.0,0.0,0.0,0.0,0.0,0.0,0.0,0.0,0.0,0.0,0.0,0.0,0.0,0.0,0.0,0.0,0.0,0.0,0.0,0.0,0.0,0.0,0.0,0.0,0.0,0.0,0.0,0.0,0.0,0.0,0.0,0.0,0.0,0.0,0.0,0.0,0.0,0.0,0.0,0.0,0.0,0.0,0.0,0.0,0.0,0.0,0.0,0.0,0.0,0.0,0.0,0.0,0.0,0.0,0.0,0.0,0.0,0.0,0.0,0.0,0.0,0.0,0.0,0.0,0.0,0.0,0.0,0.0,0.0,0.0,0.0,0.0,0.0,0.0,0.0,0.0,0.0,0.0,0.0,0.0,0.0,0.0,0.0,0.0,0.0,0.0,0.0,0.0,0.0,0.0,0.0,0.0,0.0,0.0,0.0,0.0,0.0,0.0,0.0,0.0,0.0,0.0,0.0,0.0,0.0,0.0,0.0,0.0,0.0,0.0,0.0,0.0,0.0,0.0,0.0,0.0,0.0,0.0,0.0,0.0,0.0,0.0,0.0,0.0,0.0,0.0,0.0,0.0,0.0,0.0,0.0,0.0,0.0,0.0,0.0,0.0,0.0,0.0,0.0,0.0,0.0,0.0,0.0,0.0,0.0,0.0,0.0,0.0,0.0,0.0,0.0,0.0,0.0,0.0,0.0,0.0,0.0,0.0,0.0,0.0,0.0,0.0,0.0,0.0,0.0,0.0,0.0,0.0,0.0,0.0,0.0,0.0,0.0,0.0,0.0,0.0,0.0,0.0,0.0,0.0,0.0,0.0,0.0,0.0,0.0,0.0,0.0,0.0,0.0,0.0,0.0,0.0,0.0,0.0,0.0,0.0,0.0,0.0,0.0,0.0,0.0,0.0,0.0,0.0,0.0,0.0,0.0,0.0,0.0,0.0,0.0,0.0,0.0,0.0,0.0,0.0,0.0,0.0,0.0,0.0,0.0,0.0,0.0,0.0,0.0,0.0,0.0,0.0,0.0,0.0,0.0,0.0,0.0,0.0,0.0,0.0,0.0,0.0,0.0,0.0,0.0,0.0,0.0,0.0,0.0,0.0,0.0,0.0,0.0,0.0,0.0,0.0,0.0,0.0,0.0,0.0,0.0,0.0,0.0,0.0,0.0,0.0,0.0,0.0,0.0,0.0,0.0,0.0,0.0,0.0,0.0,0.0,0.0,0.0,0.0,0.0,0.0,0.0,0.0,0.0,0.0,0.0,0.0,0.0,0.0,0.0,0.0,0.0,0.0,0.0,0.0,0.0,0.0,0.0,0.0,0.0,0.0,0.0,0.0,0.0,0.0,0.0,0.0,0.0,0.0,0.0,0.0,0.0,0.0,0.0,0.0,0.0,0.0,0.0,0.0,0.0,0.0,0.0,0.0,0.0,0.0,0.0,0.0,0.0,0.0,0.0,0.0,0.0,0.0,0.0,0.0,0.0,0.0,0.0,0.0,0.0,0.0,0.0,0.0,0.0,0.0,0.0,0.0,0.0,0.0,0.0,0.0,0.0,0.0,0.0,0.0,0.0,0.0,0.0,0.0,0.0,0.0,0.0,0.0,0.0,0.0,0.0,0.0,0.0,0.0,0.0,0.0,0.0,0.0,0.0,0.0,0.0,0.0,0.0,0.0,0.0,0.0,0.0,0.0,0.0,0.0,0.0,0.0,0.0,0.0,0.0,0.0,0.0,0.0,0.0,0.0,0.0,0.0,0.0,0.0,0.0,0.0,0.0,0.0,0.0,0.0,0.0,0.0,0.0,0.0,0.0,0.0,0.0,0.0,0.0,0.0,0.0,0.0,0.0,0.0,0.0,0.0,0.0,0.0,0.0,0.0,0.0,0.0,0.0,0.0,0.0,0.0,0.0,0.0,0.0,0.0,0.0,0.0,0.0,0.0,0.0,0.0,0.0,0.0,0.0,0.0,0.0,0.0,0.0,0.0,0.0,0.0,0.0,0.0,0.0,0.0,0.0,0.0,0.0,0.0,0.0,0.0,0.0,0.0,0.0,0.0,0.0,0.0,0.0,0.0,0.0,0.0,0.0,0.0,0.0,0.0,0.0,0.0,0.0,0.0,0.0,0.0,0.0,0.0,0.0,0.0,0.0,0.0,0.0,0.0,0.0,0.0,0.0,0.0,0.0,0.0,0.0,0.0,0.0,0.0,0.0,0.0,0.0,0.0,0.0,0.0,0.0,0.0,0.0,0.0,0.0,0.0,0.0,0.0,0.0,0.0,0.0,0.0,0.0,0.0,0.0,0.0,0.0,0.0,0.0,0.0,0.0,0.0,0.0,0.0,0.0,0.0,0.0,0.0,0.0,0.0,0.0,0.0,0.0,0.0,0.0,0.0,0.0,0.0,0.0,0.0,0.0,0.0,0.0,0.0,0.0,0.0,0.0,0.0,0.0,0.0,0.0,0.0,0.0,0.0,0.0,0.0,0.0,0.0,0.0,0.0,0.0,0.0,0.0,0.0,0.0,0.0,0.0,0.0,0.0,0.0,0.0,0.0,0.0,0.0,0.0,0.0,0.0,0.0,0.0,0.0,0.0,0.0,0.0,0.0,0.0,0.0,0.0,0.0,0.0,0.0,0.0,0.0,0.0,0.0,0.0,0.0,0.0,0.0,0.0,0.0,0.0,0.0,0.0,0.0,0.0,0.0,0.0,0.0,0.0,0.0,0.0,0.0,0.0,0.0,0.0,0.0,0.0,0.0,0.0,0.0,0.0,0.0,0.0,0.0,0.0,0.0,0.0,0.0,0.0,0.0,0.0,0.0,0.0,0.0,0.0,0.0,0.0,0.0,0.0,0.0,0.0,0.0,0.0,0.0,0.0,0.0,0.0,0.0,0.0,0.0,0.0,0.0,0.0,0.0,0.0,0.0,0.0,0.0,0.0,0.0,0.0,0.0,0.0,0.0,0.0,0.0,0.0,0.0,0.0,0.0,0.0,0.0,0.0,0.0,0.0,0.0,0.0,0.0,0.0,0.0,0.0,0.0,0.0,0.0,0.0,0.0,0.0,0.0,0.0,0.0,0.0,0.0,0.0,0.0,0.0,0.0,0.0,0.0,0.0,0.0,0.0,0.0,0.0,0.0,0.0,0.0,0.0,0.0,0.0,0.0,0.0,0.0,0.0,0.0,0.0,0.0,0.0,0.0,0.0,0.0,0.0,0.0,0.0,0.0,0.0,0.0,0.0,0.0,0.0,0.0,0.0,0.0,0.0,0.0,0.0,0.0,0.0,0.0,0.0,0.0,0.0,0.0,0.0,0.0,0.0,0.0,0.0,0.0,0.0,0.0,0.0,0.0,0.0,0.0,0.0,0.0,0.0,0.0,0.0,0.0,0.0,0.0,0.0,0.0,0.0,0.0,0.0,0.0,0.0,0.0,0.0,0.0,0.0,0.0,0.0,0.0,0.0,0.0,0.0,0.0,0.0,0.0,0.0,0.0,0.0,0.0,0.0,0.0,0.0,0.0,0.0,0.0,0.0,0.0,0.0,0.0,0.0,0.0,0.0,0.0,0.0,0.0,0.0,0.0,0.0,0.0,0.0,0.0,0.0,0.0,0.0,0.0,0.0,0.0,0.0,0.0,0.0,0.0,0.0,0.0,0.0,0.0,0.0,0.0,0.0,0.0,0.0,0.0,0.0,0.0,0.0,0.0,0.0,0.0,0.0,0.0,0.0,0.0,0.0,0.0,0.0,0.0,0.0,0.0,0.0,0.0,0.0,0.0,0.0,0.0,0.0,0.0,0.0,0.0,0.0,0.0,0.0,0.0,0.0,0.0,0.0,0.0,0.0,0.0,0.0,0.0,0.0,0.0,0.0,0.0,0.0,0.0,0.0,0.0,0.0,0.0,0.0,0.0,0.0,0.0,0.0,0.0,0.0,0.0,0.0,0.0,0.0,0.0,0.0,0.0,0.0,0.0,0.0,0.0,0.0,0.0,0.0,2.6508,0.0,0.0,0.0,0.0,0.0,0.0,0.0,0.0,0.0,0.0,0.0,0.0,0.0,0.0,0.0,0.0,0.0,0.0,0.0,0.0,0.0,0.0,0.0,0.0,0.0,0.0,0.0,0.0,0.0,0.0,0.0,0.0,0.0,0.0,0.0,0.0,0.0,0.0,0.0,0.0,0.0,0.0,0.0,0.0,0.0,0.0,0.0,0.0,0.0,0.0,0.0,0.0,0.0,0.0,0.0,0.0,0.0,0.0,0.0,0.0,0.0,0.0,0.0,0.0,0.0,0.0,0.0,0.0,0.0,0.0,0.0,0.0,0.0,0.0,0.0,0.0,0.0,0.0,0.0,0.0,0.0,0.0,0.0,0.0,0.0,0.0,0.0,0.0,0.0,0.0,0.0,0.0,0.0,0.0,0.0,0.0,0.0,0.0,0.0,0.0,0.0,0.0,0.0,0.0,0.0,0.0,0.0,0.0,0.0,0.0,2.6816,2.6516,2.6799,2.6816,2.6516,0.0,0.0,0.0,0.0,0.0,0.0,0.0,0.0,0.0,0.0,0.0,0.0,0.0,0.0,0.0,0.0,0.0,0.0,0.0,0.0,0.0,0.0,0.0,0.0,0.0,0.0,0.0,0.0,0.0,0.0,0.0,0.0,0.0,0.0,0.0,0.0,0.0,0.0,0.0,0.0,0.0,0.0,0.0,0.0,0.0,0.0,0.0,0.0,0.0,0.0,0.0,0.0,0.0,0.0,0.0,0.0,0.0,0.0,0.0,0.0,0.0,0.0,0.0,0.0,0.0,0.0,0.0,0.0,0.0,0.0,0.0,0.0,0.0,0.0,0.0,0.0,0.0,0.0,0.0,0.0,0.0,0.0,0.0,0.0,0.0,0.0,0.0,0.0,0.0,0.0,0.0,0.0,0.0,0.0,0.0,0.0,0.0,0.0,0.0,0.0,0.0,0.0,0.0,0.0,0.0,0.0,0.0,0.0,0.0,0.0,0.0,0.0,2.6499,2.6499,2.6499,0.0,0.0,0.0,0.0,0.0,0.0,0.0,0.0,0.0,0.0,0.0,0.0,0.0,0.0,0.0,0.0,0.0,0.0,0.0,0.0,0.0,0.0,0.0,0.0,0.0,0.0,0.0,0.0,0.0,0.0,0.0,0.0,0.0,0.0,0.0,0.0,0.0,0.0,0.0,0.0,0.0,0.0,0.0,0.0,0.0,0.0,0.0,0.0,0.0,0.0,0.0,0.0,0.0,0.0,0.0,0.0,0.0,0.0,0.0,0.0,0.0,0.0,0.0,0.0,0.0,0.0,0.0,0.0,0.0,0.0,0.0,0.0,0.0,0.0,0.0,0.0,0.0,0.0,0.0,0.0,0.0,0.0,0.0,0.0,0.0,0.0,0.0,0.0,0.0,0.0,0.0,0.0,0.0,0.0,0.0,0.0,0.0,0.0,0.0,0.0,0.0,0.0,0.0,0.0,0.0,0.0,0.0,0.0,0.0,0.0,2.6499,2.6499,2.6499,0.0,2.6499,0.0,0.0,0.0,0.0,0.0,0.0,0.0,0.0,0.0,0.0,0.0,0.0,0.0,0.0,0.0,0.0,0.0,0.0,0.0,0.0,0.0,0.0,0.0,0.0,0.0,0.0,0.0,0.0,0.0,0.0,0.0,0.0,0.0,0.0,0.0,0.0,0.0,0.0,0.0,0.0,0.0,0.0,0.0,0.0,0.0,0.0,0.0,0.0,0.0,0.0,0.0,0.0,0.0,0.0,0.0,0.0,0.0,0.0,0.0,0.0,0.0,0.0,0.0,0.0,0.0,0.0,0.0,0.0,0.0,0.0,0.0,0.0,0.0,0.0,0.0,0.0,0.0,0.0,0.0,0.0,0.0,0.0,0.0,0.0,0.0,0.0,0.0,0.0,0.0,0.0,0.0,0.0,0.0,0.0,0.0,0.0,0.0,0.0,0.0,0.0,0.0,0.0,0.0,0.0,0.0,0.0,0.0,0.0,0.0,0.0,2.6499,2.6499,2.6499,2.6499,0.0,0.0,0.0,0.0,0.0,0.0,0.0,0.0,0.0,0.0,0.0,0.0,0.0,0.0,0.0,0.0,0.0,0.0,0.0,0.0,0.0,0.0,0.0,0.0,0.0,0.0,0.0,0.0,0.0,0.0,0.0,0.0,0.0,0.0,0.0,0.0,0.0,0.0,0.0,0.0,0.0,0.0,0.0,0.0,0.0,0.0,0.0,0.0,0.0,0.0,0.0,0.0,0.0,0.0,0.0,0.0,0.0,0.0,0.0,0.0,0.0,0.0,0.0,0.0,0.0,0.0,0.0,0.0,0.0,0.0,0.0,0.0,0.0,0.0,0.0,0.0,0.0,0.0,0.0,0.0,0.0,0.0,0.0,0.0,0.0,0.0,0.0,0.0,0.0,0.0,0.0,0.0,0.0,0.0,0.0,0.0,0.0,0.0,0.0,0.0,0.0,0.0,0.0,0.0,0.0,0.0,0.0,0.0,0.0,0.0,2.6499,2.6575,2.6725,2.6725,2.6783,2.6927,0.0,0.0,0.0,0.0,0.0,0.0,0.0,0.0,0.0,0.0,0.0,0.0,0.0,0.0,0.0,0.0,0.0,0.0,0.0,0.0,0.0,0.0,0.0,0.0,0.0,0.0,0.0,0.0,0.0,0.0,0.0,0.0,0.0,0.0,0.0,0.0,0.0,0.0,0.0,0.0,0.0,0.0,0.0,0.0,0.0,0.0,0.0,0.0,0.0,0.0,0.0,0.0,0.0,0.0,0.0,0.0,0.0,0.0,0.0,0.0,0.0,0.0,0.0,0.0,0.0,0.0,0.0,0.0,0.0,0.0,0.0,0.0,0.0,0.0,0.0,0.0,0.0,0.0,0.0,0.0,0.0,0.0,0.0,0.0,0.0,0.0,0.0,0.0,0.0,0.0,0.0,0.0,0.0,0.0,0.0,0.0,0.0,0.0,0.0,0.0,0.0,0.0,0.0,0.0,0.0,0.0,0.0,0.0,2.6499,2.6499,2.6751,2.7253,2.7261,2.7512,0.0,0.0,0.0,0.0,0.0,0.0,0.0,0.0,0.0,0.0,0.0,0.0,0.0,0.0,0.0,0.0,0.0,0.0,0.0,0.0,0.0,0.0,0.0,0.0,0.0,0.0,0.0,0.0,0.0,0.0,0.0,0.0,0.0,0.0,0.0,0.0,0.0,0.0,0.0,0.0,0.0,0.0,0.0,0.0,0.0,0.0,0.0,0.0,0.0,0.0,0.0,0.0,0.0,0.0,0.0,0.0,0.0,0.0,0.0,0.0,0.0,0.0,0.0,0.0,0.0,0.0,0.0,0.0,0.0,0.0,0.0,0.0,0.0,0.0,0.0,0.0,0.0,0.0,0.0,0.0,0.0,0.0,0.0,0.0,0.0,0.0,0.0,0.0,0.0,0.0,0.0,0.0,0.0,0.0,0.0,0.0,0.0,0.0,0.0,0.0,0.0,0.0,0.0,0.0,0.0,0.0,0.0,0.0,0.0,2.701,2.7354,2.762,2.7795,2.7795,2.7896,0.0,0.0,0.0,0.0,0.0,0.0,0.0,0.0,0.0,0.0,0.0,0.0,0.0,0.0,0.0,0.0,0.0,0.0,0.0,0.0,0.0,0.0,0.0,0.0,0.0,0.0,0.0,0.0,0.0,0.0,0.0,0.0,0.0,0.0,0.0,0.0,0.0,0.0,0.0,0.0,0.0,0.0,0.0,0.0,0.0,0.0,0.0,0.0,0.0,0.0,0.0,0.0,0.0,0.0,0.0,0.0,0.0,0.0,0.0,0.0,0.0,0.0,0.0,0.0,0.0,0.0,0.0,0.0,0.0,0.0,0.0,0.0,0.0,0.0,0.0,0.0,0.0,0.0,0.0,0.0,0.0,0.0,0.0,0.0,0.0,0.0,0.0,0.0,0.0,0.0,0.0,0.0,0.0,0.0,0.0,0.0,0.0,0.0,0.0,0.0,0.0,0.0,0.0,0.0,0.0,0.0,0.0,0.0,0.0,2.7562,0.0,2.8154,2.8373,2.8299,2.8356,0.0,0.0,0.0,0.0,0.0,0.0,0.0,0.0,0.0,0.0,0.0,0.0,0.0,0.0,0.0,0.0,0.0,0.0,0.0,0.0,0.0,0.0,0.0,0.0,0.0,0.0,0.0,0.0,0.0,0.0,0.0,0.0,0.0,0.0,0.0,0.0,0.0,0.0,0.0,0.0,0.0,0.0,0.0,0.0,0.0,0.0,0.0,0.0,0.0,0.0,0.0,0.0,0.0,0.0,0.0,0.0,0.0,0.0,0.0,0.0,0.0,0.0,0.0,0.0,0.0,0.0,0.0,0.0,0.0,0.0,0.0,0.0,0.0,0.0,0.0,0.0,0.0,0.0,0.0,0.0,0.0,0.0,0.0,0.0,0.0,0.0,0.0,0.0,0.0,0.0,0.0,0.0,0.0,0.0,0.0,0.0,0.0,0.0,0.0,0.0,0.0,0.0,0.0,0.0,0.0,0.0,0.0,0.0,2.7595,2.8097,2.8129,2.8386,2.8863,2.8718,2.8847,0.0,0.0,0.0,0.0,0.0,0.0,0.0,0.0,0.0,0.0,0.0,0.0,0.0,0.0,0.0,0.0,0.0,0.0,0.0,0.0,0.0,0.0,0.0,0.0,0.0,0.0,0.0,0.0,0.0,0.0,0.0,0.0,0.0,0.0,0.0,0.0,0.0,0.0,0.0,0.0,0.0,0.0,0.0,0.0,0.0,0.0,0.0,0.0,0.0,0.0,0.0,0.0,0.0,0.0,0.0,0.0,0.0,0.0,0.0,0.0,0.0,0.0,0.0,0.0,0.0,0.0,0.0,0.0,0.0,0.0,0.0,0.0,0.0,0.0,0.0,0.0,0.0,0.0,0.0,0.0,0.0,0.0,0.0,0.0,0.0,0.0,0.0,0.0,0.0,0.0,0.0,0.0,0.0,0.0,0.0,0.0,0.0,0.0,0.0,0.0,0.0,0.0,0.0,0.0,0.0,0.0,0.0,0.0,0.0,2.9252,2.8966,2.8944,2.9228,2.9189,2.9167,0.0,0.0,0.0,0.0,0.0,0.0,0.0,0.0,0.0,0.0,0.0,0.0,0.0,0.0,0.0,0.0,0.0,0.0,0.0,0.0,0.0,0.0,0.0,0.0,0.0,0.0,0.0,0.0,0.0,0.0,0.0,0.0,0.0,0.0,0.0,0.0,0.0,0.0,0.0,0.0,0.0,0.0,0.0,0.0,0.0,0.0,0.0,0.0,0.0,0.0,0.0,0.0,0.0,0.0,0.0,0.0,0.0,0.0,0.0,0.0,0.0,0.0,0.0,0.0,0.0,0.0,0.0,0.0,0.0,0.0,0.0,0.0,0.0,0.0,0.0,0.0,0.0,0.0,0.0,0.0,0.0,0.0,0.0,0.0,0.0,0.0,0.0,0.0,0.0,0.0,0.0,0.0,0.0,0.0,0.0,0.0,0.0,0.0,0.0,0.0,0.0,0.0,0.0,0.0,0.0,0.0,0.0,0.0,0.0,2.9507,2.9248,2.917,2.9282,2.9204,2.9106,2.9013,0.0,0.0,0.0,0.0,0.0,0.0,0.0,0.0,0.0,0.0,0.0,0.0,0.0,0.0,0.0,0.0,0.0,0.0,0.0,0.0,0.0,0.0,0.0,0.0,0.0,0.0,0.0,0.0,0.0,0.0,0.0,0.0,0.0,0.0,0.0,0.0,0.0,0.0,0.0,0.0,0.0,0.0,0.0,0.0,0.0,0.0,0.0,0.0,0.0,0.0,0.0,0.0,0.0,0.0,0.0,0.0,0.0,0.0,0.0,0.0,0.0,0.0,0.0,0.0,0.0,0.0,0.0,0.0,0.0,0.0,0.0,0.0,0.0,0.0,0.0,0.0,0.0,0.0,0.0,0.0,0.0,0.0,0.0,0.0,0.0,0.0,0.0,0.0,0.0,0.0,0.0,0.0,0.0,0.0,0.0,0.0,0.0,0.0,0.0,0.0,0.0,0.0,0.0,0.0,0.0,0.0,0.0,0.0,2.919,2.917,2.9126,2.9091,2.8939,2.884,0.0,0.0,0.0,0.0,0.0,0.0,0.0,0.0,0.0,0.0,0.0,0.0,0.0,0.0,0.0,0.0,0.0,0.0,0.0,0.0,0.0,0.0,0.0,0.0,0.0,0.0,0.0,0.0,0.0,0.0,0.0,0.0,0.0,0.0,0.0,0.0,0.0,0.0,0.0,0.0,0.0,0.0,0.0,0.0,0.0,0.0,0.0,0.0,0.0,0.0,0.0,0.0,0.0,0.0,0.0,0.0,0.0,0.0,0.0,0.0,0.0,0.0,0.0,0.0,0.0,0.0,0.0,0.0,0.0,0.0,0.0,0.0,0.0,0.0,0.0,0.0,0.0,0.0,0.0,0.0,0.0,0.0,0.0,0.0,0.0,0.0,0.0,0.0,0.0,0.0,0.0,0.0,0.0,0.0,0.0,0.0,0.0,0.0,0.0,0.0,0.0,0.0,0.0,0.0,0.0,0.0,0.0,0.0,0.0,3.0048,2.9925,2.9537,2.8899,2.922,2.9318,0.0,0.0,0.0,0.0,0.0,0.0,0.0,0.0,0.0,0.0,0.0,0.0,0.0,0.0,0.0,0.0,0.0,0.0,0.0,0.0,0.0,0.0,0.0,0.0,0.0,0.0,0.0,0.0,0.0,0.0,0.0,0.0,0.0,0.0,0.0,0.0,0.0,0.0,0.0,0.0,0.0,0.0,0.0,0.0,0.0,0.0,0.0,0.0,0.0,0.0,0.0,0.0,0.0,0.0,0.0,0.0,0.0,0.0,0.0,0.0,0.0,0.0,0.0,0.0,0.0,0.0,0.0,0.0,0.0,0.0,0.0,0.0,0.0,0.0,0.0,0.0,0.0,0.0,0.0,0.0,0.0,0.0,0.0,0.0,0.0,0.0,0.0,0.0,0.0,0.0,0.0,0.0,0.0,0.0,0.0,0.0,0.0,0.0,0.0,0.0,0.0,0.0,0.0,0.0,0.0,0.0,0.0,0.0,3.0277,3.0253,3.0149,2.9859,2.9355,2.9645,2.9773,0.0,0.0,0.0,0.0,0.0,0.0,0.0,0.0,0.0,0.0,0.0,0.0,0.0,0.0,0.0,0.0,0.0,0.0,0.0,0.0,0.0,0.0,0.0,0.0,0.0,0.0,0.0,0.0,0.0,0.0,0.0,0.0,0.0,0.0,0.0,0.0,0.0,0.0,0.0,0.0,0.0,0.0,0.0,0.0,0.0,0.0,0.0,0.0,0.0,0.0,0.0,0.0,0.0,0.0,0.0,0.0,0.0,0.0,0.0,0.0,0.0,0.0,0.0,0.0,0.0,0.0,0.0,0.0,0.0,0.0,0.0,0.0,0.0,0.0,0.0,0.0,0.0,0.0,0.0,0.0,0.0,0.0,0.0,0.0,0.0,0.0,0.0,0.0,0.0,0.0,0.0,0.0,0.0,0.0,0.0,0.0,0.0,0.0,0.0,0.0,0.0,0.0,0.0,0.0,0.0,0.0,0.0,0.0,3.0275,3.0275,3.0275,3.0275,3.0275,3.0227,3.0203,0.0,0.0,0.0,0.0,0.0,0.0,0.0,0.0,0.0,0.0,0.0,0.0,0.0,0.0,0.0,0.0,0.0,0.0,0.0,0.0,0.0,0.0,0.0,0.0,0.0,0.0,0.0,0.0,0.0,0.0,0.0,0.0,0.0,0.0,0.0,0.0,0.0,0.0,0.0,0.0,0.0,0.0,0.0,0.0,0.0,0.0,0.0,0.0,0.0,0.0,0.0,0.0,0.0,0.0,0.0,0.0,0.0,0.0,0.0,0.0,0.0,0.0,0.0,0.0,0.0,0.0,0.0,0.0,0.0,0.0,0.0,0.0,0.0,0.0,0.0,0.0,0.0,0.0,0.0,0.0,0.0,0.0,0.0,0.0,0.0,0.0,0.0,0.0,0.0,0.0,0.0,0.0,0.0,0.0,0.0,0.0,0.0,0.0,0.0,0.0,0.0,0.0,0.0,0.0,0.0,0.0,0.0,0.0,3.138,3.1358,3.138,3.138,3.1334,3.0949,3.0732,0.0,0.0,0.0,0.0,0.0,0.0,0.0,0.0,0.0,0.0,0.0,0.0,0.0,0.0,0.0,0.0,0.0,0.0,0.0,0.0,0.0,0.0,0.0,0.0,0.0,0.0,0.0,0.0,0.0,0.0,0.0,0.0,0.0,0.0,0.0,0.0,0.0,0.0,0.0,0.0,0.0,0.0,0.0,0.0,0.0,0.0,0.0,0.0,3.3115,0.0,0.0,0.0,0.0,0.0,0.0,0.0,0.0,0.0,0.0,0.0,0.0,0.0,0.0,0.0,0.0,0.0,0.0,0.0,0.0,0.0,0.0,0.0,0.0,0.0,0.0,0.0,0.0,0.0,0.0,0.0,0.0,0.0,0.0,0.0,0.0,0.0,0.0,0.0,0.0,0.0,0.0,0.0,0.0,0.0,0.0,0.0,0.0,0.0,0.0,0.0,0.0,0.0,0.0,0.0,0.0,0.0,0.0,0.0,3.1717,3.1717,3.1717,3.1717,3.1693,3.1428,3.1262,0.0,0.0,0.0,0.0,0.0,0.0,0.0,0.0,0.0,0.0,0.0,0.0,0.0,0.0,0.0,0.0,0.0,0.0,0.0,0.0,0.0,0.0,0.0,0.0,0.0,0.0,0.0,0.0,0.0,0.0,0.0,0.0,0.0,0.0,0.0,0.0,0.0,0.0,0.0,0.0,0.0,0.0,0.0,0.0,0.0,0.0,0.0,0.0,0.0,0.0,0.0,0.0,0.0,0.0,0.0,0.0,0.0,0.0,0.0,0.0,0.0,0.0,0.0,0.0,0.0,0.0,0.0,0.0,0.0,0.0,0.0,0.0,0.0,0.0,0.0,0.0,0.0,0.0,0.0,0.0,0.0,0.0,0.0,0.0,0.0,0.0,0.0,0.0,0.0,0.0,0.0,0.0,0.0,0.0,0.0,0.0,0.0,0.0,0.0,0.0,0.0,0.0,0.0,0.0,0.0,0.0,0.0,3.1767,3.1815,3.1815,3.191,3.1936,3.1936,3.1936,3.1958,3.1958,0.0,0.0,0.0,0.0,0.0,0.0,0.0,0.0,0.0,0.0,0.0,0.0,0.0,0.0,0.0,0.0,0.0,0.0,0.0,0.0,0.0,0.0,0.0,0.0,0.0,0.0,0.0,0.0,0.0,0.0,0.0,0.0,0.0,0.0,0.0,0.0,0.0,0.0,3.2244,3.28,0.0,0.0,0.0,0.0,0.0,0.0,0.0,0.0,3.4542,0.0,0.0,0.0,0.0,0.0,0.0,0.0,0.0,0.0,0.0,0.0,0.0,0.0,0.0,0.0,0.0,0.0,0.0,0.0,0.0,0.0,0.0,0.0,0.0,0.0,0.0,0.0,0.0,0.0,0.0,0.0,0.0,0.0,0.0,0.0,0.0,0.0,0.0,0.0,0.0,0.0,0.0,0.0,0.0,0.0,0.0,0.0,0.0,0.0,0.0,0.0,0.0,0.0,0.0,0.0,0.0,3.1717,3.2152,3.237,3.237,3.2802,3.3043,3.3043,3.3043,3.3043,3.3019,0.0,0.0,0.0,0.0,0.0,0.0,0.0,0.0,0.0,0.0,0.0,0.0,0.0,0.0,0.0,0.0,0.0,0.0,0.0,0.0,0.0,0.0,0.0,0.0,0.0,0.0,0.0,0.0,0.0,0.0,0.0,0.0,0.0,0.0,0.0,0.0,0.0,0.0,0.0,3.3246,3.3504,0.0,0.0,0.0,0.0,0.0,0.0,0.0,0.0,3.4653,0.0,0.0,0.0,0.0,0.0,0.0,0.0,0.0,0.0,0.0,0.0,0.0,0.0,0.0,0.0,0.0,0.0,0.0,0.0,0.0,0.0,0.0,0.0,0.0,0.0,0.0,0.0,0.0,0.0,0.0,0.0,0.0,0.0,0.0,0.0,0.0,0.0,0.0,0.0,0.0,0.0,0.0,0.0,0.0,0.0,0.0,0.0,0.0,0.0,0.0,0.0,0.0,0.0,0.0,0.0,3.2537,3.2802,3.2899,3.2923,3.3164,3.3284,3.3284,3.3284,3.3284,0.0,0.0,0.0,0.0,0.0,0.0,0.0,0.0,0.0,0.0,0.0,0.0,0.0,0.0,0.0,0.0,0.0,0.0,0.0,0.0,0.0,0.0,0.0,0.0,0.0,0.0,0.0,0.0,0.0,0.0,0.0,0.0,0.0,0.0,0.0,0.0,0.0,0.0,0.0,0.0,3.3413,3.362,3.3918,0.0,0.0,0.0,0.0,0.0,0.0,3.5372,3.5371,0.0,0.0,0.0,0.0,0.0,0.0,0.0,0.0,0.0,0.0,0.0,0.0,0.0,0.0,0.0,0.0,0.0,0.0,0.0,0.0,0.0,0.0,0.0,0.0,0.0,0.0,0.0,0.0,0.0,0.0,0.0,0.0,0.0,0.0,0.0,0.0,0.0,0.0,0.0,0.0,0.0,0.0,0.0,0.0,0.0,0.0,0.0,0.0,0.0,0.0,0.0,0.0,0.0,0.0,0.0,3.3284,3.338,3.3452,3.3452,3.3549,3.3597,3.3597,3.3597,3.3597,0.0,0.0,0.0,0.0,0.0,0.0,0.0,0.0,0.0,0.0,0.0,0.0,0.0,0.0,0.0,0.0,0.0,0.0,0.0,0.0,0.0,0.0,0.0,0.0,0.0,0.0,0.0,0.0,0.0,0.0,0.0,0.0,0.0,0.0,0.0,0.0,0.0,0.0,0.0,0.0,0.0,3.3882,3.4188,3.4428,0.0,0.0,0.0,0.0,3.5882,3.5908,0.0,0.0,0.0,0.0,0.0,0.0,0.0,0.0,0.0,0.0,0.0,0.0,0.0,0.0,0.0,0.0,0.0,0.0,0.0,0.0,0.0,0.0,0.0,0.0,0.0,0.0,0.0,0.0,0.0,0.0,0.0,0.0,0.0,0.0,0.0,0.0,0.0,0.0,0.0,0.0,0.0,0.0,0.0,0.0,0.0,0.0,0.0,0.0,0.0,0.0,0.0,0.0,0.0,0.0,0.0,0.0,3.3308,3.3693,3.391,3.3958,3.439,3.4631,3.4631,3.4631,3.4631,0.0,0.0,0.0,0.0,0.0,0.0,0.0,0.0,0.0,0.0,0.0,0.0,0.0,0.0,0.0,0.0,0.0,0.0,0.0,0.0,0.0,0.0,0.0,0.0,0.0,0.0,0.0,0.0,0.0,0.0,0.0,0.0,0.0,0.0,0.0,0.0,0.0,0.0,0.0,0.0,0.0,3.4754,3.5014,3.5271,3.5472,0.0,0.0,3.5833,3.5692,3.5644,0.0,0.0,0.0,0.0,0.0,0.0,0.0,0.0,0.0,0.0,0.0,0.0,0.0,0.0,0.0,0.0,0.0,0.0,0.0,0.0,0.0,0.0,0.0,0.0,0.0,0.0,0.0,0.0,0.0,0.0,0.0,0.0,0.0,0.0,0.0,0.0,0.0,0.0,0.0,0.0,0.0,0.0,0.0,0.0,0.0,0.0,0.0,0.0,0.0,0.0,0.0,0.0,0.0,0.0,0.0,3.3838,3.4126,3.4342,3.4462,3.4462,3.4679,3.4799,3.4799,3.4799,3.4799,0.0,0.0,0.0,0.0,0.0,0.0,0.0,0.0,0.0,0.0,0.0,0.0,0.0,0.0,0.0,0.0,0.0,0.0,0.0,0.0,0.0,0.0,0.0,0.0,0.0,0.0,0.0,0.0,0.0,0.0,0.0,0.0,0.0,0.0,0.0,0.0,0.0,0.0,0.0,0.0,0.0,0.0,3.5156,3.5425,0.0,0.0,0.0,3.574,3.562,0.0,0.0,0.0,0.0,0.0,0.0,0.0,0.0,0.0,0.0,0.0,0.0,0.0,0.0,0.0,0.0,0.0,0.0,0.0,0.0,0.0,0.0,0.0,0.0,0.0,0.0,0.0,0.0,0.0,0.0,0.0,0.0,0.0,0.0,0.0,0.0,0.0,0.0,0.0,0.0,0.0,0.0,0.0,0.0,0.0,0.0,0.0,0.0,0.0,0.0,0.0,0.0,0.0,0.0,0.0,0.0,0.0,3.4385,3.4385,3.4286,3.4017,3.4017,3.4115,3.4409,3.4385,0.0,0.0,0.0,0.0,0.0,0.0,0.0,0.0,0.0,0.0,0.0,0.0,0.0,0.0,0.0,0.0,0.0,0.0,0.0,0.0,0.0,0.0,0.0,0.0,0.0,0.0,0.0,3.343,0.0,0.0,0.0,0.0,0.0,0.0,0.0,0.0,0.0,0.0,0.0,0.0,0.0,0.0,3.4964,3.5162,3.538,3.5404,0.0,0.0,3.5476,3.5404,3.5235,3.5187,0.0,0.0,0.0,0.0,0.0,0.0,0.0,0.0,0.0,0.0,0.0,0.0,0.0,0.0,0.0,0.0,0.0,0.0,0.0,0.0,0.0,0.0,0.0,0.0,0.0,0.0,0.0,0.0,0.0,0.0,0.0,0.0,0.0,0.0,0.0,0.0,0.0,0.0,0.0,0.0,0.0,0.0,0.0,0.0,0.0,0.0,0.0,0.0,0.0,0.0,0.0,0.0,0.0,0.0,0.0,3.335,3.33,3.2826,3.1891,3.1815,3.2297,3.3275,3.33,3.3795,0.0,0.0,0.0,0.0,0.0,0.0,0.0,0.0,0.0,0.0,0.0,0.0,0.0,0.0,0.0,0.0,0.0,0.0,0.0,0.0,0.0,0.0,0.0,0.0,0.0,0.0,0.0,0.0,0.0,0.0,0.0,0.0,0.0,0.0,0.0,0.0,0.0,0.0,0.0,0.0,0.0,3.5187,3.5187,3.5235,3.5114,0.0,0.0,3.5138,3.4896,3.4823,3.492,3.5187,0.0,0.0,0.0,0.0,0.0,0.0,0.0,0.0,0.0,0.0,0.0,0.0,0.0,0.0,0.0,0.0,0.0,0.0,0.0,0.0,0.0,0.0,0.0,0.0,0.0,0.0,0.0,0.0,0.0,0.0,0.0,0.0,0.0,0.0,0.0,0.0,0.0,0.0,0.0,0.0,0.0,0.0,0.0,0.0,0.0,0.0,0.0,0.0,0.0,0.0,0.0,0.0,0.0,3.3621,3.3201,3.2549,3.1996,3.1615,3.1589,3.2098,3.3176,3.2574,3.2725,0.0,0.0,0.0,0.0,0.0,0.0,0.0,0.0,0.0,0.0,0.0,0.0,0.0,0.0,0.0,0.0,0.0,0.0,0.0,0.0,0.0,0.0,0.0,0.0,0.0,0.0,0.0,0.0,3.4675,3.4659,3.4838,0.0,0.0,0.0,0.0,0.0,0.0,0.0,0.0,0.0,0.0,3.5187,3.5187,3.5187,0.0,0.0,3.5042,3.5235,3.5305,3.528,3.5449,3.5886,3.5959,0.0,0.0,0.0,0.0,0.0,0.0,0.0,0.0,0.0,0.0,0.0,0.0,0.0,0.0,0.0,0.0,0.0,0.0,0.0,0.0,0.0,0.0,0.0,0.0,0.0,0.0,0.0,0.0,0.0,0.0,0.0,0.0,0.0,0.0,0.0,0.0,0.0,0.0,0.0,0.0,0.0,0.0,0.0,0.0,0.0,0.0,0.0,0.0,0.0,0.0,0.0,0.0,3.3026,3.2725,3.164,3.0923,3.0634,3.0608,3.1103,3.2148,3.1487,3.1589,0.0,0.0,0.0,0.0,0.0,0.0,0.0,0.0,0.0,0.0,0.0,0.0,0.0,0.0,0.0,0.0,0.0,0.0,0.0,0.0,0.0,0.0,0.0,0.0,0.0,0.0,0.0,0.0,3.4961,3.5013,3.5187,0.0,0.0,0.0,0.0,0.0,0.0,0.0,0.0,0.0,0.0,3.5139,3.5284,3.5308,3.5308,3.528,3.5452,3.5622,3.581,3.5857,3.5978,3.6338,0.0,0.0,0.0,0.0,0.0,0.0,0.0,0.0,0.0,0.0,0.0,0.0,0.0,0.0,0.0,0.0,0.0,0.0,0.0,0.0,0.0,0.0,0.0,0.0,0.0,0.0,0.0,0.0,0.0,0.0,3.15,0.0,0.0,0.0,0.0,0.0,0.0,0.0,0.0,0.0,0.0,0.0,0.0,0.0,0.0,0.0,0.0,0.0,0.0,0.0,0.0,0.0,0.0,3.2675,3.1662,3.0535,2.9454,2.8441,2.8361,2.8926,2.9984,2.9958,3.0458,3.1589,0.0,0.0,0.0,0.0,0.0,0.0,0.0,0.0,0.0,0.0,0.0,0.0,0.0,0.0,0.0,0.0,0.0,0.0,0.0,0.0,0.0,0.0,0.0,0.0,0.0,0.0,3.545,3.5356,3.5187,0.0,0.0,0.0,0.0,0.0,0.0,0.0,0.0,0.0,0.0,3.4823,3.4991,3.5471,3.5568,3.5711,3.6216,3.6288,3.6337,3.631,3.6336,3.6386,0.0,0.0,0.0,0.0,0.0,0.0,0.0,0.0,0.0,0.0,0.0,0.0,0.0,0.0,0.0,0.0,0.0,0.0,0.0,0.0,0.0,0.0,0.0,0.0,0.0,0.0,0.0,3.2426,3.245,0.0,0.0,0.0,0.0,0.0,0.0,0.0,0.0,0.0,0.0,0.0,3.379,3.415,0.0,0.0,0.0,0.0,0.0,0.0,0.0,0.0,0.0,0.0,0.0,0.0,3.1946,3.1534,2.9775,2.8654,2.8301,2.8301,2.8794,2.9854,2.9217,2.9355,3.0453,0.0,0.0,0.0,0.0,0.0,0.0,0.0,0.0,0.0,0.0,0.0,0.0,0.0,0.0,0.0,0.0,0.0,0.0,0.0,0.0,0.0,0.0,0.0,0.0,0.0,3.4969,0.0,0.0,0.0,0.0,0.0,0.0,0.0,0.0,0.0,0.0,0.0,3.5131,3.426,3.5118,3.5628,3.5032,3.493,3.5,0.0,0.0,0.0,0.0,0.0,0.0,0.0,0.0,0.0,0.0,0.0,0.0,0.0,0.0,3.4881,3.4178,3.4667,3.5005,3.4327,0.0,0.0,0.0,0.0,0.0,0.0,0.0,0.0,0.0,0.0,0.0,0.0,0.0,0.0,0.0,0.0,3.3284,0.0,0.0,0.0,0.0,0.0,0.0,0.0,0.0,3.3743,3.3741,3.374,3.4096,3.3672,0.0,3.3026,3.3375,0.0,0.0,0.0,0.0,0.0,0.0,0.0,0.0,3.1086,3.118,2.9439,2.8574,2.873,2.873,2.909,2.9742,2.9137,2.9252,3.0308,3.0361,3.112,0.0,0.0,0.0,0.0,0.0,0.0,0.0,0.0,0.0,0.0,0.0,0.0,0.0,0.0,0.0,0.0,0.0,0.0,0.0,0.0,0.0,0.0,0.0,3.4969,0.0,0.0,0.0,0.0,0.0,0.0,0.0,0.0,0.0,3.4631,3.4688,3.4365,3.3595,3.446,3.4944,3.4321,0.0,0.0,0.0,0.0,0.0,0.0,0.0,3.5144,3.47,3.5402,3.5765,3.5006,3.4183,3.3753,3.4183,0.0,0.0,3.3519,3.4021,3.4361,3.3781,3.3688,3.3791,3.4248,3.4336,3.4423,0.0,0.0,0.0,0.0,0.0,0.0,0.0,0.0,3.3356,3.338,0.0,3.338,0.0,0.0,0.0,0.0,0.0,0.0,0.0,0.0,3.36,3.3151,3.3151,3.3151,3.26,3.1662,3.2597,3.2521,3.1582,3.1553,0.0,0.0,0.0,0.0,0.0,0.0,3.0154,3.0588,2.9498,2.9141,2.9559,2.9579,2.9598,2.9607,2.9579,3.006,3.1066,3.1093,3.1428,3.2171,3.3115,0.0,0.0,0.0,0.0,0.0,0.0,0.0,0.0,0.0,0.0,0.0,0.0,0.0,0.0,0.0,0.0,0.0,0.0,0.0,0.0,3.4823,0.0,0.0,0.0,0.0,0.0,0.0,0.0,0.0,0.0,0.0,3.435,3.3639,3.292,3.2867,0.0,0.0,0.0,0.0,3.3786,3.4314,3.4351,3.4295,3.4267,3.4715,3.5047,3.4962,0.0,0.0,3.5547,3.3713,3.2613,3.3623,3.382,3.3976,3.4194,3.4267,3.4454,3.4775,3.4783,3.5063,3.5446,3.5192,3.5315,3.415,0.0,0.0,0.0,0.0,3.4366,3.439,3.4366,3.4366,3.4366,3.439,3.4366,0.0,0.0,0.0,0.0,0.0,0.0,3.3212,3.3573,3.2549,3.2047,3.2044,3.2069,3.1462,3.0427,3.103,3.0779,2.9729,3.0005,3.0954,3.2476,0.0,0.0,0.0,0.0,3.0892,3.0935,2.9936,2.9481,2.9598,2.9598,2.9598,2.9598,2.9598,2.9766,3.0052,3.0052,3.0497,3.1422,3.1773,0.0,0.0,0.0,0.0,0.0,0.0,0.0,0.0,0.0,0.0,0.0,0.0,0.0,0.0,0.0,0.0,0.0,0.0,0.0,3.5352,3.54,3.5173,0.0,0.0,0.0,0.0,0.0,0.0,0.0,0.0,0.0,3.3159,3.3343,3.31,0.0,0.0,3.3819,3.3443,3.3364,3.3531,3.3993,0.0,0.0,0.0,3.3623,3.3971,3.3183,3.3134,3.3215,3.3215,3.2633,3.232,3.2663,3.2693,3.2714,3.2853,3.352,3.3767,3.3231,3.3034,3.3074,3.3175,3.3215,3.3215,3.4539,3.4258,3.4628,3.4799,3.4799,3.4799,3.4799,3.4799,3.4799,3.4799,3.4799,3.4799,3.4799,3.4775,3.436,0.0,0.0,0.0,3.2234,3.2769,3.1715,3.1282,3.1427,3.1427,3.0847,2.985,3.0518,3.0262,2.9207,2.9885,3.0627,3.1377,0.0,0.0,3.2173,3.1114,3.0638,3.0744,3.017,2.9902,3.0126,3.0126,3.0126,3.0126,3.0126,3.0126,3.0126,3.0126,3.0339,3.0792,3.1216,3.1711,0.0,0.0,0.0,0.0,0.0,0.0,0.0,0.0,0.0,0.0,0.0,3.5087,3.4471,0.0,0.0,0.0,3.4051,3.4367,3.5127,3.4795,0.0,0.0,0.0,0.0,0.0,0.0,0.0,3.3484,3.2442,3.1952,3.2435,3.281,3.2706,3.1876,3.2769,3.3364,3.2919,0.0,3.2972,3.3205,3.2633,3.2198,3.2198,3.2923,3.3276,3.2791,3.2676,3.2707,3.2687,3.2656,3.2707,3.2656,3.2656,3.2746,3.2922,3.3541,3.3678,3.2664,3.2452,3.2492,3.2648,3.2656,3.2676,3.4484,3.4494,3.4584,3.4626,3.465,3.465,3.465,3.465,3.465,3.465,3.465,3.465,3.465,3.4601,3.3689,0.0,3.1669,3.0511,3.0795,3.2066,3.103,3.0722,3.1086,3.1059,3.0578,2.9685,3.0693,3.0679,2.9858,3.0759,3.0982,3.0361,2.9989,3.0278,3.1113,3.0239,2.995,3.0351,3.038,3.0566,3.0976,3.1025,3.1025,3.0996,3.0996,3.0996,3.1025,3.0957,3.0742,3.0361,3.1277,3.1642,3.123,0.0,0.0,0.0,0.0,0.0,0.0,0.0,0.0,0.0,0.0,0.0,0.0,0.0,0.0,0.0,3.2899,0.0,3.4425,3.3582,0.0,0.0,0.0,3.3193,3.3457,3.2636,3.2372,3.3132,0.0,0.0,3.214,0.0,3.209,3.1689,3.1953,3.2218,3.2257,3.2318,3.2257,3.2455,3.2405,3.2374,3.257,3.2886,3.3238,3.3457,3.3535,3.3516,3.3503,3.3484,3.3484,3.3516,3.3503,3.3633,3.4075,3.4127,3.3919,3.3137,3.2969,3.3086,3.3406,3.3516,3.3516,3.3325,3.3303,3.3346,3.3361,3.3339,3.3361,3.3339,3.3339,3.3339,3.3339,3.3339,3.3361,3.3339,3.3365,3.399,3.3652,3.2524,3.1404,3.109,3.1383,3.0313,2.9869,2.9968,2.9968,3.0007,3.0087,3.0697,3.0983,3.1084,3.1683,3.19,3.1729,3.1631,3.1535,3.1435,3.1172,3.1269,3.1729,3.1729,3.1788,3.1885,3.1885,3.1905,3.1885,3.1885,3.1905,3.1855,3.1543,3.1309,3.1211,3.1141,3.1097,3.0998,3.1694,0.0,0.0,0.0,0.0,0.0,0.0,0.0,0.0,0.0,3.4716,3.4458,0.0,3.5416,0.0,3.2899,3.3136,3.3756,3.3584,0.0,0.0,3.4018,3.404,3.272,3.3064,3.3175,3.2515,3.2223,3.2081,3.2198,3.2472,3.2765,3.2879,3.25,3.2316,3.2609,3.2637,3.2891,3.3489,3.3625,3.3762,3.4016,3.418,3.4258,3.4375,3.4394,3.4394,3.4394,3.4394,3.4394,3.4394,3.4394,3.4434,3.4531,3.4551,3.4512,3.4297,3.4238,3.4277,3.4375,3.4375,3.4394,3.3345,3.3345,3.3345,3.3064,3.2599,3.2808,3.2899,3.2899,3.2899,3.2899,3.2899,3.2899,3.2631,3.22,3.3036,3.2771,3.1719,3.1258,3.1172,3.1296,3.0745,3.0576,3.0752,3.0752,3.0888,3.1103,3.1328,3.1582,3.1816,3.2081,3.2198,3.2198,3.2198,3.2246,3.2313,3.1992,3.1934,3.2198,3.2198,3.2198,3.2198,3.2198,3.2198,3.2198,3.2198,3.2198,3.2198,3.1934,3.1797,3.1827,3.1582,3.1494,3.1494,3.1828,3.2649,0.0,0.0,0.0,0.0,0.0,0.0,0.0,0.0,0.0,0.0,0.0,3.5073,3.3972,3.2888,3.2657,3.3636,3.328,3.2934,3.2821,3.3393,3.3378,3.233,3.2784,3.3045,3.2768,3.2734,3.2871,3.3242,3.3496,3.3711,3.3965,3.3594,3.341,3.3594,3.3633,3.3828,3.4277,3.4388,3.4414,3.4668,3.4687,3.4687,3.4687,3.4687,3.4687,3.4687,3.4687,3.4687,3.4707,3.4863,3.5078,3.5254,3.5469,3.5659,3.5801,3.5859,3.5566,3.4863,3.4687,3.4687,3.3703,3.3674,3.3683,3.3095,3.2232,3.265,3.2808,3.2808,3.2808,3.2808,3.2808,3.2949,3.2399,3.1373,3.1904,3.1544,3.0497,3.0859,3.125,3.1601,3.1601,3.1767,3.2137,3.2118,3.2196,3.2294,3.2263,3.2383,3.2511,3.2469,3.2469,3.2439,3.2408,3.2727,3.3421,3.2789,3.2469,3.2531,3.2531,3.2531,3.2531,3.2511,3.2531,3.2511,3.2531,3.2531,3.2531,3.2413,3.2355,3.2355,3.2257,3.2198,3.2198,3.2198,3.2693,0.0,3.3891,0.0,0.0,0.0,0.0,0.0,0.0,0.0,0.0,3.3367,3.4367,3.4891,3.2895,3.2157,3.3543,3.2784,3.2237,3.2335,3.2355,3.2394,3.2511,3.2469,3.2711,3.3401,3.3498,3.3823,3.4466,3.4674,3.4707,3.4725,3.4725,3.4764,3.4934,3.4772,3.4668,3.4824,3.4961,3.5215,3.5195,3.5117,3.5137,3.5098,3.5156,3.5039,3.5137,3.5117,3.5078,3.5117,3.5449,3.5781,3.6133,3.6484,3.6836,3.709,3.7148,3.6719,3.5547,3.5176,3.5039,3.2512,3.2512,3.2512,3.2391,3.219,3.2276,3.2316,3.2345,3.2345,3.2345,3.2405,3.3308,3.3073,3.2137,3.3067,3.2921,3.1857,3.1905,3.2003,3.2081,3.2081,3.1938,3.1722,3.1722,3.2088,3.2756,3.2744,3.3301,3.4219,3.3966,3.3804,3.3804,3.3511,3.3568,3.4029,0.0,0.0,0.0,3.4219,3.4219,3.4219,3.4219,3.4219,3.4219,3.4219,0.0,3.4199,3.3555,3.3184,3.3164,3.257,0.0,0.0,0.0,0.0,0.0,0.0,0.0,0.0,0.0,0.0,0.0,3.4161,3.3997,3.3558,3.2972,3.3023,3.4004,3.2855,3.2191,3.2482,3.232,3.2472,3.3105,3.3184,3.3457,3.4121,3.3992,3.3894,3.4048,3.4035,3.4093,3.4338,3.4529,3.4868,3.5206,3.5288,3.5557,3.6174,3.537,3.5006,3.5625,3.6269,3.6738,3.6797,3.6738,3.6641,3.6797,3.6797,3.6758,3.6719,3.6738,3.6777,3.6738,3.6894,3.6934,3.7031,3.7129,3.7226,3.7285,3.7324,3.7207,3.6875,3.6797,3.6797,3.3449,0.0,3.3449,3.3418,0.0,3.3418,3.3449,3.3391,3.255,3.2194,3.2235,3.2656,3.2712,3.2576,3.3342,3.3491,3.3156,3.3163,3.3184,3.3184,3.2994,3.2753,3.2594,3.2594,3.2822,3.3222,3.3274,3.3549,3.4148,3.3969,3.3922,3.3922,3.369,3.3799,3.4242,3.483,3.4983,3.4707,3.4687,3.4687,3.4687,3.4687,3.4687,3.4687,0.0,0.0,0.0,0.0,0.0,0.0,0.0,0.0,0.0,0.0,0.0,3.4258,3.4289,3.455,3.5119,3.5201,3.4953,3.4331,3.432,3.3959,3.3125,3.271,3.2835,3.3566,3.3342,3.3234,3.3398,3.3449,3.3594,3.4004,3.4062,3.4173,3.438,3.428,3.4307,3.4523,3.4532,3.4666,3.507,3.528,3.5467,3.5696,3.5737,3.5889,3.6284,3.6008,3.5952,3.6547,3.6973,3.7285,3.7305,3.7305,3.7305,3.7305,3.7305,3.7305,3.7305,3.7305,3.7305,3.7305,3.7461,3.7598,3.7637,3.7773,3.793,3.793,3.793,3.7965,3.791,3.7598,3.7305,3.4687,3.4707,3.4641,3.4609,3.4609,3.4543,3.451,3.4413,0.0,0.0,0.0,3.2182,3.2403,3.3034,3.3379,3.3694,3.4025,3.406,3.4101,3.4087,3.3738,3.3572,3.3506,3.3506,3.3543,3.3619,3.3694,3.3803,3.3945,3.3935,3.3958,3.3958,3.3891,3.4128,3.469,3.5682,3.5819,3.5115,3.5123,3.5156,3.5156,3.5156,3.5156,3.5156,3.5078,3.5039,3.5039,3.4902,3.4824,3.4824,3.4746,3.4687,3.4687,3.4687,3.4687,3.4687,3.4687,3.4687,3.4687,3.4687,3.4687,3.4687,3.4785,3.4199,3.2746,3.293,3.3281,3.3581,3.3952,3.4239,3.457,3.4621,3.4646,3.4724,3.4801,3.4746,3.459,3.4476,3.4636,3.4928,3.5026,3.5237,3.5859,3.5989,3.6102,3.6104,3.6069,3.618,3.6253,3.6463,3.6685,3.7029,3.72,3.7329,3.7326,3.7329,3.7342,3.7455,3.7436,3.7433,3.7413,3.7413,3.7378,3.7313,3.7653,3.7864,3.7958,3.8245,3.8611,3.8611,3.8611,3.8611,3.8552,3.8027,3.7578,3.4707,3.4674,3.4411,3.4247,3.4252,3.3903,3.3738,3.3752,3.3871,3.3925,3.3917,3.3505,3.3411,3.3501,3.3558,3.361,3.3662,3.3686,3.3671,0.0,3.3605,3.3439,3.3188,3.3188,3.3393,3.3767,3.4103,3.4612,3.5158,3.529,3.53,3.5246,3.4981,3.5159,3.5906,3.639,3.6528,3.6425,3.6794,3.6934,3.6934,3.6934,3.6934,3.6914,3.6562,3.6441,3.6421,3.5684,3.5293,3.5293,3.4922,3.4687,3.4707,3.4726,3.4687,3.4687,3.4707,3.4687,3.4707,3.4687,3.4687,3.4726,3.5078,3.5019,3.4414,3.4394,3.4453,3.4512,3.4353,3.4208,3.4272,3.4332,3.4526,3.4884,3.5192,3.5464,3.5714,3.5525,3.5369,3.5448,3.5504,3.5523,3.5709,3.5943,3.6129,3.6193,3.6159,3.6307,3.6549,3.6747,3.6812,3.6903,3.7169,3.7359,3.7356,3.7359,3.7504,3.7836,3.7851,3.7812,3.7793,3.7793,3.7684,3.7413,3.7671,3.7911,3.7966,3.8316,3.8465,3.8501,3.8501,3.8538,3.8501,3.8362,3.834,3.5463,3.5429,3.5291,3.5242,3.5207,3.5035,3.4966,3.4966,3.4932,3.4569,3.3916,3.3543,3.3752,3.4333,3.4352,3.4587,3.4966,3.4759,3.469,3.4655,3.4482,3.4274,3.4151,3.4117,3.4227,3.4465,3.4632,3.4887,3.5214,3.5276,3.5297,3.5242,3.5099,3.5171,3.5565,3.6129,3.6421,3.6421,3.68,3.6968,3.6968,3.6968,3.7074,3.7305,3.7109,3.7012,3.7012,3.6641,3.6426,3.6426,3.623,3.6113,3.6113,3.6113,3.6113,3.6113,3.6113,3.6113,3.6113,3.5889,3.5703,3.5497,3.5655,3.5693,3.5482,3.5457,3.5389,3.5186,3.5192,3.5207,3.5261,3.524,3.5325,3.5549,3.5738,3.5821,3.5813,3.5726,3.5622,3.561,3.5611,3.5684,3.5906,3.6071,3.6144,3.6183,3.6202,3.6294,3.6442,3.6479,3.6642,3.7046,3.7308,3.7346,3.7384,3.7365,3.7495,3.7642,3.7679,3.7679,3.7679,3.7679,3.7605,3.7458,3.7568,3.7642,3.7698,3.7806,3.7916,3.7972,3.7953,3.7953,3.7953,3.8099,3.8338,3.61,3.61,3.6029,3.5941,3.5851,3.5851,3.5851,3.5815,3.5546,3.4902,3.4017,3.3737,3.4121,3.4938,3.501,3.5319,3.576,3.5583,3.5457,3.5421,3.5153,3.4991,3.4991,3.4991,3.4991,3.5009,3.5083,3.5138,3.5138,3.5211,3.5266,3.5266,3.5266,3.5338,3.5411,3.6015,3.6346,3.6327,3.6607,3.6794,3.7009,3.708,3.7258,3.7543,3.75,3.7406,3.7441,3.7344,3.7305,3.7305,3.7305,3.7305,3.7305,3.7305,3.7269,3.7179,3.7164,3.7128,3.7022,3.6755,3.6437,3.6136,3.6195,3.6215,3.6142,3.6221,3.608,3.5755,3.5784,3.5937,3.5901,3.5943,3.5982,3.5982,3.6076,3.6007,3.5772,3.5736,3.5739,3.5742,3.5724,3.587,3.6127,3.6201,3.6182,3.6201,3.6201,3.6201,3.6201,3.6201,3.6516,3.6886,3.7107,3.7071,3.7107,3.7107,3.7144,3.7218,3.7255,3.7255,3.7255,3.7274,3.7257,3.7239,3.7351,3.7463,3.7519,3.7687,3.7762,3.7818,3.7874,3.7799,3.7818,3.8096,3.8275,3.6119,3.6029,3.5781,3.5421,3.5171,3.5153,3.5171,3.5171,3.5081,3.5026,3.4879,3.4826,3.4899,3.5008,3.5008,3.508,3.5171,3.5063,3.51,3.51,3.5027,3.4991,3.5028,3.5009,3.4991,3.5064,3.5394,3.5577,3.5541,3.5907,3.6072,3.6091,3.6109,3.622,3.6571,3.6682,3.6719,3.6756,3.6756,3.7142,3.7857,3.8258,3.8457,3.8493,3.8066,3.7835,3.7799,3.75,3.7305,3.7305,3.7289,3.7269,3.7289,3.7305,3.7128,3.681,3.6775,3.6614,3.6261,3.6171,3.6174,3.6119,3.6478,3.6522,3.6251,3.6512,3.6527,3.6091,3.5815,3.5711,3.5638,3.5683,3.5741,3.5759,3.5981,3.6183,3.6128,3.6146,3.6164,3.6146,3.6109,3.6164,3.6182,3.6237,3.6237,3.6274,3.6329,3.6347,3.6347,3.6329,3.6329,3.6386,3.6349,3.6404,3.6441,3.633,3.6664,3.6849,3.6886,3.6942,3.6998,3.6942,3.6887,3.709,3.7221,3.7502,3.7801,3.8197,3.8368,3.8141,3.8217,3.8387,3.8501,3.869,3.8742,3.6163,3.6126,3.6017,3.587,3.5724,3.5724,3.5687,3.5724,3.5687,3.5687,3.5687,3.5724,3.5559,3.5375,3.5339,3.5467,3.5724,3.5687,3.5687,3.5724,3.5724,3.5687,3.5724,3.5687,3.5724,3.5724,3.5889,3.5962,3.5999,3.6127,3.6201,3.6201,3.6201,3.6275,3.6442,3.6442,3.6423,3.6442,3.6701,3.696,3.7255,3.7439,3.766,3.7824,3.7671,3.763,3.7575,3.7458,3.7362,3.7381,3.7362,3.7362,3.7381,3.7362,3.729,3.7108,3.7108,3.6927,3.6564,3.6491,3.6382,3.6199,3.6348,3.6349,3.6239,3.6349,3.6349,3.62,3.6017,3.5962,3.5962,3.5944,3.5962,3.5981,3.6109,3.6201,3.6201,3.6201,3.6201,3.6201,3.6201,3.6219,3.6237,3.6421,3.653,3.6585,3.6713,3.6841,3.6878,3.6934,3.6934,3.6896,3.6934,3.6824,3.6621,3.6787,3.6955,3.7067,3.7161,3.7161,3.7124,3.7161,3.7159,3.7116,3.7325,3.7476,3.7567,3.7736,3.7889,3.7965,3.7946,3.7966,3.8252,3.8614,3.8727,3.6201,3.6201,3.6201,3.6201,3.6201,3.6201,3.6201,3.6201,3.6201,3.6201,3.6201,3.6201,3.6017,3.5815,3.5742,3.5907,3.6182,3.6201,3.6201,3.6201,3.6201,3.6201,3.6201,3.6201,3.6201,3.6201,3.6182,3.6201,3.6201,3.6201,3.6201,3.6201,3.6201,3.6201,3.6201,3.6201,3.6201,3.6201,3.6516,3.6627,3.6664,3.6627,3.6886,3.7329,3.7365,3.7365,3.7365,3.7365,3.7365,3.7365,3.7365,3.7365,3.7365,3.7365,3.7347,3.7218,3.7144,3.696,3.6664,3.6627,3.6516,3.6238,3.6201,3.6201,3.6201,3.6201,3.6256,3.6366,3.6384,3.6347,3.6219,3.6201,3.6201,3.6201,3.6201,3.6237,3.6366,3.6347,3.6439,3.6512,3.6622,3.6549,3.6586,3.6768,3.6951,3.6988,3.7189,3.7391,3.7391,3.7354,3.7354,3.7391,3.7464,3.7373,3.7079,3.7134,3.7373,3.7391,3.7374,3.7356,3.7391,3.7373,3.7501,3.7503,3.7519,3.7704,3.7927,3.789,3.7741,3.7759,3.7759,3.7876,3.8276,3.8608,3.8935,3.6201,3.6201,3.6201,3.6201,3.6201,3.6201,3.6201,3.6201,3.6201,3.6201,3.6201,3.6201,3.6182,3.6164,3.6146,3.6182,3.6201,3.6201,3.6201,3.6201,3.6201,3.6201,3.6201,3.6201,3.6201,3.6201,3.6201,3.6201,3.6201,3.6201,3.6201,3.6201,3.6201,3.6201,3.6201,3.6237,3.6219,3.6256,3.6311,3.6293,3.6293,3.6274,3.6683,3.733,3.7384,3.7329,3.7329,3.7365,3.7365,3.7365,3.7329,3.7365,3.7365,3.7384,3.7181,3.6849,3.646,3.6293,3.6274,3.6274,3.6293,3.6237,3.6311,3.6237,3.6329,3.6329,3.6476,3.6731,3.6768,3.6621,3.6366,3.6347,3.6311,3.6292,3.6256,3.6439,3.6731,3.6768,3.6951,3.7189,3.7226,3.7189,3.7301,3.7336,3.7354,3.7373,3.7409,3.7464,3.7519,3.7464,3.7482,3.7556,3.7721,3.7812,3.7464,3.7537,3.7519,3.7556,3.7666,3.7482,3.7409,3.7428,3.7647,3.7869,3.7904,3.8105,3.8398,3.8508,3.8435,3.8398,3.8362,3.8498,3.8605,3.8966,3.9282,3.6201,3.6201,3.6201,3.6201,3.6201,3.6201,3.6201,3.6201,3.6201,3.6201,3.6201,3.6201,3.6201,3.6201,3.6201,3.6201,3.6201,3.6201,3.6201,3.6201,3.6201,3.6201,3.6201,3.6201,3.6201,3.6201,3.6201,3.6201,3.6201,3.6201,3.6201,3.6201,3.6201,3.6201,3.6256,3.6438,3.6566,3.6641,3.6805,3.6951,3.6915,3.6989,3.7103,3.7331,3.6887,3.6627,3.6627,3.6627,3.6627,3.6627,3.6627,3.6627,3.6627,3.6627,3.659,3.6423,3.6275,3.6329,3.6567,3.6566,3.6695,3.6915,3.6989,3.6952,3.6951,3.6951,3.7006,3.7134,3.7171,3.7079,3.7006,3.6989,3.6951,3.6951,3.6951,3.697,3.7134,3.7171,3.7244,3.7354,3.7391,3.7391,3.7482,3.7611,3.7796,3.7833,3.7995,3.8105,3.816,3.816,3.8124,3.816,3.827,3.8325,3.8215,3.8179,3.8179,3.8179,3.8197,3.8197,3.8142,3.8124,3.8307,3.842,3.8475,3.8472,3.8765,3.8747,3.8747,3.8728,3.871,3.8903,3.8996,3.9281,3.9482,3.6201,3.6201,3.6201,3.6201,3.6201,3.6201,3.6201,3.6201,3.6201,3.6201,3.6201,3.6201,3.6201,3.6201,3.6201,3.6201,3.6201,3.6201,3.6201,3.6201,3.6201,3.6201,3.6201,3.6201,3.6201,3.6237,3.6366,3.6402,3.6439,3.6549,3.6586,3.6604,3.6604,3.6604,3.6621,3.686,3.6988,3.7061,3.7263,3.7373,3.7391,3.7391,3.7391,3.7318,3.6841,3.6566,3.6604,3.6566,3.6604,3.6604,3.6566,3.6604,3.6604,3.6604,3.6604,3.6566,3.6604,3.6714,3.6933,3.6988,3.7098,3.7354,3.7373,3.7391,3.7391,3.7391,3.7446,3.7558,3.7574,3.7611,3.7757,3.7776,3.7684,3.7464,3.7391,3.7446,3.7594,3.7574,3.7647,3.7794,3.7831,3.7794,3.7794,3.8032,3.8142,3.8179,3.8435,3.8582,3.86,3.86,3.86,3.8618,3.871,3.8765,3.8783,3.8878,3.8618,3.86,3.8563,3.8655,3.8783,3.8783,3.8838,3.897,3.9006,3.9025,3.8985,3.8985,3.8966,3.8988,3.9135,3.9344,3.9394,3.948,3.9618,3.6201,3.6201,3.6201,3.6201,3.6201,3.6256,3.6219,3.6256,3.6274,3.6347,3.6366,3.6274,3.6347,3.6274,3.6366,3.6274,3.6329,3.6347,3.6311,3.6274,3.6256,3.6274,3.6311,3.6347,3.6347,3.6347,3.6621,3.6786,3.6805,3.7098,3.7263,3.7374,3.7263,3.7226,3.7354,3.7374,3.7391,3.7409,3.7482,3.7482,3.7448,3.7482,3.7501,3.7482,3.7409,3.7391,3.7391,3.7336,3.7281,3.7299,3.7318,3.7373,3.7281,3.7281,3.7336,3.7281,3.7336,3.7393,3.7411,3.7391,3.7409,3.7537,3.7464,3.7537,3.7556,3.7537,3.7647,3.7961,3.7995,3.8124,3.8435,3.8527,3.827,3.7613,3.7537,3.7666,3.7924,3.8016,3.8124,3.8435,3.8508,3.8582,3.86,3.8655,3.8692,3.8692,3.8728,3.8765,3.8801,3.882,3.8692,3.8747,3.8985,3.9226,3.9373,3.9483,3.919,3.8951,3.8896,3.8915,3.9153,3.9245,3.9336,3.9469,3.9505,3.9505,3.9465,3.9465,3.9579,3.9579,3.9707,3.9689,3.9678,3.9726,3.9756,3.6201,3.6201,3.6201,3.6201,3.6256,3.6512,3.6603,3.664,3.6916,3.7044,3.7006,3.7006,3.7006,3.7006,3.7006,3.7006,3.7006,3.7044,3.686,3.664,3.6603,3.6787,3.6989,3.6988,3.7006,3.7024,3.7134,3.7189,3.7226,3.7354,3.7391,3.7391,3.7409,3.7391,3.7446,3.7686,3.7794,3.7831,3.8087,3.8215,3.8215,3.8215,3.8215,3.8234,3.8234,3.8215,3.8197,3.7702,3.7409,3.7409,3.7391,3.7391,3.7391,3.7391,3.7391,3.7391,3.7391,3.7576,3.7796,3.7812,3.7922,3.8142,3.8215,3.8215,3.8215,3.8215,3.827,3.8398,3.8417,3.849,3.8618,3.8856,3.8765,3.8289,3.8234,3.827,3.8398,3.8435,3.8453,3.86,3.8838,3.8985,3.9058,3.9226,3.9392,3.9392,3.941,3.945,3.9469,3.9373,3.9505,3.9542,3.9671,3.9689,3.9799,3.9909,3.9817,3.956,3.9392,3.9336,3.9538,3.9667,3.9799,3.9928,3.9964,3.9983,3.9964,3.9983,4.0038,3.9983,3.9946,3.9909,3.9891,3.9946,4.0074,3.6659,3.6659,3.6659,3.6659,3.6677,3.6915,3.7024,3.7043,3.7281,3.7391,3.7373,3.7373,3.7391,3.7391,3.7391,3.7391,3.7391,3.7391,3.7336,3.7208,3.7061,3.7171,3.7373,3.7391,3.7391,3.7428,3.7537,3.7611,3.7611,3.7757,3.7849,3.7849,3.7831,3.7849,3.7849,3.8069,3.8197,3.8252,3.8472,3.86,3.86,3.86,3.86,3.86,3.86,3.86,3.8563,3.8105,3.7831,3.7831,3.7831,3.7831,3.7849,3.7849,3.7831,3.7831,3.7867,3.7977,3.8179,3.8197,3.8307,3.8545,3.86,3.86,3.8618,3.8692,3.882,3.882,3.8966,3.908,3.9135,3.9281,3.9318,3.9116,3.908,3.9098,3.908,3.908,3.9098,3.9171,3.9318,3.9428,3.9538,3.9671,3.9872,3.9872,3.9872,3.9872,3.9872,3.9854,3.9891,3.9964,4.0038,4.0074,4.0129,4.024,4.035,4.0185,4.0019,3.9964,4.0038,4.0111,4.0185,4.0423,4.0533,4.0552,4.0533,4.0497,4.0497,4.035,4.0276,4.0423,4.0515,4.046,4.0533,3.7373,3.7391,3.7373,3.7318,3.7318,3.7391,3.7428,3.7428,3.7501,3.7537,3.7519,3.7574,3.7537,3.7501,3.7592,3.7592,3.7482,3.7556,3.7721,3.7812,3.7684,3.7556,3.7592,3.7611,3.7611,3.7611,3.7867,3.8014,3.8032,3.8307,3.86,3.8508,3.8472,3.8563,3.849,3.8582,3.8545,3.8545,3.86,3.86,3.86,3.86,3.86,3.86,3.86,3.8637,3.8673,3.8673,3.8637,3.86,3.8508,3.8472,3.8563,3.86,3.8508,3.849,3.8582,3.8563,3.8618,3.8618,3.8673,3.8783,3.8801,3.8673,3.886,3.9116,3.9223,3.9281,3.9579,3.9799,3.9799,3.9891,3.9909,3.9946,3.9817,3.9781,3.9854,3.9817,3.9726,3.9781,3.9872,3.9909,3.9928,3.9983,4.0038,4.0056,4.0074,4.0111,4.0111,4.0166,4.0019,4.0148,4.0423,4.0478,4.0533,4.0607,4.0717,4.0644,4.0497,4.046,4.046,4.0497,4.0552,4.0809,4.0937,4.0992,4.0992,4.0882,4.0864,4.0809,4.0882,4.1066,4.1029,4.0882,4.0827,3.7391,3.7391,3.7391,3.7391,3.7428,3.7684,3.7812,3.7906,3.8142,3.8215,3.827,3.8289,3.8234,3.827,3.8252,3.8289,3.8234,3.8252,3.8307,3.8398,3.8343,3.8289,3.8289,3.827,3.8252,3.827,3.8325,3.8435,3.8435,3.8545,3.86,3.86,3.86,3.86,3.86,3.86,3.86,3.86,3.8618,3.8618,3.8637,3.8637,3.86,3.86,3.8618,3.8765,3.904,3.9373,3.9208,3.8637,3.86,3.86,3.8655,3.8655,3.8673,3.8673,3.8655,3.8765,3.8985,3.904,3.9208,3.9542,3.9447,3.956,3.9579,3.9652,3.9726,3.9726,3.9836,3.9909,3.9946,4.0166,4.0442,4.0662,4.0295,3.9946,3.9928,3.9872,3.9872,3.9909,4.0166,4.0313,4.0387,4.0552,4.0699,4.0699,4.0699,4.0699,4.0625,4.0644,4.057,4.0735,4.0919,4.0937,4.0956,4.1011,4.1047,4.1011,4.0937,4.0901,4.0882,4.0901,4.0937,4.1047,4.1029,4.1066,4.1084,4.1029,4.1102,4.1102,4.1102,4.1102,4.1102,4.1029,4.1011,3.7904,3.7904,3.7904,3.7904,3.7922,3.8142,3.8273,3.8289,3.849,3.86,3.86,3.86,3.86,3.86,3.86,3.86,3.86,3.86,3.86,3.86,3.8582,3.8582,3.8582,3.86,3.86,3.86,3.86,3.86,3.86,3.86,3.86,3.86,3.86,3.86,3.86,3.86,3.871,3.882,3.8856,3.8911,3.9135,3.9153,3.9153,3.9153,3.9153,3.9281,3.9502,3.9762,3.9634,3.9245,3.9153,3.9135,3.9153,3.9153,3.9135,3.9135,3.9153,3.9263,3.9428,3.9483,3.9634,3.9817,3.9872,3.9872,3.9909,4.0019,4.0148,4.0148,4.0276,4.0387,4.0423,4.0625,4.0845,4.0974,4.068,4.0387,4.0428,4.0442,4.0405,4.046,4.0588,4.0712,4.0754,4.0974,4.1066,4.1084,4.1029,4.1029,4.1047,4.1102,4.1102,4.1102,4.1102,4.1066,4.1047,4.1084,4.1102,4.1102,4.1102,4.1102,4.1102,4.1102,4.1102,4.1102,4.1102,4.1102,4.1102,4.1102,4.1102,4.1102,4.1102,4.1102,4.1102,4.1102,4.1102,3.86,3.86,3.86,3.86,3.8563,3.86,3.8563,3.8582,3.86,3.86,3.86,3.86,3.86,3.86,3.86,3.86,3.86,3.86,3.86,3.86,3.86,3.86,3.86,3.86,3.86,3.86,3.86,3.86,3.86,3.86,3.86,3.8637,3.8655,3.8692,3.8765,3.8765,3.8948,3.9245,3.93,3.9428,3.9689,3.9726,3.9726,3.9726,3.9854,3.9891,3.9964,4.0038,4.0038,4.0019,3.9928,3.9799,3.9836,3.9854,3.9836,3.9799,3.9762,3.9799,3.9928,3.9946,4.0042,4.0093,4.0093,4.006,4.0148,4.0405,4.057,4.057,4.0901,4.0956,4.0992,4.1066,4.1066,4.1084,4.1047,4.1084,4.1102,4.1102,4.1102,4.1102,4.1084,4.1102,4.1102,4.1102,4.1102,4.1102,4.1102,4.1102,4.1102,4.1102,4.1102,4.1102,4.1102,4.1102,4.1102,4.1102,4.1102,4.1102,4.1102,4.1102,4.1102,4.1102,4.1102,4.1102,4.1102,4.1102,4.1102,4.1102,4.1102,4.1102,4.1102,4.1102,4.1102,4.1102,4.1102,3.86,3.86,3.86,3.86,3.86,3.86,3.86,3.86,3.86,3.86,3.86,3.86,3.86,3.86,3.86,3.86,3.86,3.86,3.86,3.86,3.86,3.86,3.8618,3.8655,3.8618,3.8618,3.86,3.8618,3.8618,3.8673,3.8618,3.8673,3.8966,3.9076,3.9095,3.9355,3.9652,3.9744,3.9744,3.9817,3.9909,3.9964,3.9964,3.9983,4.0221,4.0368,4.046,4.068,4.0827,4.0699,4.0295,3.9983,3.9983,3.9946,3.9964,3.9983,3.9946,4.0056,4.0295,4.0387,4.0515,4.0717,4.0735,4.0845,4.0845,4.0864,4.0956,4.0992,4.1066,4.1102,4.1102,4.1102,4.1102,4.1102,4.1102,4.1102,4.1102,4.1102,4.1102,4.1102,4.1102,4.1102,4.1102,4.1102,4.1102,4.1102,4.1102,4.1102,4.1102,4.1102,4.1102,4.1102,4.1102,4.1102,4.1102,4.1102,4.1102,4.1102,4.1102,4.1102,4.1102,4.1102,4.1102,4.1102,4.1102,4.1102,4.1102,4.1102,4.1102,4.1102,4.1102,4.1102,4.1102,4.1102,4.1102,3.86,3.86,3.86,3.86,3.86,3.86,3.86,3.86,3.86,3.86,3.86,3.86,3.86,3.86,3.86,3.86,3.86,3.86,3.86,3.8655,3.8765,3.8875,3.8948,3.9043,3.9061,3.8728,3.882,3.8875,3.8911,3.9098,3.9245,3.9208,3.9428,3.9502,3.952,3.9799,3.9964,4.0148,4.0185,4.0258,4.0423,4.046,4.046,4.046,4.0662,4.079,4.0809,4.0956,4.1084,4.0992,4.0699,4.046,4.046,4.046,4.0442,4.046,4.046,4.0533,4.0754,4.0809,4.0882,4.1084,4.1102,4.1102,4.1102,4.1102,4.1102,4.1102,4.1102,4.1102,4.1102,4.1102,4.1102,4.1102,4.1102,4.1102,4.1102,4.1102,4.1102,4.1102,4.1102,4.1102,4.1102,4.1102,4.1102,4.1102,4.1102,4.1102,4.1102,4.1102,4.1102,4.1102,4.1102,4.1102,4.1102,4.1102,4.1102,4.1102,4.1102,4.1102,4.1102,4.1102,4.1102,4.1102,4.1102,4.1102,4.1102,4.1102,4.1102,4.1102,4.1102,4.1102,4.1102,4.1102,4.1102,3.86,3.86,3.86,3.86,3.86,3.86,3.86,3.86,3.86,3.86,3.86,3.86,3.86,3.86,3.86,3.8618,3.871,3.8728,3.8783,3.8988,3.9208,3.9318,3.9392,3.956,3.9505,3.8856,3.9153,3.9318,3.941,3.9671,3.9707,3.9854,3.9964,3.9983,3.9983,4.0074,4.0295,4.057,4.0607,4.0717,4.0956,4.1011,4.0992,4.1011,4.1011,4.1047,4.1047,4.1084,4.1102,4.1102,4.1102,4.1102,4.1102,4.1102,4.1102,4.1066,4.0992,4.0992,4.1011,4.1066,4.1084,4.1102,4.1102,4.1102,4.1102,4.1102,4.1102,4.1102,4.1102,4.1102,4.1102,4.1102,4.1102,4.1102,4.1102,4.1102,4.1102,4.1102,4.1102,4.1102,4.1102,4.1102,4.1102,4.1102,4.1102,4.1102,4.1102,4.1102,4.1102,4.1102,4.1102,4.1102,4.1102,4.1102,4.1102,4.1102,4.1102,4.1102,4.1102,4.1102,4.1102,4.1102,4.1102,4.1102,4.1102,4.1102,4.1102,4.1102,4.1102,4.1102,4.1102,4.1102,4.1102,4.1102,4.1102,3.86,3.86,3.86,3.86,3.86,3.86,3.86,3.86,3.86,3.86,3.86,3.86,3.86,3.8618,3.8618,3.8783,3.904,3.9113,3.9281,3.956,3.9744,3.9781,3.9817,3.9946,3.9854,3.9744,3.9799,3.9817,3.9781,3.9854,4.0019,4.0001,4.024,4.0405,4.0497,4.0699,4.0827,4.0901,4.0937,4.1029,4.1084,4.1102,4.1102,4.1102,4.1102,4.1102,4.1102,4.1102,4.1102,4.1102,4.1102,4.1102,4.1102,4.1102,4.1102,4.1102,4.1102,4.1102,4.1102,4.1102,4.1102,4.1102,4.1102,4.1102,4.1102,4.1102,4.1102,4.1102,4.1102,4.1102,4.1102,4.1102,4.1102,4.1102,4.1102,4.1102,4.1102,4.1102,4.1102,4.1102,4.1102,4.1102,4.1102,4.1102,4.1102,4.1102,4.1102,4.1102,4.1102,4.1102,4.1102,4.1102,4.1102,4.1102,4.1102,4.1102,4.1102,4.1102,4.1102,4.1102,4.1102,4.1102,4.1102,4.1102,4.1102,4.1102,4.1102,4.1102,4.1102,4.1102,4.1102,4.1102,4.1102,4.1102,4.1102,3.86,3.86,3.86,3.86,3.86,3.86,3.86,3.86,3.86,3.86,3.86,3.8618,3.8728,3.8856,3.8911,3.9131,3.9465,3.9538,3.9707,3.9891,4.0093,4.0203,4.024,4.0387,4.0497,4.0515,4.0515,4.0368,4.0258,4.0442,4.046,4.057,4.0735,4.0809,4.0827,4.0974,4.1102,4.1102,4.1102,4.1102,4.1102,4.1102,4.1102,4.1102,4.1102,4.1102,4.1102,4.1102,4.1102,4.1102,4.1102,4.1102,4.1102,4.1102,4.1102,4.1102,4.1102,4.1102,4.1102,4.1102,4.1102,4.1102,4.1102,4.1102,4.1102,4.1102,4.1102,4.1102,4.1102,4.1102,4.1102,4.1102,4.1102,4.1102,4.1102,4.1102,4.1102,4.1102,4.1102,4.1102,4.1102,4.1102,4.1102,4.1102,4.1102,4.1102,4.1102,4.1102,4.1102,4.1102,4.1102,4.1102,4.1102,4.1102,4.1102,4.1102,4.1102,4.1102,4.1102,4.1102,4.1102,4.1102,4.1102,4.1102,4.1102,4.1102,4.1102,4.1102,4.1102,4.1102,4.1102,4.1102,4.1102,4.1102,4.1121,3.86,3.86,3.86,3.86,3.86,3.86,3.86,3.86,3.86,3.86,3.8618,3.871,3.8911,3.915,3.9355,3.9575,3.9983,4.0001,4.0074,4.0258,4.0478,4.0625,4.0735,4.0901,4.1029,4.0956,4.0992,4.0937,4.0735,4.0864,4.1047,4.1011,4.1084,4.1102,4.1102,4.1084,4.1102,4.1102,4.1102,4.1102,4.1102,4.1102,4.1102,4.1102,4.1102,4.1102,4.1102,4.1102,4.1102,4.1102,4.1102,4.1102,4.1102,4.1102,4.1102,4.1102,4.1102,4.1102,4.1102,4.1102,4.1102,4.1102,4.1102,4.1102,4.1102,4.1102,4.1102,4.1102,4.1102,4.1102,4.1102,4.1102,4.1102,4.1102,4.1102,4.1102,4.1102,4.1102,4.1102,4.1102,4.1102,4.1102,4.1102,4.1102,4.1102,4.1102,4.1102,4.1102,4.1102,4.1102,4.1102,4.1102,4.1102,4.1102,4.1102,4.1102,4.1102,4.1102,4.1102,4.1102,4.1102,4.1102,4.1102,4.1102,4.1102,4.1102,4.1102,4.1102,4.1102,4.1102,4.1102,4.1102,4.1102,4.1139,4.1176,3.86,3.86,3.86,3.86,3.86,3.86,3.86,3.86,3.8618,3.86,3.8673,3.8966,3.9168,3.9373,3.9726,4.0074,4.0331,4.0442,4.057,4.079,4.0919,4.0974,4.1011,4.1066,4.1102,4.1102,4.1102,4.1084,4.0992,4.1047,4.1102,4.1102,4.1102,4.1102,4.1102,4.1102,4.1102,4.1102,4.1102,4.1102,4.1102,4.1102,4.1102,4.1102,4.1102,4.1102,4.1102,4.1102,4.1102,4.1102,4.1102,4.1102,4.1102,4.1102,4.1102,4.1102,4.1102,4.1102,4.1102,4.1102,4.1102,4.1102,4.1102,4.1102,4.1102,4.1102,4.1102,4.1102,4.1102,4.1102,4.1102,4.1102,4.1102,4.1102,4.1102,4.1102,4.1102,4.1102,4.1102,4.1102,4.1102,4.1102,4.1102,4.1102,4.1102,4.1102,4.1102,4.1102,4.1102,4.1102,4.1102,4.1102,4.1102,4.1102,4.1102,4.1102,4.1102,4.1102,4.1102,4.1102,4.1102,4.1102,4.1102,4.1102,4.1102,4.1102,4.1102,4.1102,4.1102,4.1102,4.1102,4.1102,4.1102,4.1176,4.1304,3.86,3.86,3.86,3.86,3.86,3.86,3.86,3.8655,3.8838,3.893,3.9003,3.941,3.9703,3.9942,4.0405,4.0662,4.0827,4.0827,4.0919,4.1066,4.1102,4.1102,4.1102,4.1102,4.1102,4.1102,4.1102,4.1102,4.1102,4.1102,4.1102,4.1102,4.1102,4.1102,4.1102,4.1102,4.1102,4.1102,4.1102,4.1102,4.1102,4.1102,4.1102,4.1102,4.1102,4.1102,4.1102,4.1102,4.1102,4.1102,4.1102,4.1102,4.1102,4.1102,4.1102,4.1102,4.1102,4.1102,4.1102,4.1102,4.1102,4.1102,4.1102,4.1102,4.1102,4.1102,4.1102,4.1102,4.1102,4.1102,4.1102,4.1102,4.1102,4.1102,4.1102,4.1102,4.1102,4.1102,4.1102,4.1102,4.1102,4.1102,4.1102,4.1102,4.1102,4.1102,4.1102,4.1102,4.1102,4.1102,4.1102,4.1102,4.1102,4.1102,4.1102,4.1102,4.1102,4.1102,4.1102,4.1102,4.1102,4.1102,4.1102,4.1102,4.1102,4.1102,4.1102,4.1102,4.1102,4.1102,4.1102,4.1194,4.1286,4.1506,4.1653,3.86,3.86,3.86,3.86,3.86,3.86,3.8673,3.8801,3.9058,3.9241,3.9483,3.9854,4.0276,4.0625,4.0901,4.1029,4.1084,4.1102,4.1102,4.1102,4.1102,4.1102,4.1102,4.1102,4.1102,4.1102,4.1102,4.1102,4.1102,4.1102,4.1102,4.1102,4.1102,4.1102,4.1102,4.1102,4.1102,4.1102,4.1102,4.1102,4.1102,4.1102,4.1102,4.1102,4.1102,4.1102,4.1102,4.1102,4.1102,4.1102,4.1102,4.1102,4.1102,4.1102,4.1102,4.1102,4.1102,4.1102,4.1102,4.1102,4.1102,4.1102,4.1102,4.1102,4.1102,4.1102,4.1102,4.1102,4.1102,4.1102,4.1102,4.1102,4.1102,4.1102,4.1102,4.1102,4.1102,4.1102,4.1102,4.1102,4.1102,4.1102,4.1102,4.1102,4.1102,4.1102,4.1102,4.1102,4.1102,4.1102,4.1102,4.1102,4.1102,4.1102,4.1102,4.1102,4.1102,4.1102,4.1102,4.1102,4.1102,4.1102,4.1102,4.1102,4.1102,4.1102,4.1102,4.1102,4.1102,4.1102,4.1158,4.1359,4.1525,4.1782,4.2014,3.86,3.86,3.86,3.86,3.86,3.86,3.8801,3.9095,3.9186,3.9502,3.9928,4.0276,4.068,4.0974,4.1047,4.1102,4.1102,4.1102,4.0934,4.0934,4.1102,4.0976,4.0892,4.085,4.1102,4.1102,4.1102,4.1102,4.1102,4.1102,4.1102,4.1102,4.1102,4.1102,4.1102,4.1102,4.1102,4.1102,4.1102,4.1102,4.1102,4.1102,4.1102,4.1102,4.1102,4.1102,4.1102,4.1102,4.1102,4.1102,4.1102,4.1102,4.1102,4.1102,4.1102,4.1102,4.1102,4.1102,4.1102,4.1102,4.1102,4.1102,4.1102,4.1102,4.1102,4.1102,4.1102,4.1102,4.1102,4.1102,4.1102,4.1102,4.1102,4.1102,4.1102,4.1102,4.1102,4.1102,4.1102,4.1102,4.1102,4.1102,4.1102,4.1102,4.1102,4.1102,4.1102,4.1102,4.1102,4.1102,4.1102,4.1102,4.1102,4.1102,4.1102,4.1102,4.1102,4.1102,4.1102,4.1102,4.1102,4.1102,4.1102,4.1102,4.1102,4.1102,4.1102,4.1102,4.1102,4.1102,4.1231,4.1525,4.1922,4.2307,4.2546,3.86,3.86,3.86,3.86,3.86,3.86,3.882,3.9245,3.9502,4.0038,4.0625,4.0809,4.0956,4.1024,4.1102,4.1102,4.1102,4.1102,4.0451,4.0155,4.0282,4.0325,4.0198,4.0578,4.1102,4.1102,4.1102,4.1102,4.1102,4.1102,4.1102,4.1102,4.1102,4.1102,4.1102,4.1102,4.1102,4.1102,4.1102,4.1102,4.1102,4.1102,4.1102,4.1102,4.1102,4.1102,4.1102,4.1102,4.1102,4.1102,4.1102,4.1102,4.1102,4.1102,4.1102,4.1102,4.1102,4.1102,4.1102,4.1102,4.1102,4.1102,4.1102,4.1102,4.1102,4.1102,4.1102,4.1102,4.1102,4.1102,4.1102,4.1102,4.1102,4.1102,4.1102,4.1102,4.1102,4.1102,4.1102,4.1102,4.1102,4.1102,4.1102,4.1102,4.1102,4.1102,4.1102,4.1102,4.1102,4.1102,4.1102,4.1102,4.1102,4.1102,4.1102,4.1102,4.1102,4.1102,4.1102,4.1102,4.1102,4.1102,4.1102,4.1102,4.1102,4.1102,4.1102,4.1102,4.1102,4.1102,4.1396,4.1757,4.2252,4.2803,4.3004,3.86,3.86,3.86,3.86,3.8618,3.8728,3.9003,3.9447,3.9891,4.0442,4.1102,4.1102,4.0705,4.0536,4.0934,4.001,3.9883,4.0137,3.9713,3.9713,3.9943,4.0113,4.0028,4.0282,4.1102,4.1102,4.1102,4.1102,4.1102,4.1102,4.1102,4.1102,4.1102,4.1102,4.1102,4.1102,4.1102,4.1102,4.1102,4.1102,4.1102,4.1102,4.1102,4.1102,4.1102,4.1102,4.1102,4.1102,4.1102,4.1102,4.1102,4.1102,4.1102,4.1102,4.1102,4.1102,4.1102,4.1102,4.1102,4.1102,4.1102,4.1102,4.1102,4.1102,4.1102,4.1102,4.1102,4.1102,4.1102,4.1102,4.1102,4.1102,4.1102,4.1102,4.1102,4.1102,4.1102,4.1102,4.1102,4.1102,4.1102,4.1102,4.1102,4.1102,4.1102,4.1102,4.1102,4.1102,4.1102,4.1102,4.1102,4.1102,4.1102,4.1102,4.1102,4.1102,4.1102,4.1102,4.1102,4.1102,4.1102,4.1102,4.1102,4.1102,4.1102,4.1102,4.1102,4.1102,4.1102,4.1102,4.1543,4.2057,4.2553,4.303,4.3243,3.86,3.86,3.86,3.86,3.8692,3.9021,3.9447,3.9891,4.0313,4.0717,4.1042,4.0976,3.9968,3.9143,3.9883,3.8802,3.7483,3.9228,3.9586,3.8631,3.9628,4.0536,4.0789,4.085,4.1102,4.1102,4.1102,4.1102,4.1102,4.1102,4.1102,4.1102,4.1102,4.1102,4.1102,4.1102,4.1102,4.1102,4.1102,4.1102,4.1102,4.1102,4.1102,4.1102,4.1102,4.1102,4.1102,4.1102,4.1102,4.1102,4.1102,4.1102,4.1102,4.1102,4.1102,4.1102,4.1102,4.1102,4.1102,4.1102,4.1102,4.1102,4.1102,4.1102,4.1102,4.1102,4.1102,4.1102,4.1102,4.1102,4.1102,4.1102,4.1102,4.1102,4.1102,4.1102,4.1102,4.1102,4.1102,4.1102,4.1102,4.1102,4.1102,4.1102,4.1102,4.1102,4.1102,4.1102,4.1102,4.1102,4.1102,4.1102,4.1102,4.1102,4.1102,4.1102,4.1102,4.1102,4.1102,4.1102,4.1102,4.1102,4.1102,4.1102,4.1102,4.1102,4.1102,4.1102,4.1176,4.1304,4.1837,4.2351,4.2828,4.3177,4.3371,3.86,3.86,3.86,3.8765,3.8985,3.9131,3.9612,4.0295,4.0717,4.0974,4.0771,3.9901,3.9015,3.8417,3.7483,3.6794,3.6058,3.6058,3.6664,3.688,3.8631,3.899,3.9586,4.062,4.106,4.1102,4.1102,4.1102,4.1102,4.1102,4.1102,4.1102,4.1102,4.1102,4.1102,4.1102,4.1102,4.1102,4.1102,4.1102,4.1102,4.1102,4.1102,4.1102,4.1102,4.1102,4.1102,4.1102,4.1102,4.1102,4.1102,4.1102,4.1102,4.1102,4.1102,4.1102,4.1102,4.1102,4.1102,4.1102,4.1102,4.1102,4.1102,4.1102,4.1102,4.1102,4.1102,4.1102,4.1102,4.1102,4.1102,4.1102,4.1102,4.1102,4.1102,4.1102,4.1102,4.1102,4.1102,4.1102,4.1102,4.0934,4.085,4.062,4.062,4.1018,4.1102,4.1102,4.1102,4.1102,4.1102,4.1102,4.1102,4.1102,4.1102,4.1102,4.1102,4.1102,4.1102,4.1102,4.1102,4.1102,4.1102,4.1102,4.1102,4.1102,4.1102,4.1139,4.1304,4.1561,4.1947,4.2351,4.2736,4.3122,4.3426,3.86,3.86,3.86,3.8911,3.9392,3.9447,3.9923,4.0537,4.0343,4.0113,3.9713,3.8143,3.6837,3.6275,3.5842,3.4229,3.3966,3.5885,3.5798,3.6058,3.8272,3.9331,3.9986,4.0367,4.0976,4.1102,4.1102,4.1102,4.1102,4.1102,4.1102,4.1102,4.1102,4.1102,4.1102,4.1102,4.1102,4.1102,4.1102,4.1102,4.1102,4.1102,4.1102,4.1102,4.1102,4.1102,4.1102,4.1102,4.1102,4.1102,4.1102,4.1102,4.1102,4.1102,4.1102,4.1102,4.1102,4.1102,4.1102,4.1102,4.1102,4.1102,4.1102,4.1102,4.1102,4.1102,4.1102,4.1102,4.1102,4.1102,4.1102,4.1102,4.106,4.106,4.0934,4.0934,4.0155,4.007,3.9883,4.001,4.0028,4.0053,4.0137,4.018,4.001,4.0578,4.1102,4.0976,4.0892,4.106,4.106,4.1102,4.106,4.1018,4.106,4.1102,4.1102,4.1102,4.0892,4.0578,4.1102,4.1102,4.1102,4.1102,4.1102,4.1102,4.1102,4.1176,4.1249,4.1451,4.1745,4.2167,4.2626,4.2975,4.3243,3.86,3.86,3.8618,3.9116,3.9799,3.9909,4.0345,4.0771,3.9143,3.8375,3.8075,3.6232,3.4781,3.3556,3.4476,3.3483,3.1923,3.5581,3.6058,3.6751,3.8614,3.9756,4.0494,4.0831,4.106,4.1102,4.1102,4.1102,4.1102,4.0536,4.0578,4.0976,4.0663,4.0807,4.0892,4.1102,4.1102,4.1102,4.1102,4.1102,4.1102,4.1102,4.1102,4.1102,4.1102,4.1102,4.1102,4.1102,4.1102,4.1102,4.1102,4.1102,4.1102,4.1102,4.1102,4.1102,4.1102,4.1102,4.1102,4.1102,4.1102,4.1102,4.1102,4.1102,4.1102,4.1102,4.1102,4.1102,4.1102,4.1102,4.1102,4.1018,4.0976,4.085,4.0663,3.9943,3.8802,3.8375,3.8143,3.8058,3.8015,3.8058,3.8186,3.8375,3.8528,3.893,3.9228,3.9356,3.9568,4.0934,4.0976,4.1102,4.106,4.0976,4.0892,4.0367,3.9713,3.9228,3.9586,3.9543,4.0282,4.0807,4.0723,4.0723,4.1018,4.1102,4.1102,4.1102,4.1121,4.1341,4.1543,4.1818,4.2222,4.2608,4.292,3.86,3.8637,3.8911,3.9355,3.9928,4.0497,4.0168,3.91,3.8417,3.7629,3.6188,3.4345,3.3131,3.2734,3.1923,3.1701,3.244,3.3483,3.4694,3.6188,3.8143,3.8845,3.9671,4.0494,4.0934,4.1102,4.1102,4.106,4.0747,4.0113,4.0198,4.0807,4.0095,4.0198,4.062,4.1102,4.1102,4.1102,4.1102,4.1102,4.1102,4.1102,4.1102,4.1102,4.1102,4.1102,4.1102,4.1102,4.1102,4.1102,4.1102,4.1102,4.1102,4.1102,4.1102,4.1102,4.1102,4.1102,4.1102,4.1102,4.1102,4.1102,4.1102,4.1102,4.1102,4.1102,4.1102,4.1102,4.106,4.106,4.0723,4.0536,3.9968,3.9313,3.9058,3.8272,3.7241,3.6837,3.6578,3.6145,3.6102,3.5928,3.6102,3.6318,3.6535,3.6923,3.7268,3.7526,3.8041,3.9356,4.001,4.0053,4.0053,3.9713,3.9271,3.8845,3.8015,3.7414,3.7843,3.8272,3.8674,3.9186,3.9841,4.0367,4.0765,4.0976,4.1102,4.1102,4.1102,4.1102,4.1286,4.1525,4.1776,4.2204,4.2534,3.86,3.8655,3.9021,3.9557,4.0061,4.0012,3.893,3.7414,3.7198,3.6145,3.4257,3.244,3.1612,3.139,3.0571,3.0526,3.1479,3.2602,3.3819,3.5711,3.7543,3.8802,3.9713,4.0325,4.0934,4.1102,4.1102,4.1102,4.0663,4.018,4.0137,3.9713,3.91,3.9543,4.0028,4.0578,4.1102,4.1102,4.1102,4.1102,4.1102,4.1102,4.1102,4.1102,4.1102,4.1102,4.1102,4.1102,4.1102,4.1102,4.1102,4.1102,4.1102,4.1102,4.1102,4.1102,4.1102,4.1102,4.1102,4.1102,4.1102,4.1102,4.106,4.1102,4.1102,4.1102,4.1102,4.1102,4.1018,4.0892,4.0367,3.9756,3.8588,3.7414,3.688,3.6362,3.5842,3.5364,3.4869,3.4388,3.4097,3.3878,3.3966,3.4229,3.4825,3.5755,3.6188,3.6232,3.6578,3.7268,3.774,3.7826,3.8058,3.8058,3.7629,3.7155,3.6535,3.6058,3.6318,3.6751,3.7096,3.7543,3.81,3.9271,4.0536,4.0747,4.1018,4.1102,4.1102,4.1102,4.1102,4.1286,4.1525,4.18,4.2112,3.86,3.8637,3.9058,3.9777,4.0261,3.9063,3.7371,3.5581,3.5391,3.4229,3.2381,3.0736,3.0137,3.0258,2.9958,3.0227,3.1435,3.2646,3.3688,3.5581,3.8015,3.9228,3.9398,4.0705,4.0325,4.0681,4.0723,4.0325,4.0494,3.9398,3.7972,3.8143,3.8785,3.9015,3.8887,3.9841,4.0536,4.1102,4.1102,4.1102,4.1102,4.1102,4.1102,4.1102,4.1102,4.1102,4.1102,4.1102,4.1102,4.1102,4.1102,4.1102,4.1102,4.1102,4.1102,4.1102,4.1102,4.1102,4.1102,4.1102,4.1102,4.106,4.0976,4.0892,4.085,4.106,4.1102,4.0367,4.007,3.9228,3.8588,3.8058,3.7096,3.5928,3.5087,3.4185,3.3263,3.3087,3.3043,3.2528,3.2056,3.1879,3.2174,3.2484,3.2661,3.4097,3.4447,3.436,3.4622,3.4972,3.5668,3.5869,3.6491,3.6535,3.5608,3.5174,3.4999,3.4825,3.471,3.4972,3.5189,3.5711,3.6362,3.8315,4.0367,4.0663,4.0934,4.1018,4.106,4.1102,4.1102,4.1102,4.1286,4.1506,4.1745,3.86,3.8673,3.941,4.0203,4.0667,3.9065,3.7198,3.5407,3.3951,3.2351,3.0736,3.0182,2.9913,2.9913,2.9913,3.0437,3.213,3.3087,3.3907,3.5652,3.7972,3.8631,3.78,3.8887,3.8972,3.899,3.8972,3.893,3.8571,3.6923,3.5565,3.5972,3.6475,3.6491,3.8032,3.9058,3.9968,4.1018,4.1102,4.1102,4.1102,4.1102,4.1102,4.1102,4.1102,4.1102,4.1102,4.1102,4.1102,4.1102,4.1102,4.1102,4.1102,4.106,4.106,4.1102,4.0807,4.062,4.0705,4.062,4.0536,4.0325,4.0155,4.0325,4.0536,4.0892,4.0596,3.9586,3.8631,3.7671,3.6751,3.6232,3.5538,3.4388,3.3351,3.2086,3.087,3.1048,3.1212,3.0781,3.0227,3.0303,3.0647,3.0781,3.0825,3.0959,3.1048,3.1137,3.1435,3.1923,3.3674,3.4229,3.5277,3.5217,3.4054,3.3307,3.3087,3.244,3.2012,3.2484,3.3219,3.436,3.5538,3.8229,4.0198,4.001,4.0137,4.0934,4.1018,4.106,4.1102,4.1102,4.1102,4.1286,4.1488,3.86,3.871,3.9542,4.035,4.0548,3.8229,3.6405,3.5146,3.2661,3.087,3.0003,2.9913,2.9913,2.9913,2.9913,3.087,3.2558,3.3644,3.4912,3.6405,3.7354,3.8015,3.7929,3.7629,3.7371,3.7414,3.7155,3.688,3.6578,3.5711,3.4841,3.4607,3.4213,3.5581,3.7586,3.84,3.9883,4.106,4.1102,4.1102,4.1102,4.1102,4.1102,4.1102,4.1102,4.1102,4.1102,4.1102,4.1102,4.1102,4.1102,4.1102,4.0807,4.0198,3.9841,3.9458,3.9143,3.8972,3.9356,3.9398,3.9271,3.9015,3.8143,3.7886,3.7783,3.81,3.8802,3.7929,3.7225,3.6275,3.4912,3.417,3.3175,3.2086,3.1612,3.0825,3.0348,3.0392,3.0482,3.0303,3.0003,3.0048,3.0258,3.0258,3.0303,3.0303,3.0003,3.0003,2.9958,2.9913,3.1404,3.2454,3.3439,3.3234,3.1923,3.1346,3.1226,3.0437,2.9913,3.066,3.1834,3.3263,3.4912,3.6751,3.8015,3.8375,3.8759,3.9628,4.0705,4.0976,4.1018,4.1102,4.1102,4.1102,4.1268,3.8673,3.8856,3.9538,4.0184,4.0168,3.7052,3.5348,3.4535,3.1493,2.9958,2.9913,2.9913,2.9913,2.9913,3.0303,3.1257,3.2351,3.3571,3.5304,3.5928,3.7671,3.7629,3.7757,3.7946,3.7198,3.5885,3.4972,3.5059,3.5059,3.401,3.3351,3.3483,3.4999,3.7026,3.7139,3.8571,4.0578,4.0976,4.1102,4.1102,4.1102,4.1102,4.1102,4.1102,4.1102,4.1102,4.1102,4.1102,4.1102,4.1102,4.0976,4.0325,3.9841,3.8972,3.8417,3.7929,3.7009,3.7096,3.7371,3.6923,3.7139,3.7026,3.5885,3.5364,3.5391,3.5435,3.6145,3.6188,3.5451,3.4563,3.3219,3.2219,3.1168,3.0571,3.0258,3.0048,2.9958,2.9913,2.9913,2.9913,2.9913,2.9913,2.9913,2.9913,2.9913,2.9913,2.9913,2.9913,2.9913,2.9913,3.0571,3.0959,3.136,3.075,3.0093,3.0182,3.0303,3.0169,2.9913,3.0048,3.0482,3.179,3.2999,3.4038,3.513,3.6015,3.6983,3.78,3.8972,4.0282,4.0198,4.0198,4.1102,4.1102,4.1102,3.8985,3.9571,3.9758,3.9485,3.8562,3.6405,3.465,3.3043,3.0959,2.9913,2.9958,2.9913,2.9913,3.0003,3.1598,3.2174,3.1568,3.3175,3.2307,3.1923,3.6318,3.6837,3.6491,3.6378,3.6707,3.5102,3.297,3.213,3.2881,3.2012,3.1745,3.269,3.2911,3.5146,3.7903,3.91,3.9756,4.0494,4.1102,4.1102,4.106,4.106,4.1102,4.1102,4.1102,4.1102,4.1102,4.1102,4.1102,4.1102,4.0807,3.9356,3.8143,3.7457,3.6966,3.6058,3.5146,3.532,3.5364,3.5059,3.532,3.5624,3.4607,3.3878,3.3439,3.244,3.3102,3.3659,3.3043,3.244,3.139,3.0914,3.0124,3.0124,2.9958,2.9958,2.9913,2.9913,2.9913,2.9913,2.9913,2.9913,2.9913,2.9913,2.9913,2.9913,2.9913,2.9913,2.9913,2.9913,2.9913,2.9913,2.9913,2.9913,2.9958,3.0003,3.0048,2.9958,3.0003,3.0227,3.0348,3.0392,3.1435,3.2617,3.3219,3.3966,3.4928,3.6015,3.7414,3.8546,3.8674,3.9033,4.0282,4.0892,4.0681]},{"header":{"parameterUnit":"m.s-1","parameterCategory":1,"la1":31.0,"la2":29.5877,"lo1":-88.7671,"lo2":-86.6584,"dy":0.0162,"dx":0.0185,"nx":115,"ny":88,"refTime":"2023-09-25T00:00:00:Z","depth":0,"parameterNumber":3,"parameterNumberName":"V-component_of_WINDS"},"data":[0.0,0.0,0.0,0.0,0.0,0.0,0.0,0.0,0.0,0.0,0.0,0.0,0.0,0.0,0.0,0.0,0.0,0.0,0.0,0.0,0.0,0.0,0.0,0.0,0.0,0.0,0.0,0.0,0.0,0.0,0.0,0.0,0.0,0.0,0.0,0.0,0.0,0.0,0.0,0.0,0.0,0.0,0.0,0.0,0.0,0.0,0.0,0.0,0.0,0.0,0.0,0.0,0.0,0.0,0.0,0.0,0.0,0.0,0.0,0.0,0.0,0.0,0.0,0.0,0.0,0.0,0.0,0.0,0.0,0.0,0.0,0.0,0.0,0.0,0.0,0.0,0.0,0.0,0.0,0.0,0.0,0.0,0.0,0.0,0.0,0.0,0.0,0.0,0.0,0.0,0.0,0.0,0.0,0.0,0.0,0.0,0.0,0.0,0.0,0.0,0.0,0.0,0.0,0.0,0.0,0.0,0.0,0.0,0.0,0.0,0.0,0.0,0.0,0.0,0.0,0.0,0.0,0.0,0.0,0.0,0.0,0.0,0.0,0.0,0.0,0.0,0.0,0.0,0.0,0.0,0.0,0.0,0.0,0.0,0.0,0.0,0.0,0.0,0.0,0.0,0.0,0.0,0.0,0.0,0.0,0.0,0.0,0.0,0.0,0.0,0.0,0.0,0.0,0.0,0.0,0.0,0.0,0.0,0.0,0.0,0.0,0.0,0.0,0.0,0.0,0.0,0.0,0.0,0.0,0.0,0.0,0.0,0.0,0.0,0.0,0.0,0.0,0.0,0.0,0.0,0.0,0.0,0.0,0.0,0.0,0.0,0.0,0.0,0.0,0.0,0.0,0.0,0.0,0.0,0.0,0.0,0.0,0.0,0.0,0.0,0.0,0.0,0.0,0.0,0.0,0.0,0.0,0.0,0.0,0.0,0.0,0.0,0.0,0.0,0.0,0.0,0.0,0.0,0.0,0.0,0.0,0.0,0.0,0.0,0.0,0.0,0.0,0.0,0.0,0.0,0.0,0.0,0.0,0.0,0.0,0.0,0.0,0.0,0.0,0.0,0.0,0.0,0.0,0.0,0.0,0.0,0.0,0.0,0.0,0.0,0.0,0.0,0.0,0.0,0.0,0.0,0.0,0.0,0.0,0.0,0.0,0.0,0.0,0.0,0.0,0.0,0.0,0.0,0.0,0.0,0.0,0.0,0.0,0.0,0.0,0.0,0.0,0.0,0.0,0.0,0.0,0.0,0.0,0.0,0.0,0.0,0.0,0.0,0.0,0.0,0.0,0.0,0.0,0.0,0.0,0.0,0.0,0.0,0.0,0.0,0.0,0.0,0.0,0.0,0.0,0.0,0.0,0.0,0.0,0.0,0.0,0.0,0.0,0.0,0.0,0.0,0.0,0.0,0.0,0.0,0.0,0.0,0.0,0.0,0.0,0.0,0.0,0.0,0.0,0.0,0.0,0.0,0.0,0.0,0.0,0.0,0.0,0.0,0.0,0.0,0.0,0.0,0.0,0.0,0.0,0.0,0.0,0.0,0.0,0.0,0.0,0.0,0.0,0.0,0.0,0.0,0.0,0.0,0.0,0.0,0.0,0.0,0.0,0.0,0.0,0.0,0.0,0.0,0.0,0.0,0.0,0.0,0.0,0.0,0.0,0.0,0.0,0.0,0.0,0.0,0.0,0.0,0.0,0.0,0.0,0.0,0.0,0.0,0.0,0.0,0.0,0.0,0.0,0.0,0.0,0.0,0.0,0.0,0.0,0.0,0.0,0.0,0.0,0.0,0.0,0.0,0.0,0.0,0.0,0.0,0.0,0.0,0.0,0.0,0.0,0.0,0.0,0.0,0.0,0.0,0.0,0.0,0.0,0.0,0.0,0.0,0.0,0.0,0.0,0.0,0.0,0.0,0.0,0.0,0.0,0.0,0.0,0.0,0.0,0.0,0.0,0.0,0.0,0.0,0.0,0.0,0.0,0.0,0.0,0.0,0.0,0.0,0.0,0.0,0.0,0.0,0.0,0.0,0.0,0.0,0.0,0.0,0.0,0.0,0.0,0.0,0.0,0.0,0.0,0.0,0.0,0.0,0.0,0.0,0.0,0.0,0.0,0.0,0.0,0.0,0.0,0.0,0.0,0.0,0.0,0.0,0.0,0.0,0.0,0.0,0.0,0.0,0.0,0.0,0.0,0.0,0.0,0.0,0.0,0.0,0.0,0.0,0.0,0.0,0.0,0.0,0.0,0.0,0.0,0.0,0.0,0.0,0.0,0.0,0.0,0.0,0.0,0.0,0.0,0.0,0.0,0.0,0.0,0.0,0.0,0.0,0.0,0.0,0.0,0.0,0.0,0.0,0.0,0.0,0.0,0.0,0.0,0.0,0.0,0.0,0.0,0.0,0.0,0.0,0.0,0.0,0.0,0.0,0.0,0.0,0.0,0.0,0.0,0.0,0.0,0.0,0.0,0.0,0.0,0.0,0.0,0.0,0.0,0.0,0.0,0.0,0.0,0.0,0.0,0.0,0.0,0.0,0.0,0.0,0.0,0.0,0.0,0.0,0.0,0.0,0.0,0.0,0.0,0.0,0.0,0.0,0.0,0.0,0.0,0.0,0.0,0.0,0.0,0.0,0.0,0.0,0.0,0.0,0.0,0.0,0.0,0.0,0.0,0.0,0.0,0.0,0.0,0.0,0.0,0.0,0.0,0.0,0.0,0.0,0.0,0.0,0.0,0.0,0.0,0.0,0.0,0.0,0.0,0.0,0.0,0.0,0.0,0.0,0.0,0.0,0.0,0.0,0.0,0.0,0.0,0.0,0.0,0.0,0.0,0.0,0.0,0.0,0.0,0.0,0.0,0.0,0.0,0.0,0.0,0.0,0.0,0.0,0.0,0.0,0.0,0.0,0.0,0.0,0.0,0.0,0.0,0.0,0.0,0.0,0.0,0.0,0.0,0.0,0.0,0.0,0.0,0.0,0.0,0.0,0.0,0.0,0.0,0.0,0.0,0.0,0.0,0.0,0.0,0.0,0.0,0.0,0.0,0.0,0.0,0.0,0.0,0.0,0.0,0.0,0.0,0.0,0.0,0.0,0.0,0.0,0.0,0.0,0.0,0.0,0.0,0.0,0.0,0.0,0.0,0.0,0.0,0.0,0.0,0.0,0.0,0.0,0.0,0.0,0.0,0.0,0.0,0.0,0.0,0.0,0.0,0.0,0.0,0.0,0.0,0.0,0.0,0.0,0.0,0.0,0.0,0.0,0.0,0.0,0.0,0.0,0.0,0.0,0.0,0.0,0.0,0.0,0.0,0.0,0.0,0.0,0.0,0.0,0.0,0.0,0.0,0.0,0.0,0.0,0.0,0.0,0.0,0.0,0.0,0.0,0.0,0.0,0.0,0.0,0.0,0.0,0.0,0.0,0.0,0.0,0.0,0.0,0.0,0.0,0.0,0.0,0.0,0.0,0.0,0.0,0.0,0.0,0.0,0.0,0.0,0.0,0.0,0.0,0.0,0.0,0.0,0.0,0.0,0.0,0.0,0.0,0.0,0.0,0.0,0.0,0.0,0.0,0.0,0.0,0.0,0.0,0.0,0.0,0.0,0.0,0.0,0.0,0.0,0.0,0.0,0.0,0.0,0.0,0.0,0.0,0.0,0.0,0.0,0.0,0.0,0.0,0.0,0.0,0.0,0.0,0.0,0.0,0.0,0.0,0.0,0.0,0.0,0.0,0.0,0.0,0.0,0.0,0.0,0.0,0.0,0.0,0.0,0.0,0.0,0.0,0.0,0.0,0.0,0.0,0.0,0.0,0.0,0.0,0.0,0.0,0.0,0.0,0.0,0.0,0.0,0.0,0.0,0.0,0.0,0.0,0.0,0.0,0.0,0.0,0.0,0.0,0.0,0.0,0.0,0.0,0.0,0.0,0.0,0.0,0.0,0.0,0.0,0.0,0.0,0.0,0.0,0.0,0.0,0.0,0.0,0.0,0.0,0.0,0.0,0.0,0.0,0.0,0.0,0.0,0.0,0.0,0.0,0.0,0.0,0.0,0.0,0.0,0.0,0.0,0.0,0.0,0.0,0.0,0.0,0.0,0.0,0.0,0.0,0.0,0.0,0.0,0.0,0.0,0.0,0.0,0.0,0.0,0.0,0.0,0.0,0.0,0.0,0.0,0.0,0.0,0.0,0.0,0.0,0.0,0.0,0.0,0.0,0.0,0.0,0.0,0.0,0.0,0.0,0.0,0.0,0.0,0.0,0.0,0.0,0.0,0.0,0.0,3.1452,0.0,0.0,0.0,0.0,0.0,0.0,0.0,0.0,0.0,0.0,0.0,0.0,0.0,0.0,0.0,0.0,0.0,0.0,0.0,0.0,0.0,0.0,0.0,0.0,0.0,0.0,0.0,0.0,0.0,0.0,0.0,0.0,0.0,0.0,0.0,0.0,0.0,0.0,0.0,0.0,0.0,0.0,0.0,0.0,0.0,0.0,0.0,0.0,0.0,0.0,0.0,0.0,0.0,0.0,0.0,0.0,0.0,0.0,0.0,0.0,0.0,0.0,0.0,0.0,0.0,0.0,0.0,0.0,0.0,0.0,0.0,0.0,0.0,0.0,0.0,0.0,0.0,0.0,0.0,0.0,0.0,0.0,0.0,0.0,0.0,0.0,0.0,0.0,0.0,0.0,0.0,0.0,0.0,0.0,0.0,0.0,0.0,0.0,0.0,0.0,0.0,0.0,0.0,0.0,0.0,0.0,0.0,0.0,0.0,0.0,3.119,3.1496,3.1205,3.119,3.1496,0.0,0.0,0.0,0.0,0.0,0.0,0.0,0.0,0.0,0.0,0.0,0.0,0.0,0.0,0.0,0.0,0.0,0.0,0.0,0.0,0.0,0.0,0.0,0.0,0.0,0.0,0.0,0.0,0.0,0.0,0.0,0.0,0.0,0.0,0.0,0.0,0.0,0.0,0.0,0.0,0.0,0.0,0.0,0.0,0.0,0.0,0.0,0.0,0.0,0.0,0.0,0.0,0.0,0.0,0.0,0.0,0.0,0.0,0.0,0.0,0.0,0.0,0.0,0.0,0.0,0.0,0.0,0.0,0.0,0.0,0.0,0.0,0.0,0.0,0.0,0.0,0.0,0.0,0.0,0.0,0.0,0.0,0.0,0.0,0.0,0.0,0.0,0.0,0.0,0.0,0.0,0.0,0.0,0.0,0.0,0.0,0.0,0.0,0.0,0.0,0.0,0.0,0.0,0.0,0.0,0.0,0.0,0.0,0.0,0.0,0.0,0.0,3.1511,3.1511,3.1511,0.0,0.0,0.0,0.0,0.0,0.0,0.0,0.0,0.0,0.0,0.0,0.0,0.0,0.0,0.0,0.0,0.0,0.0,0.0,0.0,0.0,0.0,0.0,0.0,0.0,0.0,0.0,0.0,0.0,0.0,0.0,0.0,0.0,0.0,0.0,0.0,0.0,0.0,0.0,0.0,0.0,0.0,0.0,0.0,0.0,0.0,0.0,0.0,0.0,0.0,0.0,0.0,0.0,0.0,0.0,0.0,0.0,0.0,0.0,0.0,0.0,0.0,0.0,0.0,0.0,0.0,0.0,0.0,0.0,0.0,0.0,0.0,0.0,0.0,0.0,0.0,0.0,0.0,0.0,0.0,0.0,0.0,0.0,0.0,0.0,0.0,0.0,0.0,0.0,0.0,0.0,0.0,0.0,0.0,0.0,0.0,0.0,0.0,0.0,0.0,0.0,0.0,0.0,0.0,0.0,0.0,0.0,0.0,0.0,0.0,3.1511,3.1511,3.1511,0.0,3.1511,0.0,0.0,0.0,0.0,0.0,0.0,0.0,0.0,0.0,0.0,0.0,0.0,0.0,0.0,0.0,0.0,0.0,0.0,0.0,0.0,0.0,0.0,0.0,0.0,0.0,0.0,0.0,0.0,0.0,0.0,0.0,0.0,0.0,0.0,0.0,0.0,0.0,0.0,0.0,0.0,0.0,0.0,0.0,0.0,0.0,0.0,0.0,0.0,0.0,0.0,0.0,0.0,0.0,0.0,0.0,0.0,0.0,0.0,0.0,0.0,0.0,0.0,0.0,0.0,0.0,0.0,0.0,0.0,0.0,0.0,0.0,0.0,0.0,0.0,0.0,0.0,0.0,0.0,0.0,0.0,0.0,0.0,0.0,0.0,0.0,0.0,0.0,0.0,0.0,0.0,0.0,0.0,0.0,0.0,0.0,0.0,0.0,0.0,0.0,0.0,0.0,0.0,0.0,0.0,0.0,0.0,0.0,0.0,0.0,0.0,3.1511,3.1511,3.1511,3.1511,0.0,0.0,0.0,0.0,0.0,0.0,0.0,0.0,0.0,0.0,0.0,0.0,0.0,0.0,0.0,0.0,0.0,0.0,0.0,0.0,0.0,0.0,0.0,0.0,0.0,0.0,0.0,0.0,0.0,0.0,0.0,0.0,0.0,0.0,0.0,0.0,0.0,0.0,0.0,0.0,0.0,0.0,0.0,0.0,0.0,0.0,0.0,0.0,0.0,0.0,0.0,0.0,0.0,0.0,0.0,0.0,0.0,0.0,0.0,0.0,0.0,0.0,0.0,0.0,0.0,0.0,0.0,0.0,0.0,0.0,0.0,0.0,0.0,0.0,0.0,0.0,0.0,0.0,0.0,0.0,0.0,0.0,0.0,0.0,0.0,0.0,0.0,0.0,0.0,0.0,0.0,0.0,0.0,0.0,0.0,0.0,0.0,0.0,0.0,0.0,0.0,0.0,0.0,0.0,0.0,0.0,0.0,0.0,0.0,0.0,3.1511,3.16,3.178,3.178,3.1884,3.2019,0.0,0.0,0.0,0.0,0.0,0.0,0.0,0.0,0.0,0.0,0.0,0.0,0.0,0.0,0.0,0.0,0.0,0.0,0.0,0.0,0.0,0.0,0.0,0.0,0.0,0.0,0.0,0.0,0.0,0.0,0.0,0.0,0.0,0.0,0.0,0.0,0.0,0.0,0.0,0.0,0.0,0.0,0.0,0.0,0.0,0.0,0.0,0.0,0.0,0.0,0.0,0.0,0.0,0.0,0.0,0.0,0.0,0.0,0.0,0.0,0.0,0.0,0.0,0.0,0.0,0.0,0.0,0.0,0.0,0.0,0.0,0.0,0.0,0.0,0.0,0.0,0.0,0.0,0.0,0.0,0.0,0.0,0.0,0.0,0.0,0.0,0.0,0.0,0.0,0.0,0.0,0.0,0.0,0.0,0.0,0.0,0.0,0.0,0.0,0.0,0.0,0.0,0.0,0.0,0.0,0.0,0.0,0.0,3.1511,3.1511,3.1809,3.2407,3.2452,3.2751,0.0,0.0,0.0,0.0,0.0,0.0,0.0,0.0,0.0,0.0,0.0,0.0,0.0,0.0,0.0,0.0,0.0,0.0,0.0,0.0,0.0,0.0,0.0,0.0,0.0,0.0,0.0,0.0,0.0,0.0,0.0,0.0,0.0,0.0,0.0,0.0,0.0,0.0,0.0,0.0,0.0,0.0,0.0,0.0,0.0,0.0,0.0,0.0,0.0,0.0,0.0,0.0,0.0,0.0,0.0,0.0,0.0,0.0,0.0,0.0,0.0,0.0,0.0,0.0,0.0,0.0,0.0,0.0,0.0,0.0,0.0,0.0,0.0,0.0,0.0,0.0,0.0,0.0,0.0,0.0,0.0,0.0,0.0,0.0,0.0,0.0,0.0,0.0,0.0,0.0,0.0,0.0,0.0,0.0,0.0,0.0,0.0,0.0,0.0,0.0,0.0,0.0,0.0,0.0,0.0,0.0,0.0,0.0,0.0,3.2153,3.2527,3.2916,3.3125,3.3125,3.3245,0.0,0.0,0.0,0.0,0.0,0.0,0.0,0.0,0.0,0.0,0.0,0.0,0.0,0.0,0.0,0.0,0.0,0.0,0.0,0.0,0.0,0.0,0.0,0.0,0.0,0.0,0.0,0.0,0.0,0.0,0.0,0.0,0.0,0.0,0.0,0.0,0.0,0.0,0.0,0.0,0.0,0.0,0.0,0.0,0.0,0.0,0.0,0.0,0.0,0.0,0.0,0.0,0.0,0.0,0.0,0.0,0.0,0.0,0.0,0.0,0.0,0.0,0.0,0.0,0.0,0.0,0.0,0.0,0.0,0.0,0.0,0.0,0.0,0.0,0.0,0.0,0.0,0.0,0.0,0.0,0.0,0.0,0.0,0.0,0.0,0.0,0.0,0.0,0.0,0.0,0.0,0.0,0.0,0.0,0.0,0.0,0.0,0.0,0.0,0.0,0.0,0.0,0.0,0.0,0.0,0.0,0.0,0.0,0.0,3.2811,0.0,3.359,3.3814,3.3875,3.3981,0.0,0.0,0.0,0.0,0.0,0.0,0.0,0.0,0.0,0.0,0.0,0.0,0.0,0.0,0.0,0.0,0.0,0.0,0.0,0.0,0.0,0.0,0.0,0.0,0.0,0.0,0.0,0.0,0.0,0.0,0.0,0.0,0.0,0.0,0.0,0.0,0.0,0.0,0.0,0.0,0.0,0.0,0.0,0.0,0.0,0.0,0.0,0.0,0.0,0.0,0.0,0.0,0.0,0.0,0.0,0.0,0.0,0.0,0.0,0.0,0.0,0.0,0.0,0.0,0.0,0.0,0.0,0.0,0.0,0.0,0.0,0.0,0.0,0.0,0.0,0.0,0.0,0.0,0.0,0.0,0.0,0.0,0.0,0.0,0.0,0.0,0.0,0.0,0.0,0.0,0.0,0.0,0.0,0.0,0.0,0.0,0.0,0.0,0.0,0.0,0.0,0.0,0.0,0.0,0.0,0.0,0.0,0.0,3.2886,3.3484,3.356,3.3904,3.4474,3.4645,3.4994,0.0,0.0,0.0,0.0,0.0,0.0,0.0,0.0,0.0,0.0,0.0,0.0,0.0,0.0,0.0,0.0,0.0,0.0,0.0,0.0,0.0,0.0,0.0,0.0,0.0,0.0,0.0,0.0,0.0,0.0,0.0,0.0,0.0,0.0,0.0,0.0,0.0,0.0,0.0,0.0,0.0,0.0,0.0,0.0,0.0,0.0,0.0,0.0,0.0,0.0,0.0,0.0,0.0,0.0,0.0,0.0,0.0,0.0,0.0,0.0,0.0,0.0,0.0,0.0,0.0,0.0,0.0,0.0,0.0,0.0,0.0,0.0,0.0,0.0,0.0,0.0,0.0,0.0,0.0,0.0,0.0,0.0,0.0,0.0,0.0,0.0,0.0,0.0,0.0,0.0,0.0,0.0,0.0,0.0,0.0,0.0,0.0,0.0,0.0,0.0,0.0,0.0,0.0,0.0,0.0,0.0,0.0,0.0,0.0,3.4861,3.5099,3.5269,3.5338,3.537,3.554,0.0,0.0,0.0,0.0,0.0,0.0,0.0,0.0,0.0,0.0,0.0,0.0,0.0,0.0,0.0,0.0,0.0,0.0,0.0,0.0,0.0,0.0,0.0,0.0,0.0,0.0,0.0,0.0,0.0,0.0,0.0,0.0,0.0,0.0,0.0,0.0,0.0,0.0,0.0,0.0,0.0,0.0,0.0,0.0,0.0,0.0,0.0,0.0,0.0,0.0,0.0,0.0,0.0,0.0,0.0,0.0,0.0,0.0,0.0,0.0,0.0,0.0,0.0,0.0,0.0,0.0,0.0,0.0,0.0,0.0,0.0,0.0,0.0,0.0,0.0,0.0,0.0,0.0,0.0,0.0,0.0,0.0,0.0,0.0,0.0,0.0,0.0,0.0,0.0,0.0,0.0,0.0,0.0,0.0,0.0,0.0,0.0,0.0,0.0,0.0,0.0,0.0,0.0,0.0,0.0,0.0,0.0,0.0,0.0,3.5716,3.5878,3.5941,3.58,3.5863,3.5943,3.6068,0.0,0.0,0.0,0.0,0.0,0.0,0.0,0.0,0.0,0.0,0.0,0.0,0.0,0.0,0.0,0.0,0.0,0.0,0.0,0.0,0.0,0.0,0.0,0.0,0.0,0.0,0.0,0.0,0.0,0.0,0.0,0.0,0.0,0.0,0.0,0.0,0.0,0.0,0.0,0.0,0.0,0.0,0.0,0.0,0.0,0.0,0.0,0.0,0.0,0.0,0.0,0.0,0.0,0.0,0.0,0.0,0.0,0.0,0.0,0.0,0.0,0.0,0.0,0.0,0.0,0.0,0.0,0.0,0.0,0.0,0.0,0.0,0.0,0.0,0.0,0.0,0.0,0.0,0.0,0.0,0.0,0.0,0.0,0.0,0.0,0.0,0.0,0.0,0.0,0.0,0.0,0.0,0.0,0.0,0.0,0.0,0.0,0.0,0.0,0.0,0.0,0.0,0.0,0.0,0.0,0.0,0.0,0.0,3.6127,3.6142,3.6128,3.6005,3.6178,3.6257,0.0,0.0,0.0,0.0,0.0,0.0,0.0,0.0,0.0,0.0,0.0,0.0,0.0,0.0,0.0,0.0,0.0,0.0,0.0,0.0,0.0,0.0,0.0,0.0,0.0,0.0,0.0,0.0,0.0,0.0,0.0,0.0,0.0,0.0,0.0,0.0,0.0,0.0,0.0,0.0,0.0,0.0,0.0,0.0,0.0,0.0,0.0,0.0,0.0,0.0,0.0,0.0,0.0,0.0,0.0,0.0,0.0,0.0,0.0,0.0,0.0,0.0,0.0,0.0,0.0,0.0,0.0,0.0,0.0,0.0,0.0,0.0,0.0,0.0,0.0,0.0,0.0,0.0,0.0,0.0,0.0,0.0,0.0,0.0,0.0,0.0,0.0,0.0,0.0,0.0,0.0,0.0,0.0,0.0,0.0,0.0,0.0,0.0,0.0,0.0,0.0,0.0,0.0,0.0,0.0,0.0,0.0,0.0,0.0,3.7691,3.7789,3.7299,3.6209,3.6653,3.7024,0.0,0.0,0.0,0.0,0.0,0.0,0.0,0.0,0.0,0.0,0.0,0.0,0.0,0.0,0.0,0.0,0.0,0.0,0.0,0.0,0.0,0.0,0.0,0.0,0.0,0.0,0.0,0.0,0.0,0.0,0.0,0.0,0.0,0.0,0.0,0.0,0.0,0.0,0.0,0.0,0.0,0.0,0.0,0.0,0.0,0.0,0.0,0.0,0.0,0.0,0.0,0.0,0.0,0.0,0.0,0.0,0.0,0.0,0.0,0.0,0.0,0.0,0.0,0.0,0.0,0.0,0.0,0.0,0.0,0.0,0.0,0.0,0.0,0.0,0.0,0.0,0.0,0.0,0.0,0.0,0.0,0.0,0.0,0.0,0.0,0.0,0.0,0.0,0.0,0.0,0.0,0.0,0.0,0.0,0.0,0.0,0.0,0.0,0.0,0.0,0.0,0.0,0.0,0.0,0.0,0.0,0.0,0.0,3.8407,3.8376,3.8459,3.809,3.7194,3.7562,3.781,0.0,0.0,0.0,0.0,0.0,0.0,0.0,0.0,0.0,0.0,0.0,0.0,0.0,0.0,0.0,0.0,0.0,0.0,0.0,0.0,0.0,0.0,0.0,0.0,0.0,0.0,0.0,0.0,0.0,0.0,0.0,0.0,0.0,0.0,0.0,0.0,0.0,0.0,0.0,0.0,0.0,0.0,0.0,0.0,0.0,0.0,0.0,0.0,0.0,0.0,0.0,0.0,0.0,0.0,0.0,0.0,0.0,0.0,0.0,0.0,0.0,0.0,0.0,0.0,0.0,0.0,0.0,0.0,0.0,0.0,0.0,0.0,0.0,0.0,0.0,0.0,0.0,0.0,0.0,0.0,0.0,0.0,0.0,0.0,0.0,0.0,0.0,0.0,0.0,0.0,0.0,0.0,0.0,0.0,0.0,0.0,0.0,0.0,0.0,0.0,0.0,0.0,0.0,0.0,0.0,0.0,0.0,0.0,3.8707,3.8707,3.8707,3.8707,3.8707,3.8645,3.8614,0.0,0.0,0.0,0.0,0.0,0.0,0.0,0.0,0.0,0.0,0.0,0.0,0.0,0.0,0.0,0.0,0.0,0.0,0.0,0.0,0.0,0.0,0.0,0.0,0.0,0.0,0.0,0.0,0.0,0.0,0.0,0.0,0.0,0.0,0.0,0.0,0.0,0.0,0.0,0.0,0.0,0.0,0.0,0.0,0.0,0.0,0.0,0.0,0.0,0.0,0.0,0.0,0.0,0.0,0.0,0.0,0.0,0.0,0.0,0.0,0.0,0.0,0.0,0.0,0.0,0.0,0.0,0.0,0.0,0.0,0.0,0.0,0.0,0.0,0.0,0.0,0.0,0.0,0.0,0.0,0.0,0.0,0.0,0.0,0.0,0.0,0.0,0.0,0.0,0.0,0.0,0.0,0.0,0.0,0.0,0.0,0.0,0.0,0.0,0.0,0.0,0.0,0.0,0.0,0.0,0.0,0.0,0.0,4.0074,4.0091,4.0074,4.0074,4.0061,3.9568,3.9291,0.0,0.0,0.0,0.0,0.0,0.0,0.0,0.0,0.0,0.0,0.0,0.0,0.0,0.0,0.0,0.0,0.0,0.0,0.0,0.0,0.0,0.0,0.0,0.0,0.0,0.0,0.0,0.0,0.0,0.0,0.0,0.0,0.0,0.0,0.0,0.0,0.0,0.0,0.0,0.0,0.0,0.0,0.0,0.0,0.0,0.0,0.0,0.0,3.9421,0.0,0.0,0.0,0.0,0.0,0.0,0.0,0.0,0.0,0.0,0.0,0.0,0.0,0.0,0.0,0.0,0.0,0.0,0.0,0.0,0.0,0.0,0.0,0.0,0.0,0.0,0.0,0.0,0.0,0.0,0.0,0.0,0.0,0.0,0.0,0.0,0.0,0.0,0.0,0.0,0.0,0.0,0.0,0.0,0.0,0.0,0.0,0.0,0.0,0.0,0.0,0.0,0.0,0.0,0.0,0.0,0.0,0.0,0.0,4.0505,4.0505,4.0505,4.0505,4.0474,4.0136,3.9968,0.0,0.0,0.0,0.0,0.0,0.0,0.0,0.0,0.0,0.0,0.0,0.0,0.0,0.0,0.0,0.0,0.0,0.0,0.0,0.0,0.0,0.0,0.0,0.0,0.0,0.0,0.0,0.0,0.0,0.0,0.0,0.0,0.0,0.0,0.0,0.0,0.0,0.0,0.0,0.0,0.0,0.0,0.0,0.0,0.0,0.0,0.0,0.0,0.0,0.0,0.0,0.0,0.0,0.0,0.0,0.0,0.0,0.0,0.0,0.0,0.0,0.0,0.0,0.0,0.0,0.0,0.0,0.0,0.0,0.0,0.0,0.0,0.0,0.0,0.0,0.0,0.0,0.0,0.0,0.0,0.0,0.0,0.0,0.0,0.0,0.0,0.0,0.0,0.0,0.0,0.0,0.0,0.0,0.0,0.0,0.0,0.0,0.0,0.0,0.0,0.0,0.0,0.0,0.0,0.0,0.0,0.0,4.0614,4.0676,4.0676,4.0751,4.083,4.083,4.083,4.0812,4.0812,0.0,0.0,0.0,0.0,0.0,0.0,0.0,0.0,0.0,0.0,0.0,0.0,0.0,0.0,0.0,0.0,0.0,0.0,0.0,0.0,0.0,0.0,0.0,0.0,0.0,0.0,0.0,0.0,0.0,0.0,0.0,0.0,0.0,0.0,0.0,0.0,0.0,0.0,3.8469,3.9176,0.0,0.0,0.0,0.0,0.0,0.0,0.0,0.0,4.1487,0.0,0.0,0.0,0.0,0.0,0.0,0.0,0.0,0.0,0.0,0.0,0.0,0.0,0.0,0.0,0.0,0.0,0.0,0.0,0.0,0.0,0.0,0.0,0.0,0.0,0.0,0.0,0.0,0.0,0.0,0.0,0.0,0.0,0.0,0.0,0.0,0.0,0.0,0.0,0.0,0.0,0.0,0.0,0.0,0.0,0.0,0.0,0.0,0.0,0.0,0.0,0.0,0.0,0.0,0.0,0.0,4.0505,4.1107,4.1432,4.1432,4.1937,4.2245,4.2245,4.2245,4.2245,4.2214,0.0,0.0,0.0,0.0,0.0,0.0,0.0,0.0,0.0,0.0,0.0,0.0,0.0,0.0,0.0,0.0,0.0,0.0,0.0,0.0,0.0,0.0,0.0,0.0,0.0,0.0,0.0,0.0,0.0,0.0,0.0,0.0,0.0,0.0,0.0,0.0,0.0,0.0,0.0,3.9974,4.0419,0.0,0.0,0.0,0.0,0.0,0.0,0.0,0.0,4.1343,0.0,0.0,0.0,0.0,0.0,0.0,0.0,0.0,0.0,0.0,0.0,0.0,0.0,0.0,0.0,0.0,0.0,0.0,0.0,0.0,0.0,0.0,0.0,0.0,0.0,0.0,0.0,0.0,0.0,0.0,0.0,0.0,0.0,0.0,0.0,0.0,0.0,0.0,0.0,0.0,0.0,0.0,0.0,0.0,0.0,0.0,0.0,0.0,0.0,0.0,0.0,0.0,0.0,0.0,0.0,4.1599,4.1937,4.2109,4.214,4.2448,4.2602,4.2602,4.2602,4.2602,0.0,0.0,0.0,0.0,0.0,0.0,0.0,0.0,0.0,0.0,0.0,0.0,0.0,0.0,0.0,0.0,0.0,0.0,0.0,0.0,0.0,0.0,0.0,0.0,0.0,0.0,0.0,0.0,0.0,0.0,0.0,0.0,0.0,0.0,0.0,0.0,0.0,0.0,0.0,0.0,4.0444,4.083,4.1192,0.0,0.0,0.0,0.0,0.0,0.0,4.2625,4.2576,0.0,0.0,0.0,0.0,0.0,0.0,0.0,0.0,0.0,0.0,0.0,0.0,0.0,0.0,0.0,0.0,0.0,0.0,0.0,0.0,0.0,0.0,0.0,0.0,0.0,0.0,0.0,0.0,0.0,0.0,0.0,0.0,0.0,0.0,0.0,0.0,0.0,0.0,0.0,0.0,0.0,0.0,0.0,0.0,0.0,0.0,0.0,0.0,0.0,0.0,0.0,0.0,0.0,0.0,0.0,4.2602,4.2725,4.2817,4.2817,4.294,4.3002,4.3002,4.3002,4.3002,0.0,0.0,0.0,0.0,0.0,0.0,0.0,0.0,0.0,0.0,0.0,0.0,0.0,0.0,0.0,0.0,0.0,0.0,0.0,0.0,0.0,0.0,0.0,0.0,0.0,0.0,0.0,0.0,0.0,0.0,0.0,0.0,0.0,0.0,0.0,0.0,0.0,0.0,0.0,0.0,0.0,4.1424,4.2031,4.2138,0.0,0.0,0.0,0.0,4.3674,4.3754,0.0,0.0,0.0,0.0,0.0,0.0,0.0,0.0,0.0,0.0,0.0,0.0,0.0,0.0,0.0,0.0,0.0,0.0,0.0,0.0,0.0,0.0,0.0,0.0,0.0,0.0,0.0,0.0,0.0,0.0,0.0,0.0,0.0,0.0,0.0,0.0,0.0,0.0,0.0,0.0,0.0,0.0,0.0,0.0,0.0,0.0,0.0,0.0,0.0,0.0,0.0,0.0,0.0,0.0,0.0,0.0,4.2633,4.3174,4.3501,4.3513,4.4067,4.4375,4.4375,4.4375,4.4375,0.0,0.0,0.0,0.0,0.0,0.0,0.0,0.0,0.0,0.0,0.0,0.0,0.0,0.0,0.0,0.0,0.0,0.0,0.0,0.0,0.0,0.0,0.0,0.0,0.0,0.0,0.0,0.0,0.0,0.0,0.0,0.0,0.0,0.0,0.0,0.0,0.0,0.0,0.0,0.0,0.0,4.2679,4.2617,4.3265,4.3756,0.0,0.0,4.3663,4.3929,4.3968,0.0,0.0,0.0,0.0,0.0,0.0,0.0,0.0,0.0,0.0,0.0,0.0,0.0,0.0,0.0,0.0,0.0,0.0,0.0,0.0,0.0,0.0,0.0,0.0,0.0,0.0,0.0,0.0,0.0,0.0,0.0,0.0,0.0,0.0,0.0,0.0,0.0,0.0,0.0,0.0,0.0,0.0,0.0,0.0,0.0,0.0,0.0,0.0,0.0,0.0,0.0,0.0,0.0,0.0,0.0,4.3359,4.3728,4.4006,4.416,4.416,4.4437,4.4591,4.4591,4.4591,4.4591,0.0,0.0,0.0,0.0,0.0,0.0,0.0,0.0,0.0,0.0,0.0,0.0,0.0,0.0,0.0,0.0,0.0,0.0,0.0,0.0,0.0,0.0,0.0,0.0,0.0,0.0,0.0,0.0,0.0,0.0,0.0,0.0,0.0,0.0,0.0,0.0,0.0,0.0,0.0,0.0,0.0,0.0,4.3559,4.3844,0.0,0.0,0.0,4.389,4.3988,0.0,0.0,0.0,0.0,0.0,0.0,0.0,0.0,0.0,0.0,0.0,0.0,0.0,0.0,0.0,0.0,0.0,0.0,0.0,0.0,0.0,0.0,0.0,0.0,0.0,0.0,0.0,0.0,0.0,0.0,0.0,0.0,0.0,0.0,0.0,0.0,0.0,0.0,0.0,0.0,0.0,0.0,0.0,0.0,0.0,0.0,0.0,0.0,0.0,0.0,0.0,0.0,0.0,0.0,0.0,0.0,0.0,4.4862,4.4862,4.4986,4.5142,4.5142,4.5067,4.4893,4.4862,0.0,0.0,0.0,0.0,0.0,0.0,0.0,0.0,0.0,0.0,0.0,0.0,0.0,0.0,0.0,0.0,0.0,0.0,0.0,0.0,0.0,0.0,0.0,0.0,0.0,0.0,0.0,3.9973,0.0,0.0,0.0,0.0,0.0,0.0,0.0,0.0,0.0,0.0,0.0,0.0,0.0,0.0,4.3564,4.4205,4.4181,4.4162,0.0,0.0,4.4104,4.4162,4.4297,4.4335,0.0,0.0,0.0,0.0,0.0,0.0,0.0,0.0,0.0,0.0,0.0,0.0,0.0,0.0,0.0,0.0,0.0,0.0,0.0,0.0,0.0,0.0,0.0,0.0,0.0,0.0,0.0,0.0,0.0,0.0,0.0,0.0,0.0,0.0,0.0,0.0,0.0,0.0,0.0,0.0,0.0,0.0,0.0,0.0,0.0,0.0,0.0,0.0,0.0,0.0,0.0,0.0,0.0,0.0,0.0,4.5588,4.5624,4.5967,4.662,4.6672,4.634,4.5642,4.5624,4.5308,0.0,0.0,0.0,0.0,0.0,0.0,0.0,0.0,0.0,0.0,0.0,0.0,0.0,0.0,0.0,0.0,0.0,0.0,0.0,0.0,0.0,0.0,0.0,0.0,0.0,0.0,0.0,0.0,0.0,0.0,0.0,0.0,0.0,0.0,0.0,0.0,0.0,0.0,0.0,0.0,0.0,4.4236,4.4285,4.4297,4.4343,0.0,0.0,4.4324,4.4515,4.4572,4.4496,4.4335,0.0,0.0,0.0,0.0,0.0,0.0,0.0,0.0,0.0,0.0,0.0,0.0,0.0,0.0,0.0,0.0,0.0,0.0,0.0,0.0,0.0,0.0,0.0,0.0,0.0,0.0,0.0,0.0,0.0,0.0,0.0,0.0,0.0,0.0,0.0,0.0,0.0,0.0,0.0,0.0,0.0,0.0,0.0,0.0,0.0,0.0,0.0,0.0,0.0,0.0,0.0,0.0,0.0,4.5437,4.5697,4.6163,4.6501,4.6761,4.6778,4.6431,4.5715,4.6145,4.6038,0.0,0.0,0.0,0.0,0.0,0.0,0.0,0.0,0.0,0.0,0.0,0.0,0.0,0.0,0.0,0.0,0.0,0.0,0.0,0.0,0.0,0.0,0.0,0.0,0.0,0.0,0.0,0.0,4.244,4.2705,4.3214,0.0,0.0,0.0,0.0,0.0,0.0,0.0,0.0,0.0,0.0,4.4335,4.4335,4.4335,0.0,0.0,4.445,4.4496,4.5137,4.5207,4.5322,4.5675,4.5716,0.0,0.0,0.0,0.0,0.0,0.0,0.0,0.0,0.0,0.0,0.0,0.0,0.0,0.0,0.0,0.0,0.0,0.0,0.0,0.0,0.0,0.0,0.0,0.0,0.0,0.0,0.0,0.0,0.0,0.0,0.0,0.0,0.0,0.0,0.0,0.0,0.0,0.0,0.0,0.0,0.0,0.0,0.0,0.0,0.0,0.0,0.0,0.0,0.0,0.0,0.0,0.0,4.5823,4.6038,4.6743,4.7221,4.7455,4.7472,4.7103,4.6396,4.6847,4.6778,0.0,0.0,0.0,0.0,0.0,0.0,0.0,0.0,0.0,0.0,0.0,0.0,0.0,0.0,0.0,0.0,0.0,0.0,0.0,0.0,0.0,0.0,0.0,0.0,0.0,0.0,0.0,0.0,4.3366,4.3625,4.4236,0.0,0.0,0.0,0.0,0.0,0.0,0.0,0.0,0.0,0.0,4.4473,4.4657,4.4688,4.4788,4.5157,4.5072,4.5186,4.5783,4.5895,4.6049,4.6511,0.0,0.0,0.0,0.0,0.0,0.0,0.0,0.0,0.0,0.0,0.0,0.0,0.0,0.0,0.0,0.0,0.0,0.0,0.0,0.0,0.0,0.0,0.0,0.0,0.0,0.0,0.0,0.0,0.0,0.0,3.903,0.0,0.0,0.0,0.0,0.0,0.0,0.0,0.0,0.0,0.0,0.0,0.0,0.0,0.0,0.0,0.0,0.0,0.0,0.0,0.0,0.0,0.0,4.6074,4.6776,4.7473,4.8242,4.8892,4.8938,4.8561,4.7869,4.7885,4.7523,4.6778,0.0,0.0,0.0,0.0,0.0,0.0,0.0,0.0,0.0,0.0,0.0,0.0,0.0,0.0,0.0,0.0,0.0,0.0,0.0,0.0,0.0,0.0,0.0,0.0,0.0,0.0,4.3924,4.4151,4.4285,0.0,0.0,0.0,0.0,0.0,0.0,0.0,0.0,0.0,0.0,4.4622,4.4837,4.5503,4.5576,4.5811,4.6458,4.6551,4.6562,4.6632,4.6612,4.6573,0.0,0.0,0.0,0.0,0.0,0.0,0.0,0.0,0.0,0.0,0.0,0.0,0.0,0.0,0.0,0.0,0.0,0.0,0.0,0.0,0.0,0.0,0.0,0.0,0.0,0.0,0.0,4.104,4.1071,0.0,0.0,0.0,0.0,0.0,0.0,0.0,0.0,0.0,0.0,0.0,4.3297,4.371,0.0,0.0,0.0,0.0,0.0,0.0,0.0,0.0,0.0,0.0,0.0,0.0,4.6535,4.6862,4.7999,4.8767,4.9018,4.9018,4.8639,4.795,4.8386,4.8257,4.7572,0.0,0.0,0.0,0.0,0.0,0.0,0.0,0.0,0.0,0.0,0.0,0.0,0.0,0.0,0.0,0.0,0.0,0.0,0.0,0.0,0.0,0.0,0.0,0.0,0.0,4.4109,0.0,0.0,0.0,0.0,0.0,0.0,0.0,0.0,0.0,0.0,0.0,4.5372,4.5984,4.5973,4.6222,4.6967,4.7044,4.7138,0.0,0.0,0.0,0.0,0.0,0.0,0.0,0.0,0.0,0.0,0.0,0.0,0.0,0.0,4.9298,4.836,4.777,4.7523,4.8014,0.0,0.0,0.0,0.0,0.0,0.0,0.0,0.0,0.0,0.0,0.0,0.0,0.0,0.0,0.0,0.0,4.2602,0.0,0.0,0.0,0.0,0.0,0.0,0.0,0.0,4.4025,4.4321,4.4371,4.4788,4.535,0.0,4.5823,4.557,0.0,0.0,0.0,0.0,0.0,0.0,0.0,0.0,4.7301,4.7613,4.8754,4.9492,4.9763,4.9763,4.9508,4.9073,4.9526,4.9413,4.868,4.8647,4.7978,0.0,0.0,0.0,0.0,0.0,0.0,0.0,0.0,0.0,0.0,0.0,0.0,0.0,0.0,0.0,0.0,0.0,0.0,0.0,0.0,0.0,0.0,0.0,4.4458,0.0,0.0,0.0,0.0,0.0,0.0,0.0,0.0,0.0,4.5852,4.6347,4.6975,4.7481,4.7485,4.7713,4.8451,0.0,0.0,0.0,0.0,0.0,0.0,0.0,5.0307,5.1324,5.127,5.1255,5.1777,5.2324,5.2602,5.2324,0.0,0.0,5.0046,4.9327,4.9187,4.9964,5.0121,5.0334,5.1015,5.1145,5.1275,0.0,0.0,0.0,0.0,0.0,0.0,0.0,0.0,4.2694,4.2725,0.0,4.2725,0.0,0.0,0.0,0.0,0.0,0.0,0.0,0.0,4.5356,4.5733,4.5733,4.5733,4.6127,4.6776,4.6177,4.623,4.6877,4.6944,0.0,0.0,0.0,0.0,0.0,0.0,4.8315,4.9011,4.9766,5.0473,5.1133,5.1167,5.1201,5.1151,5.1167,5.0841,5.014,5.0123,4.9452,4.8034,4.7293,0.0,0.0,0.0,0.0,0.0,0.0,0.0,0.0,0.0,0.0,0.0,0.0,0.0,0.0,0.0,0.0,0.0,0.0,0.0,0.0,4.4622,0.0,0.0,0.0,0.0,0.0,0.0,0.0,0.0,0.0,0.0,4.8046,4.8547,4.9037,4.9073,0.0,0.0,0.0,0.0,5.0385,5.1112,5.1229,5.1266,5.1285,5.1831,5.2267,5.2324,0.0,0.0,5.3389,5.4612,5.5366,5.4667,5.4454,5.3849,5.1662,5.1285,5.1442,5.2167,5.2303,5.2538,5.3175,5.3296,5.3356,4.3759,0.0,0.0,0.0,0.0,4.4036,4.4018,4.4036,4.4036,4.4036,4.4018,4.4036,0.0,0.0,0.0,0.0,0.0,0.0,4.5399,4.5424,4.6163,4.6466,4.6515,4.6498,4.6864,4.7589,4.7897,4.843,4.9173,4.969,4.9059,4.7308,0.0,0.0,0.0,0.0,4.9558,4.9808,5.0505,5.0998,5.1201,5.1201,5.1201,5.1201,5.1201,5.1104,5.0891,5.0891,5.0443,4.9502,4.9278,0.0,0.0,0.0,0.0,0.0,0.0,0.0,0.0,0.0,0.0,0.0,0.0,0.0,0.0,0.0,0.0,0.0,0.0,0.0,4.5249,4.5311,4.5734,0.0,0.0,0.0,0.0,0.0,0.0,0.0,0.0,0.0,5.0939,5.0257,4.995,0.0,0.0,5.0973,5.2244,5.2434,5.2697,5.3422,0.0,0.0,0.0,5.407,5.4037,5.4616,5.4873,5.5007,5.5007,5.54,5.5628,5.5382,5.5364,5.5125,5.4542,5.3904,5.3842,5.4495,5.4706,5.4773,5.494,5.5007,5.5007,4.5628,4.5204,4.4773,4.4591,4.4591,4.4591,4.4591,4.4591,4.4591,4.4591,4.4591,4.4591,4.4591,4.461,4.488,0.0,0.0,0.0,4.6574,4.6582,4.7353,4.7826,4.8105,4.8105,4.8479,4.9191,4.9377,4.9809,5.0525,5.0672,5.041,4.9669,0.0,0.0,4.9484,5.0157,5.0677,5.0978,5.141,5.1792,5.2114,5.2114,5.2114,5.2114,5.2114,5.2114,5.2114,5.2114,5.1764,5.0995,5.0691,5.0198,0.0,0.0,0.0,0.0,0.0,0.0,0.0,0.0,0.0,0.0,0.0,4.501,4.5435,0.0,0.0,0.0,4.6333,4.6391,4.6457,4.6755,0.0,0.0,0.0,0.0,0.0,0.0,0.0,5.1194,5.2045,5.285,5.3516,5.2828,5.234,5.253,5.2761,5.3265,5.4182,0.0,5.447,5.4922,5.54,5.5699,5.5699,5.5546,5.5655,5.6439,5.6596,5.6578,5.6544,5.6562,5.6578,5.6562,5.6562,5.6646,5.695,5.6588,5.6188,5.6151,5.6139,5.6206,5.6477,5.6562,5.6596,4.7902,4.775,4.579,4.4972,4.4953,4.4953,4.4953,4.4953,4.4953,4.4953,4.4953,4.4953,4.4953,4.4991,4.5581,0.0,4.7007,4.772,4.8049,4.8104,4.8825,4.9526,5.0174,5.0191,5.0577,5.1286,5.0643,5.0744,5.1457,5.0877,5.1245,5.252,5.1877,5.1211,5.0524,5.1143,5.181,5.257,5.2554,5.2942,5.3653,5.367,5.367,5.3687,5.3687,5.3687,5.367,5.3619,5.3247,5.252,5.1797,5.107,5.0406,0.0,0.0,0.0,0.0,0.0,0.0,0.0,0.0,0.0,0.0,0.0,0.0,0.0,0.0,0.0,4.9004,0.0,4.804,4.8634,0.0,0.0,0.0,4.956,5.0369,5.1044,5.1996,5.341,0.0,0.0,5.5597,0.0,5.5581,5.4956,5.5344,5.5733,5.58,5.5765,5.58,5.6002,5.5986,5.6003,5.6341,5.6745,5.7354,5.7949,5.8084,5.8051,5.8103,5.8069,5.8069,5.8051,5.8103,5.8254,5.8945,5.8961,5.8675,5.7322,5.7103,5.7306,5.7934,5.8051,5.8051,4.8715,4.8683,4.818,4.7979,4.7946,4.7979,4.7946,4.7946,4.7946,4.7946,4.7946,4.7979,4.7946,4.7928,4.7487,4.7727,4.8503,4.9236,4.9573,4.9619,5.0325,5.0772,5.094,5.094,5.1325,5.2046,5.2505,5.3062,5.3771,5.4191,5.4562,5.4887,5.4718,5.4277,5.3567,5.372,5.416,5.4887,5.4887,5.4989,5.5158,5.5158,5.5192,5.5158,5.5158,5.5192,5.5175,5.4634,5.4228,5.4059,5.3331,5.2859,5.2691,5.1405,0.0,0.0,0.0,0.0,0.0,0.0,0.0,0.0,0.0,4.7347,4.7536,0.0,4.7266,0.0,4.9004,4.9127,4.9462,4.9673,0.0,0.0,5.1825,5.223,5.412,5.3956,5.4071,5.5062,5.5323,5.5496,5.5699,5.6172,5.668,5.702,5.6292,5.5902,5.6409,5.6528,5.6968,5.7931,5.8168,5.8404,5.8844,5.9201,5.9336,5.9539,5.9573,5.9573,5.9573,5.9573,5.9573,5.9573,5.9573,5.9641,5.981,5.9844,5.9776,5.9404,5.9302,5.937,5.9539,5.9539,5.9573,5.147,5.147,5.147,5.1651,5.1854,4.9862,4.9004,4.9004,4.9004,4.9004,4.9004,4.9004,4.9183,4.9466,4.9383,4.9746,5.0516,5.126,5.1815,5.215,5.2522,5.2892,5.3196,5.3196,5.3433,5.3805,5.4262,5.4702,5.5108,5.5496,5.5699,5.5699,5.5699,5.5852,5.6039,5.5412,5.531,5.5699,5.5699,5.5699,5.5699,5.5699,5.5699,5.5699,5.5699,5.5699,5.5699,5.531,5.5074,5.5056,5.4702,5.4481,5.4481,5.3698,5.3019,0.0,0.0,0.0,0.0,0.0,0.0,0.0,0.0,0.0,0.0,0.0,4.9114,5.0307,5.1069,5.1633,5.198,5.2302,5.3027,5.4287,5.4029,5.4268,5.5577,5.5311,5.5474,5.6542,5.6697,5.6934,5.7577,5.8017,5.8389,5.8829,5.8186,5.7796,5.8186,5.8254,5.8592,5.937,5.9487,5.9607,6.0047,6.008,6.008,6.008,6.008,6.008,6.008,6.008,6.008,6.0114,6.0385,6.0757,6.1061,6.1434,6.1685,6.2009,6.211,6.1603,6.0385,6.008,6.008,5.4664,5.4682,5.463,5.508,5.5408,5.1498,4.9862,4.9862,4.9862,4.9862,4.9862,4.9722,5.0129,5.0823,5.1367,5.2046,5.2757,5.345,5.4126,5.4735,5.4735,5.5091,5.5734,5.57,5.5835,5.6005,5.6022,5.6089,5.624,5.6309,5.6309,5.6327,5.6345,5.6972,5.8105,5.6936,5.6309,5.6274,5.6274,5.6274,5.6274,5.624,5.6274,5.624,5.6274,5.6274,5.6274,5.6071,5.5969,5.5969,5.58,5.5699,5.5699,5.5699,5.5364,0.0,5.4501,0.0,0.0,0.0,0.0,0.0,0.0,0.0,0.0,5.1689,5.1922,5.2465,5.3877,5.4728,5.467,5.5311,5.5767,5.5936,5.5969,5.6037,5.624,5.6309,5.6801,5.8072,5.8241,5.873,5.9847,6.0133,6.0114,6.0374,6.0374,6.0442,6.066,6.0302,6.0047,6.0317,6.0554,6.0994,6.096,6.0825,6.0858,6.0791,6.0892,6.0689,6.0858,6.0825,6.0757,6.0825,6.14,6.1975,6.2584,6.3193,6.3802,6.4241,6.4343,6.3599,6.1569,6.0926,6.0689,5.5471,5.5471,5.5471,5.5542,5.5614,5.4794,5.4453,5.4435,5.4435,5.4435,5.44,5.376,5.3905,5.4559,5.4092,5.4318,5.5039,5.5192,5.5361,5.5496,5.5496,5.5668,5.5926,5.5926,5.6572,5.7675,5.7727,5.8264,5.9268,5.9504,5.9596,5.9596,5.9761,5.9863,5.9917,0.0,0.0,0.0,5.9268,5.9268,5.9268,5.9268,5.9268,5.9268,5.9268,0.0,5.9235,5.8118,5.7476,5.7442,5.6341,0.0,0.0,0.0,0.0,0.0,0.0,0.0,0.0,0.0,0.0,0.0,5.3686,5.3558,5.3835,5.447,5.4621,5.4155,5.495,5.5477,5.5489,5.5628,5.6172,5.734,5.7476,5.7949,5.9099,5.9399,5.9679,5.9951,6.0004,6.0106,6.0461,6.0261,6.0698,6.1989,6.2212,6.2688,6.3775,6.1806,6.0708,6.1704,6.2821,6.3632,6.3734,6.3632,6.3463,6.3734,6.3734,6.3666,6.3599,6.3632,6.37,6.3632,6.3903,6.3971,6.414,6.4309,6.4478,6.458,6.4647,6.4444,6.3869,6.3734,6.3734,5.7863,0.0,5.7863,5.7881,0.0,5.7881,5.7863,5.7762,5.6308,5.5972,5.6399,5.6066,5.6304,5.6924,5.6886,5.707,5.7356,5.7803,5.8061,5.8061,5.8169,5.826,5.835,5.835,5.8759,5.9475,5.9491,5.9829,6.0433,6.0579,6.065,6.065,6.0779,6.0897,6.1143,6.1798,6.1442,6.0114,6.008,6.008,6.008,6.008,6.008,6.008,0.0,0.0,0.0,0.0,0.0,0.0,0.0,0.0,0.0,0.0,0.0,5.7297,5.7279,5.7076,5.6682,5.6677,5.683,5.7208,5.726,5.6657,5.5198,5.5808,5.6233,5.6209,5.6886,5.7491,5.7848,5.7863,5.8186,5.8896,5.8998,5.934,6.0077,6.0359,6.0792,6.1567,6.1741,6.198,6.2783,6.2755,6.3008,6.3821,6.3976,6.4249,6.4789,6.3645,6.2823,6.3382,6.4038,6.458,6.4613,6.4613,6.4613,6.4613,6.4613,6.4613,6.4613,6.4613,6.4613,6.4613,6.4884,6.5121,6.5189,6.5425,6.5696,6.5696,6.5696,6.5675,6.5662,6.5121,6.4613,6.008,6.0114,6.0152,6.0171,6.0171,6.0209,6.0227,6.0058,0.0,0.0,0.0,5.7908,5.8232,5.8685,5.9298,5.9478,5.938,6.0124,6.0505,6.0557,6.0708,6.08,6.0837,6.0837,6.0905,6.1042,6.1179,6.1297,6.1397,6.1537,6.1658,6.1658,6.1695,6.1966,6.2503,6.347,6.2989,6.1051,6.0911,6.0892,6.0892,6.0892,6.0892,6.0892,6.0757,6.0689,6.0689,6.0452,6.0317,6.0317,6.0182,6.008,6.008,6.008,6.008,6.008,6.008,6.008,6.008,6.008,6.008,6.008,6.025,5.9235,5.6646,5.7036,5.7645,5.8238,5.8881,5.9528,6.0103,6.0344,6.0465,6.06,6.0736,6.0947,6.1216,6.1325,6.2086,6.3175,6.3433,6.3897,6.5026,6.5177,6.5382,6.547,6.549,6.5607,6.5656,6.536,6.4923,6.4952,6.5169,6.523,6.5142,6.523,6.5088,6.5203,6.5169,6.5081,6.5047,6.5047,6.5067,6.5284,6.563,6.5914,6.5995,6.6326,6.6791,6.6791,6.6791,6.6791,6.669,6.5865,6.5087,6.0114,6.0133,6.0284,6.0377,6.0464,6.0616,6.0708,6.0656,6.0096,5.9886,6.0025,6.0212,6.0353,6.0437,6.054,6.0556,6.0572,6.0692,6.0745,0.0,6.0782,6.0873,6.0966,6.0966,6.1343,6.203,6.2647,6.317,6.3672,6.4491,6.4931,6.4916,6.5103,6.5008,6.4776,6.473,6.4563,6.4217,6.4051,6.3971,6.3971,6.3971,6.3971,6.3937,6.3328,6.3037,6.3004,6.1806,6.1129,6.1129,6.0486,6.008,6.0114,6.0148,6.008,6.008,6.0114,6.008,6.0114,6.008,6.008,6.0148,6.0757,6.0655,5.9607,5.9573,5.9674,5.9776,6.0182,6.031,6.0498,6.1226,6.1968,6.2529,6.3162,6.3815,6.4347,6.4585,6.4804,6.5117,6.522,6.5255,6.5598,6.5515,6.5769,6.6313,6.6509,6.6695,6.7053,6.6722,6.624,6.6233,6.6711,6.7052,6.6875,6.7052,6.6882,6.6874,6.6731,6.6663,6.6629,6.6629,6.6691,6.6977,6.6923,6.6922,6.6935,6.687,6.6875,6.6854,6.6854,6.6833,6.6854,6.6529,6.6406,6.2921,6.294,6.3017,6.309,6.3109,6.3205,6.3243,6.3243,6.3262,6.2525,6.1502,6.1618,6.2082,6.2744,6.2778,6.2961,6.3243,6.3357,6.3395,6.3414,6.3508,6.3621,6.3642,6.3661,6.3867,6.4227,6.4537,6.4843,6.5111,6.5566,6.5776,6.5761,6.5838,6.5799,6.5587,6.5769,6.5875,6.5875,6.5127,6.4762,6.4762,6.4762,6.4701,6.4613,6.4275,6.4106,6.4106,6.3463,6.3091,6.3091,6.2753,6.255,6.255,6.255,6.255,6.255,6.255,6.255,6.255,6.2634,6.2785,6.2901,6.3261,6.3329,6.2955,6.2431,6.2154,6.227,6.2759,6.3109,6.3124,6.3493,6.3892,6.4215,6.4557,6.4957,6.5363,6.5544,6.5778,6.6273,6.6361,6.6499,6.6912,6.6868,6.6917,6.7428,6.7463,6.7635,6.791,6.7624,6.7224,6.7092,6.7305,6.7462,6.753,6.7496,6.7469,6.7387,6.7366,6.7366,6.7366,6.7366,6.7407,6.7489,6.7428,6.7387,6.74,6.725,6.7188,6.7201,6.7167,6.7167,6.7167,6.7084,6.6993,6.5294,6.5294,6.5333,6.5427,6.5431,6.5431,6.5431,6.5451,6.5553,6.4702,6.3227,6.32,6.3836,6.4683,6.4733,6.4965,6.5436,6.5622,6.5645,6.5665,6.5853,6.5895,6.5895,6.5895,6.5895,6.593,6.6068,6.6171,6.6171,6.6309,6.6413,6.6413,6.6413,6.6374,6.6336,6.6765,6.6941,6.6907,6.604,6.5533,6.5413,6.5372,6.5271,6.5108,6.4952,6.4871,6.485,6.4681,6.4613,6.4613,6.4613,6.4613,6.4613,6.4613,6.4634,6.4641,6.4695,6.4715,6.4776,6.4883,6.5062,6.5274,6.5465,6.5587,6.5539,6.5093,6.459,6.4503,6.4889,6.525,6.527,6.5515,6.5671,6.5671,6.5843,6.6058,6.6141,6.6161,6.6426,6.7133,6.7275,6.7463,6.7945,6.8083,6.8049,6.7995,6.8083,6.8083,6.8083,6.8083,6.7959,6.7759,6.7638,6.7658,6.7638,6.7638,6.7618,6.7577,6.7557,6.7557,6.7557,6.7591,6.7734,6.7878,6.7905,6.8022,6.8036,6.8077,6.8125,6.8138,6.8152,6.8104,6.8138,6.7938,6.7479,6.5328,6.5333,6.5559,6.5665,6.5888,6.5853,6.5888,6.5888,6.5891,6.5788,6.5512,6.5585,6.5635,6.5753,6.5753,6.5803,6.5888,6.5857,6.5926,6.5926,6.5876,6.5895,6.5964,6.593,6.5895,6.6033,6.6566,6.6911,6.693,6.7532,6.7842,6.7876,6.7911,6.7763,6.7619,6.7648,6.7716,6.7696,6.7608,6.7352,6.6997,6.6769,6.6609,6.6588,6.5933,6.5615,6.5636,6.4952,6.4613,6.4613,6.4668,6.4634,6.4668,6.4613,6.4715,6.4896,6.4916,6.4963,6.5249,6.5255,6.5343,6.5328,6.5978,6.6399,6.6593,6.7073,6.6753,6.57,6.5451,6.5686,6.5637,6.6322,6.6779,6.6813,6.7315,6.7871,6.7768,6.7891,6.7926,6.798,6.7911,6.8014,6.8049,6.8152,6.8152,6.8221,6.8325,6.8359,6.8359,6.8325,6.8325,6.8162,6.8093,6.8108,6.8088,6.8059,6.8146,6.7957,6.7848,6.7951,6.8054,6.804,6.8025,6.8848,6.891,6.898,6.944,6.9714,6.9486,6.9343,6.9391,6.952,6.9546,6.9262,6.8651,6.6951,6.6971,6.703,6.7109,6.7187,6.7187,6.7206,6.7187,6.7206,6.7206,6.7206,6.7187,6.6965,6.6531,6.6551,6.6792,6.7187,6.7206,6.7206,6.7187,6.7187,6.7206,6.7187,6.7206,6.7187,6.7187,6.7497,6.7635,6.7704,6.7945,6.8083,6.8083,6.8083,6.8044,6.7999,6.7999,6.7965,6.7999,6.7859,6.7719,6.7557,6.7455,6.7332,6.7195,6.6923,6.6766,6.6753,6.646,6.629,6.6324,6.629,6.629,6.6324,6.629,6.633,6.6432,6.6432,6.6533,6.6733,6.6773,6.6833,6.6932,6.7207,6.7472,6.7532,6.7827,6.7649,6.7109,6.703,6.7104,6.7104,6.7423,6.7635,6.7669,6.7911,6.8083,6.8083,6.8083,6.8083,6.8083,6.8083,6.8118,6.8152,6.8497,6.8793,6.8897,6.9138,6.938,6.9449,6.9463,6.9463,6.9483,6.9463,6.9256,6.8966,6.9187,6.9319,6.9348,6.9342,6.9342,6.9273,6.9342,6.952,6.9897,6.983,6.9838,7.0099,7.023,7.0148,7.0196,7.0161,7.0106,6.9995,6.9751,6.9241,6.8083,6.8083,6.8083,6.8083,6.8083,6.8083,6.8083,6.8083,6.8083,6.8083,6.8083,6.8083,6.7827,6.7359,6.731,6.762,6.8049,6.8083,6.8083,6.8083,6.8083,6.8083,6.8083,6.8083,6.8083,6.8083,6.8049,6.8083,6.8083,6.8083,6.8083,6.8083,6.8083,6.8083,6.8083,6.8083,6.8083,6.8083,6.7959,6.7899,6.7879,6.7899,6.7759,6.7516,6.7496,6.7496,6.7496,6.7496,6.7496,6.7496,6.7496,6.7496,6.7496,6.7496,6.755,6.7577,6.7618,6.7719,6.7879,6.7899,6.7959,6.8064,6.8083,6.8083,6.8083,6.8083,6.8187,6.8394,6.8428,6.8359,6.8118,6.8083,6.8083,6.8083,6.8083,6.8152,6.8394,6.8448,6.8532,6.867,6.8877,6.8739,6.8808,6.9242,6.9587,6.9656,7.0035,7.0415,7.0415,7.0346,7.0346,7.0415,7.0553,7.038,6.9828,6.9932,7.038,7.0415,7.0291,7.0256,7.0415,7.038,7.0622,7.0532,7.0656,7.0912,7.1236,7.1167,7.0981,7.1015,7.1015,7.0953,7.1049,7.0646,7.0422,6.8083,6.8083,6.8083,6.8083,6.8083,6.8083,6.8083,6.8083,6.8083,6.8083,6.8083,6.8083,6.8049,6.8014,6.798,6.8049,6.8083,6.8083,6.8083,6.8083,6.8083,6.8083,6.8083,6.8083,6.8083,6.8083,6.8083,6.8083,6.8083,6.8083,6.8083,6.8083,6.8083,6.8083,6.8083,6.8152,6.8118,6.8187,6.8202,6.8167,6.8167,6.8133,6.8002,6.7694,6.753,6.7516,6.7516,6.7496,6.7496,6.7496,6.7516,6.7496,6.7496,6.753,6.7597,6.7779,6.7945,6.8078,6.8133,6.8133,6.8167,6.8152,6.829,6.8152,6.8325,6.8325,6.8601,6.9173,6.9242,6.8966,6.8394,6.8359,6.829,6.8256,6.8187,6.8532,6.9173,6.9242,6.9587,7.0035,7.0104,7.0035,7.0153,7.0311,7.0346,7.038,7.0449,7.0553,7.0656,7.0553,7.0587,7.0725,7.1036,7.1208,7.0553,7.0691,7.0656,7.0725,7.0932,7.0587,7.0449,7.0484,7.0898,7.1222,7.1381,7.176,7.2312,7.2519,7.2381,7.2312,7.2243,7.2215,7.1847,7.2141,7.188,6.8083,6.8083,6.8083,6.8083,6.8083,6.8083,6.8083,6.8083,6.8083,6.8083,6.8083,6.8083,6.8083,6.8083,6.8083,6.8083,6.8083,6.8083,6.8083,6.8083,6.8083,6.8083,6.8083,6.8083,6.8083,6.8083,6.8083,6.8083,6.8083,6.8083,6.8083,6.8083,6.8083,6.8083,6.8187,6.8621,6.8862,6.8911,6.9311,6.9587,6.9518,6.9566,6.9506,6.9295,6.8381,6.7899,6.7899,6.7899,6.7899,6.7899,6.7899,6.7899,6.7899,6.7899,6.7919,6.7965,6.8044,6.8325,6.8773,6.8862,6.9104,6.9518,6.9566,6.9497,6.9587,6.9587,6.969,6.9932,7.0001,6.9828,6.969,6.9566,6.9587,6.9587,6.9587,6.9621,6.9932,7.0001,7.0139,7.0346,7.0415,7.0415,7.0587,7.0829,7.1084,7.1153,7.1553,7.176,7.1864,7.1864,7.1795,7.1864,7.2071,7.2174,7.1967,7.1898,7.1898,7.1898,7.1933,7.1933,7.1829,7.1795,7.214,7.2257,7.236,7.245,7.3002,7.2968,7.2968,7.2933,7.2899,7.2973,7.248,7.2725,7.2528,6.8083,6.8083,6.8083,6.8083,6.8083,6.8083,6.8083,6.8083,6.8083,6.8083,6.8083,6.8083,6.8083,6.8083,6.8083,6.8083,6.8083,6.8083,6.8083,6.8083,6.8083,6.8083,6.8083,6.8083,6.8083,6.8152,6.8394,6.8463,6.8532,6.8739,6.8808,6.8842,6.8842,6.8842,6.8966,6.9414,6.9656,6.9794,7.0173,7.038,7.0415,7.0415,7.0415,7.0277,6.938,6.8862,6.8842,6.8862,6.8842,6.8842,6.8862,6.8842,6.8842,6.8842,6.8842,6.8862,6.8842,6.9049,6.9552,6.9656,6.9863,7.0346,7.038,7.0415,7.0415,7.0415,7.0518,7.0636,7.076,7.0829,7.1105,7.1139,7.0967,7.0553,7.0415,7.0518,7.0705,7.076,7.0898,7.1174,7.1243,7.1174,7.1174,7.1622,7.1829,7.1898,7.2381,7.2657,7.2692,7.2692,7.2692,7.2726,7.2899,7.3002,7.3037,7.3119,7.2726,7.2692,7.2623,7.2795,7.3037,7.3037,7.314,7.3291,7.336,7.3395,7.3416,7.3416,7.3382,7.3326,7.3602,7.38,7.3508,7.3284,7.3254,6.8083,6.8083,6.8083,6.8083,6.8083,6.8187,6.8118,6.8187,6.8221,6.8359,6.8394,6.8221,6.8359,6.8221,6.8394,6.8221,6.8325,6.8359,6.829,6.8221,6.8187,6.8221,6.829,6.8359,6.8359,6.8359,6.8966,6.9276,6.9311,6.9863,7.0173,7.0291,7.0173,7.0104,7.0346,7.0291,7.0415,7.0449,7.0587,7.0587,7.0429,7.0587,7.0622,7.0587,7.0449,7.0415,7.0415,7.0311,7.0208,7.0242,7.0277,7.038,7.0208,7.0208,7.0311,7.0208,7.0311,7.0325,7.036,7.0415,7.0449,7.0691,7.0553,7.0691,7.0725,7.0691,7.0898,7.1394,7.1553,7.1795,7.2381,7.2554,7.2071,7.0739,7.0691,7.0932,7.1325,7.1498,7.1795,7.2381,7.2519,7.2657,7.2692,7.2795,7.2864,7.2864,7.2933,7.3002,7.3071,7.3106,7.2864,7.2968,7.3416,7.3774,7.405,7.4257,7.3705,7.3257,7.3153,7.3188,7.3636,7.3809,7.3981,7.4132,7.4201,7.4201,7.4223,7.4223,7.4339,7.4339,7.458,7.4546,7.433,7.4127,7.4377,6.8083,6.8083,6.8083,6.8083,6.8187,6.867,6.8931,6.9,6.9428,6.967,6.969,6.969,6.969,6.969,6.969,6.969,6.969,6.967,6.9414,6.9,6.8931,6.9187,6.9566,6.9656,6.969,6.9725,6.9932,7.0035,7.0104,7.0346,7.0415,7.0415,7.0449,7.0415,7.0518,7.0877,7.1174,7.1243,7.1726,7.1967,7.1967,7.1967,7.1967,7.2002,7.2002,7.1967,7.1933,7.1001,7.0449,7.0449,7.0415,7.0415,7.0415,7.0415,7.0415,7.0415,7.0415,7.067,7.1084,7.1208,7.1415,7.1829,7.1967,7.1967,7.1967,7.1967,7.2071,7.2312,7.2347,7.2485,7.2726,7.3175,7.3002,7.2105,7.2002,7.2071,7.2312,7.2381,7.2416,7.2692,7.314,7.3416,7.3554,7.3774,7.4085,7.4085,7.4119,7.4098,7.4132,7.405,7.4201,7.427,7.4511,7.4546,7.4753,7.496,7.4787,7.4305,7.4085,7.3981,7.4361,7.4602,7.4753,7.4994,7.5063,7.5098,7.5063,7.5098,7.5201,7.5098,7.5029,7.496,7.4925,7.5029,7.527,6.8946,6.8946,6.8946,6.8946,6.898,6.9518,6.9725,6.9759,7.0208,7.0415,7.038,7.038,7.0415,7.0415,7.0415,7.0415,7.0415,7.0415,7.0311,7.007,6.9794,7.0001,7.038,7.0415,7.0415,7.0484,7.0691,7.0829,7.0829,7.1105,7.1277,7.1277,7.1243,7.1277,7.1277,7.1691,7.1933,7.2036,7.245,7.2692,7.2692,7.2692,7.2692,7.2692,7.2692,7.2692,7.2623,7.176,7.1243,7.1243,7.1243,7.1243,7.1277,7.1277,7.1243,7.1243,7.1312,7.1519,7.1898,7.1933,7.214,7.2588,7.2692,7.2692,7.2726,7.2864,7.3106,7.3106,7.3382,7.3498,7.3602,7.3878,7.3947,7.3567,7.3498,7.3533,7.3498,7.3498,7.3533,7.3671,7.3947,7.4154,7.4361,7.4511,7.4891,7.4891,7.4891,7.4891,7.4891,7.4856,7.4925,7.5063,7.5201,7.527,7.5373,7.558,7.5787,7.5477,7.5167,7.5063,7.5201,7.5339,7.5477,7.5925,7.6132,7.6166,7.6132,7.6063,7.6063,7.5787,7.5649,7.5925,7.6097,7.5994,7.6132,7.038,7.0415,7.038,7.0277,7.0277,7.0415,7.0484,7.0484,7.0622,7.0691,7.0656,7.076,7.0691,7.0622,7.0794,7.0794,7.0587,7.0725,7.1036,7.1208,7.0967,7.0725,7.0794,7.0829,7.0829,7.0829,7.1312,7.1588,7.1622,7.214,7.2692,7.2519,7.245,7.2623,7.2485,7.2657,7.2588,7.2588,7.2692,7.2692,7.2692,7.2692,7.2692,7.2692,7.2692,7.2761,7.283,7.283,7.2761,7.2692,7.2519,7.245,7.2623,7.2692,7.2519,7.2485,7.2657,7.2623,7.2726,7.2726,7.283,7.3037,7.3071,7.283,7.3084,7.3567,7.3865,7.3878,7.4339,7.4753,7.4753,7.4925,7.496,7.5029,7.4787,7.4718,7.4856,7.4787,7.4615,7.4718,7.4891,7.496,7.4994,7.5098,7.5201,7.5235,7.527,7.5339,7.5339,7.5442,7.5167,7.5408,7.5925,7.6029,7.6132,7.627,7.6477,7.6339,7.6063,7.5994,7.5994,7.6063,7.6166,7.6649,7.6891,7.6994,7.6994,7.6787,7.6753,7.6649,7.6787,7.7132,7.7063,7.6787,7.6684,7.0415,7.0415,7.0415,7.0415,7.0484,7.0967,7.1208,7.1291,7.1829,7.1967,7.2071,7.2105,7.2002,7.2071,7.2036,7.2105,7.2002,7.2036,7.214,7.2312,7.2209,7.2105,7.2105,7.2071,7.2036,7.2071,7.2174,7.2381,7.2381,7.2588,7.2692,7.2692,7.2692,7.2692,7.2692,7.2692,7.2692,7.2692,7.2726,7.2726,7.2761,7.2761,7.2692,7.2692,7.2726,7.3002,7.352,7.405,7.374,7.2761,7.2692,7.2692,7.2795,7.2795,7.283,7.283,7.2795,7.3002,7.3416,7.352,7.374,7.427,7.4188,7.4305,7.4339,7.4477,7.4615,7.4615,7.4822,7.496,7.5029,7.5442,7.596,7.6373,7.5684,7.5029,7.4994,7.4891,7.4891,7.496,7.5442,7.5718,7.5856,7.6166,7.6442,7.6442,7.6442,7.6442,7.6304,7.6339,7.6201,7.6511,7.6856,7.6891,7.6925,7.7028,7.7097,7.7028,7.6891,7.6822,7.6787,7.6822,7.6891,7.7097,7.7063,7.7132,7.7166,7.7063,7.7201,7.7201,7.7201,7.7201,7.7201,7.7063,7.7028,7.1381,7.1381,7.1381,7.1381,7.1415,7.1829,7.1981,7.2105,7.2485,7.2692,7.2692,7.2692,7.2692,7.2692,7.2692,7.2692,7.2692,7.2692,7.2692,7.2692,7.2657,7.2657,7.2657,7.2692,7.2692,7.2692,7.2692,7.2692,7.2692,7.2692,7.2692,7.2692,7.2692,7.2692,7.2692,7.2692,7.2899,7.3106,7.3175,7.3278,7.3602,7.3636,7.3636,7.3636,7.3636,7.3878,7.4292,7.4684,7.4442,7.3809,7.3636,7.3602,7.3636,7.3636,7.3602,7.3602,7.3636,7.3843,7.4154,7.4257,7.4442,7.4787,7.4891,7.4891,7.496,7.5167,7.5408,7.5408,7.5649,7.5856,7.5925,7.6304,7.6718,7.6959,7.6408,7.5856,7.5834,7.596,7.5891,7.5994,7.6235,7.6568,7.6546,7.6959,7.7132,7.7166,7.7063,7.7063,7.7097,7.7201,7.7201,7.7201,7.7201,7.7132,7.7097,7.7166,7.7201,7.7201,7.7201,7.7201,7.7201,7.7201,7.7201,7.7201,7.7201,7.7201,7.7201,7.7201,7.7201,7.7201,7.7201,7.7201,7.7201,7.7201,7.7201,7.2692,7.2692,7.2692,7.2692,7.2623,7.2692,7.2623,7.2657,7.2692,7.2692,7.2692,7.2692,7.2692,7.2692,7.2692,7.2692,7.2692,7.2692,7.2692,7.2692,7.2692,7.2692,7.2692,7.2692,7.2692,7.2692,7.2692,7.2692,7.2692,7.2692,7.2692,7.2761,7.2795,7.2864,7.3002,7.3002,7.3347,7.3809,7.3912,7.4154,7.4546,7.4615,7.4615,7.4615,7.4856,7.4925,7.5063,7.5201,7.5201,7.5167,7.4994,7.4753,7.4822,7.4856,7.4822,7.4753,7.4684,7.4753,7.4994,7.5029,7.511,7.5304,7.5304,7.5145,7.5408,7.5891,7.6201,7.6201,7.6822,7.6925,7.6994,7.7132,7.7132,7.7166,7.7097,7.7166,7.7201,7.7201,7.7201,7.7201,7.7166,7.7201,7.7201,7.7201,7.7201,7.7201,7.7201,7.7201,7.7201,7.7201,7.7201,7.7201,7.7201,7.7201,7.7201,7.7201,7.7201,7.7201,7.7201,7.7201,7.7201,7.7201,7.7201,7.7201,7.7201,7.7201,7.7201,7.7201,7.7201,7.7201,7.7201,7.7201,7.7201,7.7201,7.7201,7.2692,7.2692,7.2692,7.2692,7.2692,7.2692,7.2692,7.2692,7.2692,7.2692,7.2692,7.2692,7.2692,7.2692,7.2692,7.2692,7.2692,7.2692,7.2692,7.2692,7.2692,7.2692,7.2726,7.2795,7.2726,7.2726,7.2692,7.2726,7.2726,7.283,7.2726,7.283,7.3382,7.3589,7.3623,7.4016,7.4477,7.4649,7.4649,7.4787,7.496,7.5063,7.5063,7.5098,7.5546,7.5822,7.5994,7.6408,7.6684,7.6442,7.5684,7.5098,7.5098,7.5029,7.5063,7.5098,7.5029,7.5235,7.5684,7.5856,7.6097,7.6477,7.6511,7.6718,7.6718,7.6753,7.6925,7.6994,7.7132,7.7201,7.7201,7.7201,7.7201,7.7201,7.7201,7.7201,7.7201,7.7201,7.7201,7.7201,7.7201,7.7201,7.7201,7.7201,7.7201,7.7201,7.7201,7.7201,7.7201,7.7201,7.7201,7.7201,7.7201,7.7201,7.7201,7.7201,7.7201,7.7201,7.7201,7.7201,7.7201,7.7201,7.7201,7.7201,7.7201,7.7201,7.7201,7.7201,7.7201,7.7201,7.7201,7.7201,7.7201,7.7201,7.7201,7.2692,7.2692,7.2692,7.2692,7.2692,7.2692,7.2692,7.2692,7.2692,7.2692,7.2692,7.2692,7.2692,7.2692,7.2692,7.2692,7.2692,7.2692,7.2692,7.2795,7.3002,7.3209,7.3347,7.3429,7.3464,7.2933,7.3106,7.3209,7.3278,7.3533,7.3809,7.374,7.4154,7.4292,7.4326,7.4753,7.5063,7.5408,7.5477,7.5615,7.5925,7.5994,7.5994,7.5994,7.6373,7.6615,7.6649,7.6925,7.7166,7.6994,7.6442,7.5994,7.5994,7.5994,7.596,7.5994,7.5994,7.6132,7.6546,7.6649,7.6787,7.7166,7.7201,7.7201,7.7201,7.7201,7.7201,7.7201,7.7201,7.7201,7.7201,7.7201,7.7201,7.7201,7.7201,7.7201,7.7201,7.7201,7.7201,7.7201,7.7201,7.7201,7.7201,7.7201,7.7201,7.7201,7.7201,7.7201,7.7201,7.7201,7.7201,7.7201,7.7201,7.7201,7.7201,7.7201,7.7201,7.7201,7.7201,7.7201,7.7201,7.7201,7.7201,7.7201,7.7201,7.7201,7.7201,7.7201,7.7201,7.7201,7.7201,7.7201,7.7201,7.7201,7.7201,7.2692,7.2692,7.2692,7.2692,7.2692,7.2692,7.2692,7.2692,7.2692,7.2692,7.2692,7.2692,7.2692,7.2692,7.2692,7.2726,7.2899,7.2933,7.3037,7.3326,7.374,7.3947,7.4085,7.4305,7.4201,7.3175,7.3636,7.3947,7.4119,7.4511,7.458,7.4856,7.5063,7.5098,7.5098,7.527,7.5684,7.6201,7.627,7.6477,7.6925,7.7028,7.6994,7.7028,7.7028,7.7097,7.7097,7.7166,7.7201,7.7201,7.7201,7.7201,7.7201,7.7201,7.7201,7.7132,7.6994,7.6994,7.7028,7.7132,7.7166,7.7201,7.7201,7.7201,7.7201,7.7201,7.7201,7.7201,7.7201,7.7201,7.7201,7.7201,7.7201,7.7201,7.7201,7.7201,7.7201,7.7201,7.7201,7.7201,7.7201,7.7201,7.7201,7.7201,7.7201,7.7201,7.7201,7.7201,7.7201,7.7201,7.7201,7.7201,7.7201,7.7201,7.7201,7.7201,7.7201,7.7201,7.7201,7.7201,7.7201,7.7201,7.7201,7.7201,7.7201,7.7201,7.7201,7.7201,7.7201,7.7201,7.7201,7.7201,7.7201,7.7201,7.7201,7.2692,7.2692,7.2692,7.2692,7.2692,7.2692,7.2692,7.2692,7.2692,7.2692,7.2692,7.2692,7.2692,7.2726,7.2726,7.3037,7.352,7.3658,7.3878,7.4305,7.4649,7.4718,7.4787,7.5029,7.4856,7.4649,7.4753,7.4787,7.4718,7.4856,7.5167,7.5132,7.558,7.5891,7.6063,7.6442,7.6684,7.6822,7.6891,7.7063,7.7166,7.7201,7.7201,7.7201,7.7201,7.7201,7.7201,7.7201,7.7201,7.7201,7.7201,7.7201,7.7201,7.7201,7.7201,7.7201,7.7201,7.7201,7.7201,7.7201,7.7201,7.7201,7.7201,7.7201,7.7201,7.7201,7.7201,7.7201,7.7201,7.7201,7.7201,7.7201,7.7201,7.7201,7.7201,7.7201,7.7201,7.7201,7.7201,7.7201,7.7201,7.7201,7.7201,7.7201,7.7201,7.7201,7.7201,7.7201,7.7201,7.7201,7.7201,7.7201,7.7201,7.7201,7.7201,7.7201,7.7201,7.7201,7.7201,7.7201,7.7201,7.7201,7.7201,7.7201,7.7201,7.7201,7.7201,7.7201,7.7201,7.7201,7.7201,7.7201,7.7201,7.7201,7.7201,7.2692,7.2692,7.2692,7.2692,7.2692,7.2692,7.2692,7.2692,7.2692,7.2692,7.2692,7.2726,7.2933,7.3175,7.3278,7.3692,7.4223,7.4361,7.458,7.4925,7.5304,7.5511,7.558,7.5856,7.6063,7.6097,7.6097,7.5822,7.5615,7.596,7.5994,7.6201,7.6511,7.6649,7.6684,7.6959,7.7201,7.7201,7.7201,7.7201,7.7201,7.7201,7.7201,7.7201,7.7201,7.7201,7.7201,7.7201,7.7201,7.7201,7.7201,7.7201,7.7201,7.7201,7.7201,7.7201,7.7201,7.7201,7.7201,7.7201,7.7201,7.7201,7.7201,7.7201,7.7201,7.7201,7.7201,7.7201,7.7201,7.7201,7.7201,7.7201,7.7201,7.7201,7.7201,7.7201,7.7201,7.7201,7.7201,7.7201,7.7201,7.7201,7.7201,7.7201,7.7201,7.7201,7.7201,7.7201,7.7201,7.7201,7.7201,7.7201,7.7201,7.7201,7.7201,7.7201,7.7201,7.7201,7.7201,7.7201,7.7201,7.7201,7.7201,7.7201,7.7201,7.7201,7.7201,7.7201,7.7201,7.7201,7.7201,7.7201,7.7201,7.7201,7.7235,7.2692,7.2692,7.2692,7.2692,7.2692,7.2692,7.2692,7.2692,7.2692,7.2692,7.2726,7.2899,7.3278,7.3727,7.4016,7.443,7.5098,7.5132,7.527,7.5615,7.6029,7.6304,7.6511,7.6822,7.7063,7.6925,7.6994,7.6891,7.6511,7.6753,7.7097,7.7028,7.7166,7.7201,7.7201,7.7166,7.7201,7.7201,7.7201,7.7201,7.7201,7.7201,7.7201,7.7201,7.7201,7.7201,7.7201,7.7201,7.7201,7.7201,7.7201,7.7201,7.7201,7.7201,7.7201,7.7201,7.7201,7.7201,7.7201,7.7201,7.7201,7.7201,7.7201,7.7201,7.7201,7.7201,7.7201,7.7201,7.7201,7.7201,7.7201,7.7201,7.7201,7.7201,7.7201,7.7201,7.7201,7.7201,7.7201,7.7201,7.7201,7.7201,7.7201,7.7201,7.7201,7.7201,7.7201,7.7201,7.7201,7.7201,7.7201,7.7201,7.7201,7.7201,7.7201,7.7201,7.7201,7.7201,7.7201,7.7201,7.7201,7.7201,7.7201,7.7201,7.7201,7.7201,7.7201,7.7201,7.7201,7.7201,7.7201,7.7201,7.7201,7.727,7.7339,7.2692,7.2692,7.2692,7.2692,7.2692,7.2692,7.2692,7.2692,7.2726,7.2692,7.283,7.3382,7.3761,7.405,7.4615,7.527,7.5753,7.596,7.6201,7.6615,7.6856,7.6959,7.7028,7.7132,7.7201,7.7201,7.7201,7.7166,7.6994,7.7097,7.7201,7.7201,7.7201,7.7201,7.7201,7.7201,7.7201,7.7201,7.7201,7.7201,7.7201,7.7201,7.7201,7.7201,7.7201,7.7201,7.7201,7.7201,7.7201,7.7201,7.7201,7.7201,7.7201,7.7201,7.7201,7.7201,7.7201,7.7201,7.7201,7.7201,7.7201,7.7201,7.7201,7.7201,7.7201,7.7201,7.7201,7.7201,7.7201,7.7201,7.7201,7.7201,7.7201,7.7201,7.7201,7.7201,7.7201,7.7201,7.7201,7.7201,7.7201,7.7201,7.7201,7.7201,7.7201,7.7201,7.7201,7.7201,7.7201,7.7201,7.7201,7.7201,7.7201,7.7201,7.7201,7.7201,7.7201,7.7201,7.7201,7.7201,7.7201,7.7201,7.7201,7.7201,7.7201,7.7201,7.7201,7.7201,7.7201,7.7201,7.7201,7.7201,7.7201,7.7339,7.758,7.2692,7.2692,7.2692,7.2692,7.2692,7.2692,7.2692,7.2795,7.314,7.3313,7.3451,7.4119,7.4671,7.5119,7.5891,7.6373,7.6684,7.6684,7.6856,7.7132,7.7201,7.7201,7.7201,7.7201,7.7201,7.7201,7.7201,7.7201,7.7201,7.7201,7.7201,7.7201,7.7201,7.7201,7.7201,7.7201,7.7201,7.7201,7.7201,7.7201,7.7201,7.7201,7.7201,7.7201,7.7201,7.7201,7.7201,7.7201,7.7201,7.7201,7.7201,7.7201,7.7201,7.7201,7.7201,7.7201,7.7201,7.7201,7.7201,7.7201,7.7201,7.7201,7.7201,7.7201,7.7201,7.7201,7.7201,7.7201,7.7201,7.7201,7.7201,7.7201,7.7201,7.7201,7.7201,7.7201,7.7201,7.7201,7.7201,7.7201,7.7201,7.7201,7.7201,7.7201,7.7201,7.7201,7.7201,7.7201,7.7201,7.7201,7.7201,7.7201,7.7201,7.7201,7.7201,7.7201,7.7201,7.7201,7.7201,7.7201,7.7201,7.7201,7.7201,7.7201,7.7201,7.7201,7.7201,7.7201,7.7201,7.7201,7.7201,7.7373,7.7546,7.7959,7.8235,7.2692,7.2692,7.2692,7.2692,7.2692,7.2692,7.283,7.3071,7.3554,7.3899,7.4257,7.4856,7.5649,7.6304,7.6822,7.7063,7.7166,7.7201,7.7201,7.7201,7.7201,7.7201,7.7201,7.7201,7.7201,7.7201,7.7201,7.7201,7.7201,7.7201,7.7201,7.7201,7.7201,7.7201,7.7201,7.7201,7.7201,7.7201,7.7201,7.7201,7.7201,7.7201,7.7201,7.7201,7.7201,7.7201,7.7201,7.7201,7.7201,7.7201,7.7201,7.7201,7.7201,7.7201,7.7201,7.7201,7.7201,7.7201,7.7201,7.7201,7.7201,7.7201,7.7201,7.7201,7.7201,7.7201,7.7201,7.7201,7.7201,7.7201,7.7201,7.7201,7.7201,7.7201,7.7201,7.7201,7.7201,7.7201,7.7201,7.7201,7.7201,7.7201,7.7201,7.7201,7.7201,7.7201,7.7201,7.7201,7.7201,7.7201,7.7201,7.7201,7.7201,7.7201,7.7201,7.7201,7.7201,7.7201,7.7201,7.7201,7.7201,7.7201,7.7201,7.7201,7.7201,7.7201,7.7201,7.7201,7.7201,7.7201,7.7304,7.7684,7.7994,7.8477,7.9017,7.2692,7.2692,7.2692,7.2692,7.2692,7.2692,7.3071,7.3623,7.3796,7.4292,7.4994,7.5649,7.6408,7.6959,7.7097,7.7201,7.7201,7.7201,7.729,7.729,7.7201,7.7268,7.7313,7.7335,7.7201,7.7201,7.7201,7.7201,7.7201,7.7201,7.7201,7.7201,7.7201,7.7201,7.7201,7.7201,7.7201,7.7201,7.7201,7.7201,7.7201,7.7201,7.7201,7.7201,7.7201,7.7201,7.7201,7.7201,7.7201,7.7201,7.7201,7.7201,7.7201,7.7201,7.7201,7.7201,7.7201,7.7201,7.7201,7.7201,7.7201,7.7201,7.7201,7.7201,7.7201,7.7201,7.7201,7.7201,7.7201,7.7201,7.7201,7.7201,7.7201,7.7201,7.7201,7.7201,7.7201,7.7201,7.7201,7.7201,7.7201,7.7201,7.7201,7.7201,7.7201,7.7201,7.7201,7.7201,7.7201,7.7201,7.7201,7.7201,7.7201,7.7201,7.7201,7.7201,7.7201,7.7201,7.7201,7.7201,7.7201,7.7201,7.7201,7.7201,7.7201,7.7201,7.7201,7.7201,7.7201,7.7201,7.7442,7.7994,7.8844,7.9569,8.0017,7.2692,7.2692,7.2692,7.2692,7.2692,7.2692,7.3106,7.3809,7.4292,7.5201,7.6304,7.6649,7.6925,7.7154,7.7201,7.7201,7.7201,7.7201,7.75,7.7654,7.7588,7.7566,7.7632,7.7434,7.7201,7.7201,7.7201,7.7201,7.7201,7.7201,7.7201,7.7201,7.7201,7.7201,7.7201,7.7201,7.7201,7.7201,7.7201,7.7201,7.7201,7.7201,7.7201,7.7201,7.7201,7.7201,7.7201,7.7201,7.7201,7.7201,7.7201,7.7201,7.7201,7.7201,7.7201,7.7201,7.7201,7.7201,7.7201,7.7201,7.7201,7.7201,7.7201,7.7201,7.7201,7.7201,7.7201,7.7201,7.7201,7.7201,7.7201,7.7201,7.7201,7.7201,7.7201,7.7201,7.7201,7.7201,7.7201,7.7201,7.7201,7.7201,7.7201,7.7201,7.7201,7.7201,7.7201,7.7201,7.7201,7.7201,7.7201,7.7201,7.7201,7.7201,7.7201,7.7201,7.7201,7.7201,7.7201,7.7201,7.7201,7.7201,7.7201,7.7201,7.7201,7.7201,7.7201,7.7201,7.7201,7.7201,7.7753,7.8534,7.9465,8.05,8.0879,7.2692,7.2692,7.2692,7.2692,7.2726,7.2933,7.3451,7.4188,7.4925,7.596,7.7201,7.7201,7.7367,7.7456,7.729,7.7685,7.775,7.7619,7.7837,7.7837,7.7763,7.7676,7.7719,7.7588,7.7201,7.7201,7.7201,7.7201,7.7201,7.7201,7.7201,7.7201,7.7201,7.7201,7.7201,7.7201,7.7201,7.7201,7.7201,7.7201,7.7201,7.7201,7.7201,7.7201,7.7201,7.7201,7.7201,7.7201,7.7201,7.7201,7.7201,7.7201,7.7201,7.7201,7.7201,7.7201,7.7201,7.7201,7.7201,7.7201,7.7201,7.7201,7.7201,7.7201,7.7201,7.7201,7.7201,7.7201,7.7201,7.7201,7.7201,7.7201,7.7201,7.7201,7.7201,7.7201,7.7201,7.7201,7.7201,7.7201,7.7201,7.7201,7.7201,7.7201,7.7201,7.7201,7.7201,7.7201,7.7201,7.7201,7.7201,7.7201,7.7201,7.7201,7.7201,7.7201,7.7201,7.7201,7.7201,7.7201,7.7201,7.7201,7.7201,7.7201,7.7201,7.7201,7.7201,7.7201,7.7201,7.7201,7.8028,7.8994,7.9925,8.0821,8.1328,7.2692,7.2692,7.2692,7.2692,7.2864,7.3485,7.4188,7.4925,7.5718,7.6477,7.7189,7.7268,7.7706,7.8082,7.775,7.8252,7.8805,7.8039,7.7902,7.8336,7.788,7.7456,7.7323,7.7335,7.7201,7.7201,7.7201,7.7201,7.7201,7.7201,7.7201,7.7201,7.7201,7.7201,7.7201,7.7201,7.7201,7.7201,7.7201,7.7201,7.7201,7.7201,7.7201,7.7201,7.7201,7.7201,7.7201,7.7201,7.7201,7.7201,7.7201,7.7201,7.7201,7.7201,7.7201,7.7201,7.7201,7.7201,7.7201,7.7201,7.7201,7.7201,7.7201,7.7201,7.7201,7.7201,7.7201,7.7201,7.7201,7.7201,7.7201,7.7201,7.7201,7.7201,7.7201,7.7201,7.7201,7.7201,7.7201,7.7201,7.7201,7.7201,7.7201,7.7201,7.7201,7.7201,7.7201,7.7201,7.7201,7.7201,7.7201,7.7201,7.7201,7.7201,7.7201,7.7201,7.7201,7.7201,7.7201,7.7201,7.7201,7.7201,7.7201,7.7201,7.7201,7.7201,7.7201,7.7201,7.7339,7.758,7.858,7.9545,8.0442,8.1097,8.1569,7.2692,7.2692,7.2692,7.3002,7.3416,7.3692,7.4499,7.5684,7.6477,7.6959,7.7288,7.7785,7.8145,7.8441,7.8805,7.913,7.9467,7.9467,7.919,7.9089,7.8336,7.8202,7.7902,7.7411,7.7223,7.7201,7.7201,7.7201,7.7201,7.7201,7.7201,7.7201,7.7201,7.7201,7.7201,7.7201,7.7201,7.7201,7.7201,7.7201,7.7201,7.7201,7.7201,7.7201,7.7201,7.7201,7.7201,7.7201,7.7201,7.7201,7.7201,7.7201,7.7201,7.7201,7.7201,7.7201,7.7201,7.7201,7.7201,7.7201,7.7201,7.7201,7.7201,7.7201,7.7201,7.7201,7.7201,7.7201,7.7201,7.7201,7.7201,7.7201,7.7201,7.7201,7.7201,7.7201,7.7201,7.7201,7.7201,7.7201,7.7201,7.729,7.7335,7.7411,7.7411,7.7246,7.7201,7.7201,7.7201,7.7201,7.7201,7.7201,7.7201,7.7201,7.7201,7.7201,7.7201,7.7201,7.7201,7.7201,7.7201,7.7201,7.7201,7.7201,7.7201,7.7201,7.7201,7.727,7.758,7.8063,7.8787,7.9545,8.027,8.0994,8.1672,7.2692,7.2692,7.2692,7.3278,7.4085,7.4188,7.5085,7.644,7.7292,7.7676,7.7837,7.8531,7.9109,7.9369,7.9565,8.0272,8.0384,7.9546,7.9585,7.9467,7.8469,7.8031,7.7741,7.7544,7.7268,7.7201,7.7201,7.7201,7.7201,7.7201,7.7201,7.7201,7.7201,7.7201,7.7201,7.7201,7.7201,7.7201,7.7201,7.7201,7.7201,7.7201,7.7201,7.7201,7.7201,7.7201,7.7201,7.7201,7.7201,7.7201,7.7201,7.7201,7.7201,7.7201,7.7201,7.7201,7.7201,7.7201,7.7201,7.7201,7.7201,7.7201,7.7201,7.7201,7.7201,7.7201,7.7201,7.7201,7.7201,7.7201,7.7201,7.7201,7.7223,7.7223,7.729,7.729,7.7654,7.7698,7.775,7.7685,7.7719,7.7663,7.7619,7.7597,7.7685,7.7434,7.7201,7.7268,7.7313,7.7223,7.7223,7.7201,7.7223,7.7246,7.7223,7.7201,7.7201,7.7201,7.7313,7.7434,7.7201,7.7201,7.7201,7.7201,7.7201,7.7201,7.7201,7.7339,7.7477,7.7856,7.8408,7.9201,8.0063,8.0718,8.1328,7.2692,7.2692,7.2726,7.3567,7.4753,7.496,7.5878,7.7288,7.8082,7.8462,7.8608,7.9388,7.9992,8.0514,8.0124,8.0586,8.1301,7.9682,7.9467,7.915,7.8301,7.7815,7.7478,7.73,7.7223,7.7201,7.7201,7.7201,7.7201,7.7456,7.7434,7.7268,7.7389,7.7357,7.7313,7.7201,7.7201,7.7201,7.7201,7.7201,7.7201,7.7201,7.7201,7.7201,7.7201,7.7201,7.7201,7.7201,7.7201,7.7201,7.7201,7.7201,7.7201,7.7201,7.7201,7.7201,7.7201,7.7201,7.7201,7.7201,7.7201,7.7201,7.7201,7.7201,7.7201,7.7201,7.7201,7.7201,7.7201,7.7201,7.7201,7.7246,7.7268,7.7335,7.7389,7.7763,7.8252,7.8462,7.8531,7.8573,7.8594,7.8573,7.851,7.8462,7.8343,7.8188,7.8039,7.7974,7.7867,7.729,7.7268,7.7201,7.7223,7.7268,7.7313,7.7544,7.7837,7.8039,7.7902,7.7923,7.7588,7.7357,7.7402,7.7402,7.7246,7.7201,7.7201,7.7201,7.7235,7.7649,7.8028,7.8546,7.9304,8.0028,8.0614,7.2692,7.2761,7.3278,7.4016,7.4994,7.6063,7.7163,7.8103,7.8441,7.8779,7.9408,8.018,8.0732,8.0893,8.1301,8.1388,8.1054,8.0586,8.003,7.9408,7.8531,7.823,7.7858,7.7478,7.729,7.7201,7.7201,7.7223,7.7345,7.7676,7.7632,7.7357,7.7641,7.7632,7.7411,7.7201,7.7201,7.7201,7.7201,7.7201,7.7201,7.7201,7.7201,7.7201,7.7201,7.7201,7.7201,7.7201,7.7201,7.7201,7.7201,7.7201,7.7201,7.7201,7.7201,7.7201,7.7201,7.7201,7.7201,7.7201,7.7201,7.7201,7.7201,7.7201,7.7201,7.7201,7.7201,7.7201,7.7223,7.7223,7.7402,7.7456,7.7706,7.7996,7.8124,7.8469,7.8963,7.9109,7.923,7.9428,7.9448,7.9526,7.9448,7.9349,7.9249,7.9069,7.8907,7.8785,7.8538,7.7974,7.7685,7.7663,7.7663,7.7837,7.8017,7.823,7.8594,7.8882,7.8676,7.8469,7.8315,7.806,7.7772,7.7544,7.7379,7.7268,7.7201,7.7201,7.7201,7.7201,7.7546,7.7994,7.8568,7.927,7.989,7.2692,7.2795,7.3485,7.4395,7.5542,7.7068,7.8188,7.8882,7.8983,7.9428,8.0218,8.1054,8.1422,8.1508,8.1902,8.1919,8.1474,8.0947,8.0403,7.9624,7.882,7.8252,7.7837,7.7566,7.729,7.7201,7.7201,7.7201,7.7389,7.7597,7.7619,7.7837,7.8103,7.7923,7.7719,7.7434,7.7201,7.7201,7.7201,7.7201,7.7201,7.7201,7.7201,7.7201,7.7201,7.7201,7.7201,7.7201,7.7201,7.7201,7.7201,7.7201,7.7201,7.7201,7.7201,7.7201,7.7201,7.7201,7.7201,7.7201,7.7201,7.7201,7.7223,7.7201,7.7201,7.7201,7.7201,7.7201,7.7246,7.7313,7.7544,7.7815,7.8357,7.8882,7.9089,7.9329,7.9565,7.9779,7.9954,8.0162,8.0328,8.0421,8.0384,8.0272,7.9973,7.9604,7.9408,7.9388,7.923,7.8907,7.8682,7.8641,7.8573,7.8573,7.8779,7.9004,7.9249,7.9467,7.9349,7.915,7.8988,7.882,7.8552,7.8017,7.7456,7.7345,7.7246,7.7201,7.7201,7.7201,7.7201,7.7546,7.7994,7.8511,7.9097,7.2692,7.2761,7.3554,7.4809,7.6321,7.7816,7.8902,7.9682,7.9724,8.0272,8.1035,8.1799,8.2104,8.2018,8.217,8.2071,8.1491,8.0929,8.0459,7.9682,7.8594,7.8039,7.7953,7.7367,7.7566,7.7424,7.7402,7.7566,7.7478,7.7953,7.8614,7.8531,7.8217,7.8145,7.8209,7.7772,7.7456,7.7201,7.7201,7.7201,7.7201,7.7201,7.7201,7.7201,7.7201,7.7201,7.7201,7.7201,7.7201,7.7201,7.7201,7.7201,7.7201,7.7201,7.7201,7.7201,7.7201,7.7201,7.7201,7.7201,7.7201,7.7223,7.7268,7.7313,7.7335,7.7223,7.7201,7.7544,7.7698,7.8039,7.8357,7.8573,7.8988,7.9526,7.9858,8.0291,8.0677,8.075,8.0768,8.1018,8.1248,8.1318,8.116,8.1036,8.0965,8.0328,8.0179,8.0216,8.0103,7.9952,7.9643,7.951,7.9269,7.9249,7.9627,7.982,7.9897,7.9973,8.0066,7.9952,7.9856,7.9624,7.9329,7.8448,7.7544,7.7389,7.729,7.7246,7.7223,7.7201,7.7201,7.7201,7.7546,7.7959,7.8408,7.2692,7.283,7.4119,7.5511,7.699,7.8033,7.8983,7.976,8.0348,8.1089,8.1799,8.2088,8.2186,8.2186,8.2186,8.1952,8.1177,8.075,8.0366,7.9608,7.8614,7.8336,7.8697,7.8209,7.8167,7.8202,7.8167,7.8188,7.8322,7.9069,7.9647,7.9507,7.9234,7.9269,7.8629,7.8124,7.7706,7.7246,7.7201,7.7201,7.7201,7.7201,7.7201,7.7201,7.7201,7.7201,7.7201,7.7201,7.7201,7.7201,7.7201,7.7201,7.7201,7.7223,7.7223,7.7201,7.7357,7.7411,7.7367,7.7411,7.7456,7.7566,7.7654,7.7566,7.7456,7.7313,7.7468,7.7902,7.8336,7.8759,7.915,7.9388,7.9702,8.0162,8.0641,8.1195,8.1748,8.1681,8.1576,8.1782,8.2071,8.2002,8.1832,8.1782,8.1765,8.1715,8.1681,8.1647,8.1491,8.1301,8.0549,8.0272,7.9817,7.9801,8.0347,8.0659,8.075,8.1054,8.1266,8.1036,8.0695,8.0216,7.9702,7.849,7.7632,7.7685,7.7619,7.729,7.7246,7.7223,7.7201,7.7201,7.7201,7.7546,7.7925,7.2692,7.2899,7.427,7.5787,7.7273,7.849,7.9309,7.9875,8.0965,8.1748,8.2154,8.2186,8.2186,8.2186,8.2186,8.1748,8.0964,8.0477,7.9935,7.9309,7.8867,7.8594,7.8635,7.8779,7.8902,7.8882,7.9004,7.9089,7.923,7.9624,8.0009,8.0068,8.0236,7.9682,7.88,7.8406,7.775,7.7223,7.7201,7.7201,7.7201,7.7201,7.7201,7.7201,7.7201,7.7201,7.7201,7.7201,7.7201,7.7201,7.7201,7.7201,7.7357,7.7632,7.7772,7.7966,7.8082,7.8167,7.7974,7.7953,7.8017,7.8145,7.8531,7.8656,7.8662,7.8552,7.8252,7.8635,7.8928,7.9369,7.9935,8.0255,8.0714,8.1195,8.1422,8.1765,8.1985,8.1969,8.1935,8.2002,8.2154,8.2137,8.2018,8.2018,8.2002,8.2002,8.2154,8.2154,8.217,8.2186,8.1544,8.109,8.0605,8.0732,8.1301,8.1525,8.1613,8.1952,8.2186,8.1869,8.1336,8.0677,7.9935,7.915,7.8594,7.8462,7.8273,7.788,7.7367,7.7268,7.7246,7.7201,7.7201,7.7201,7.7511,7.283,7.3175,7.4361,7.5875,7.7471,7.9009,7.9743,8.0141,8.151,8.217,8.2186,8.2186,8.2186,8.2186,8.2002,8.1559,8.1089,8.055,7.9762,7.9526,7.8759,7.8779,7.8718,7.867,7.8983,7.9546,7.9952,7.9913,7.9913,8.0365,8.0641,8.0586,7.9897,7.9064,7.8968,7.8322,7.7434,7.7268,7.7201,7.7201,7.7201,7.7201,7.7201,7.7201,7.7201,7.7201,7.7201,7.7201,7.7201,7.7201,7.7268,7.7566,7.7772,7.8167,7.8441,7.8635,7.9029,7.8988,7.8902,7.9069,7.8968,7.9064,7.9546,7.9779,7.9724,7.9705,7.9428,7.9408,7.974,8.0086,8.0695,8.1142,8.1593,8.1902,8.2018,8.2137,8.217,8.2186,8.2186,8.2186,8.2186,8.2186,8.2186,8.2186,8.2186,8.2186,8.2186,8.2186,8.2186,8.2186,8.1902,8.1715,8.1562,8.1835,8.2121,8.2088,8.2002,8.2051,8.2186,8.2137,8.1935,8.1353,8.0786,8.0311,7.9839,7.9487,7.9084,7.8697,7.8167,7.7588,7.7632,7.7632,7.7201,7.7201,7.7201,7.3416,7.452,7.4774,7.6153,7.8196,7.9309,8.0049,8.0768,8.1715,8.2186,8.217,8.2186,8.2186,8.2154,8.1386,8.116,8.1439,8.0714,8.1107,8.1301,7.9349,7.9109,7.9269,7.9365,7.917,7.9894,8.084,8.1177,8.0876,8.1266,8.137,8.0911,8.0822,7.9875,7.8691,7.8103,7.7815,7.7478,7.7201,7.7201,7.7223,7.7223,7.7201,7.7201,7.7201,7.7201,7.7201,7.7201,7.7201,7.7201,7.7357,7.7974,7.8531,7.8861,7.9049,7.9467,7.9875,7.9798,7.9779,7.9913,7.9798,7.9663,8.0068,8.0421,8.0605,8.1054,8.0786,8.0513,8.0768,8.1054,8.1508,8.1731,8.2068,8.2068,8.217,8.217,8.2186,8.2186,8.2186,8.2186,8.2186,8.2186,8.2186,8.2186,8.2186,8.2186,8.2186,8.2186,8.2186,8.2186,8.2186,8.2186,8.2186,8.2186,8.217,8.2154,8.2137,8.217,8.2154,8.2071,8.1985,8.1969,8.1491,8.0983,8.0695,8.0384,7.9971,7.9487,7.8882,7.8378,7.8315,7.818,7.7588,7.7313,7.7424]}]]